<?xml version="1.0" encoding="UTF-8" standalone="no" ?>
<gpx xmlns="http://www.topografix.com/GPX/1/1" xmlns:xsi="http://www.w3.org/2001/XMLSchema-instance" xsi:schemaLocation="http://www.topografix.com/GPX/1/1 http://www.topografix.com/GPX/1/1/gpx.xsd" version="1.1" creator="VisuGPX - https://www.visugpx.com">
  <metadata>
    <name>chapelle du Mont Saint Michel en Savoie</name>
    <desc><![CDATA[balade familiale intéressante]]></desc>
  </metadata>
  <trk>
    <name><![CDATA[2020-07-26 17-11-56]]></name>
    <trkseg>
      <trkpt lat="45.54595" lon="5.98048">
        <ele>314.97</ele>
        <time>2020-07-26T08:52:28Z</time>
      </trkpt>
      <trkpt lat="45.54605" lon="5.98044">
        <ele>312.57</ele>
        <time>2020-07-26T08:52:32Z</time>
      </trkpt>
      <trkpt lat="45.54613" lon="5.98051">
        <ele>315.45</ele>
        <time>2020-07-26T08:52:47Z</time>
      </trkpt>
      <trkpt lat="45.54613" lon="5.98056">
        <ele>314.01</ele>
        <time>2020-07-26T08:52:50Z</time>
      </trkpt>
      <trkpt lat="45.54615" lon="5.98063">
        <ele>316.41</ele>
        <time>2020-07-26T08:52:58Z</time>
      </trkpt>
      <trkpt lat="45.54617" lon="5.98067">
        <ele>314.97</ele>
        <time>2020-07-26T08:53:06Z</time>
      </trkpt>
      <trkpt lat="45.54619" lon="5.9807">
        <ele>314.49</ele>
        <time>2020-07-26T08:53:31Z</time>
      </trkpt>
      <trkpt lat="45.54618" lon="5.98069">
        <ele>316.89</ele>
        <time>2020-07-26T08:53:35Z</time>
      </trkpt>
      <trkpt lat="45.54624" lon="5.9807">
        <ele>314.49</ele>
        <time>2020-07-26T08:53:57Z</time>
      </trkpt>
      <trkpt lat="45.54619" lon="5.98076">
        <ele>314.01</ele>
        <time>2020-07-26T08:54:18Z</time>
      </trkpt>
      <trkpt lat="45.54627" lon="5.9807">
        <ele>314.49</ele>
        <time>2020-07-26T08:54:45Z</time>
      </trkpt>
      <trkpt lat="45.54639" lon="5.98063">
        <ele>314.49</ele>
        <time>2020-07-26T08:55:21Z</time>
      </trkpt>
      <trkpt lat="45.54635" lon="5.98065">
        <ele>315.45</ele>
        <time>2020-07-26T08:55:45Z</time>
      </trkpt>
      <trkpt lat="45.54636" lon="5.98067">
        <ele>314.97</ele>
        <time>2020-07-26T08:56:29Z</time>
      </trkpt>
      <trkpt lat="45.54636" lon="5.98063">
        <ele>314.97</ele>
        <time>2020-07-26T08:57:09Z</time>
      </trkpt>
      <trkpt lat="45.54637" lon="5.98061">
        <ele>314.97</ele>
        <time>2020-07-26T08:57:34Z</time>
      </trkpt>
      <trkpt lat="45.54648" lon="5.98067">
        <ele>314.97</ele>
        <time>2020-07-26T08:58:01Z</time>
      </trkpt>
      <trkpt lat="45.54658" lon="5.98073">
        <ele>314.97</ele>
        <time>2020-07-26T08:58:25Z</time>
      </trkpt>
      <trkpt lat="45.54658" lon="5.98074">
        <ele>314.97</ele>
        <time>2020-07-26T08:58:26Z</time>
      </trkpt>
      <trkpt lat="45.54661" lon="5.98076">
        <ele>314.97</ele>
        <time>2020-07-26T08:58:29Z</time>
      </trkpt>
      <trkpt lat="45.5467" lon="5.98098">
        <ele>317.37</ele>
        <time>2020-07-26T08:58:57Z</time>
      </trkpt>
      <trkpt lat="45.54691" lon="5.9813">
        <ele>318.33</ele>
        <time>2020-07-26T08:59:23Z</time>
      </trkpt>
      <trkpt lat="45.54717" lon="5.98155">
        <ele>318.33</ele>
        <time>2020-07-26T08:59:53Z</time>
      </trkpt>
      <trkpt lat="45.54723" lon="5.98171">
        <ele>318.33</ele>
        <time>2020-07-26T09:00:03Z</time>
      </trkpt>
      <trkpt lat="45.5472" lon="5.98183">
        <ele>316.41</ele>
        <time>2020-07-26T09:00:09Z</time>
      </trkpt>
      <trkpt lat="45.54719" lon="5.98193">
        <ele>314.01</ele>
        <time>2020-07-26T09:00:14Z</time>
      </trkpt>
      <trkpt lat="45.54719" lon="5.98206">
        <ele>316.89</ele>
        <time>2020-07-26T09:00:21Z</time>
      </trkpt>
      <trkpt lat="45.54719" lon="5.98213">
        <ele>318.33</ele>
        <time>2020-07-26T09:00:25Z</time>
      </trkpt>
      <trkpt lat="45.54723" lon="5.98238">
        <ele>315.45</ele>
        <time>2020-07-26T09:00:43Z</time>
      </trkpt>
      <trkpt lat="45.54724" lon="5.98262">
        <ele>313.05</ele>
        <time>2020-07-26T09:01:04Z</time>
      </trkpt>
      <trkpt lat="45.54729" lon="5.983">
        <ele>310.64</ele>
        <time>2020-07-26T09:01:28Z</time>
      </trkpt>
      <trkpt lat="45.54734" lon="5.98326">
        <ele>309.68</ele>
        <time>2020-07-26T09:01:50Z</time>
      </trkpt>
      <trkpt lat="45.54741" lon="5.98363">
        <ele>308.24</ele>
        <time>2020-07-26T09:02:16Z</time>
      </trkpt>
      <trkpt lat="45.54743" lon="5.98403">
        <ele>304.88</ele>
        <time>2020-07-26T09:02:45Z</time>
      </trkpt>
      <trkpt lat="45.54747" lon="5.98458">
        <ele>301.99</ele>
        <time>2020-07-26T09:03:17Z</time>
      </trkpt>
      <trkpt lat="45.54754" lon="5.98493">
        <ele>300.55</ele>
        <time>2020-07-26T09:03:42Z</time>
      </trkpt>
      <trkpt lat="45.54761" lon="5.98523">
        <ele>300.55</ele>
        <time>2020-07-26T09:04:07Z</time>
      </trkpt>
      <trkpt lat="45.54764" lon="5.98549">
        <ele>300.07</ele>
        <time>2020-07-26T09:04:30Z</time>
      </trkpt>
      <trkpt lat="45.54768" lon="5.98564">
        <ele>300.07</ele>
        <time>2020-07-26T09:04:40Z</time>
      </trkpt>
      <trkpt lat="45.54769" lon="5.98571">
        <ele>299.59</ele>
        <time>2020-07-26T09:05:07Z</time>
      </trkpt>
      <trkpt lat="45.54765" lon="5.98575">
        <ele>299.59</ele>
        <time>2020-07-26T09:05:45Z</time>
      </trkpt>
      <trkpt lat="45.54769" lon="5.98586">
        <ele>296.22</ele>
        <time>2020-07-26T09:06:01Z</time>
      </trkpt>
      <trkpt lat="45.54772" lon="5.98589">
        <ele>296.7</ele>
        <time>2020-07-26T09:06:05Z</time>
      </trkpt>
      <trkpt lat="45.54782" lon="5.98588">
        <ele>299.11</ele>
        <time>2020-07-26T09:06:19Z</time>
      </trkpt>
      <trkpt lat="45.54784" lon="5.98588">
        <ele>299.59</ele>
        <time>2020-07-26T09:06:23Z</time>
      </trkpt>
      <trkpt lat="45.54785" lon="5.98589">
        <ele>299.59</ele>
        <time>2020-07-26T09:06:24Z</time>
      </trkpt>
      <trkpt lat="45.54786" lon="5.98589">
        <ele>299.59</ele>
        <time>2020-07-26T09:06:25Z</time>
      </trkpt>
      <trkpt lat="45.54803" lon="5.98591">
        <ele>299.59</ele>
        <time>2020-07-26T09:06:42Z</time>
      </trkpt>
      <trkpt lat="45.54822" lon="5.98592">
        <ele>299.59</ele>
        <time>2020-07-26T09:07:02Z</time>
      </trkpt>
      <trkpt lat="45.54841" lon="5.98594">
        <ele>299.59</ele>
        <time>2020-07-26T09:07:22Z</time>
      </trkpt>
      <trkpt lat="45.54851" lon="5.98599">
        <ele>299.59</ele>
        <time>2020-07-26T09:07:33Z</time>
      </trkpt>
      <trkpt lat="45.54851" lon="5.98608">
        <ele>299.59</ele>
        <time>2020-07-26T09:07:39Z</time>
      </trkpt>
      <trkpt lat="45.54857" lon="5.98635">
        <ele>297.67</ele>
        <time>2020-07-26T09:07:57Z</time>
      </trkpt>
      <trkpt lat="45.5486" lon="5.98646">
        <ele>301.03</ele>
        <time>2020-07-26T09:08:06Z</time>
      </trkpt>
      <trkpt lat="45.54866" lon="5.98679">
        <ele>299.11</ele>
        <time>2020-07-26T09:08:28Z</time>
      </trkpt>
      <trkpt lat="45.5487" lon="5.98707">
        <ele>299.59</ele>
        <time>2020-07-26T09:08:46Z</time>
      </trkpt>
      <trkpt lat="45.54874" lon="5.98738">
        <ele>299.59</ele>
        <time>2020-07-26T09:09:06Z</time>
      </trkpt>
      <trkpt lat="45.54874" lon="5.98753">
        <ele>299.59</ele>
        <time>2020-07-26T09:09:18Z</time>
      </trkpt>
      <trkpt lat="45.54874" lon="5.98755">
        <ele>299.59</ele>
        <time>2020-07-26T09:09:19Z</time>
      </trkpt>
      <trkpt lat="45.54874" lon="5.98756">
        <ele>299.11</ele>
        <time>2020-07-26T09:09:20Z</time>
      </trkpt>
      <trkpt lat="45.54874" lon="5.98758">
        <ele>299.11</ele>
        <time>2020-07-26T09:09:21Z</time>
      </trkpt>
      <trkpt lat="45.54873" lon="5.98759">
        <ele>298.63</ele>
        <time>2020-07-26T09:09:22Z</time>
      </trkpt>
      <trkpt lat="45.54873" lon="5.98761">
        <ele>298.63</ele>
        <time>2020-07-26T09:09:23Z</time>
      </trkpt>
      <trkpt lat="45.54873" lon="5.98763">
        <ele>298.63</ele>
        <time>2020-07-26T09:09:24Z</time>
      </trkpt>
      <trkpt lat="45.54873" lon="5.98764">
        <ele>298.63</ele>
        <time>2020-07-26T09:09:25Z</time>
      </trkpt>
      <trkpt lat="45.54873" lon="5.98766">
        <ele>298.63</ele>
        <time>2020-07-26T09:09:26Z</time>
      </trkpt>
      <trkpt lat="45.54869" lon="5.98781">
        <ele>298.15</ele>
        <time>2020-07-26T09:09:38Z</time>
      </trkpt>
      <trkpt lat="45.54868" lon="5.98782">
        <ele>298.15</ele>
        <time>2020-07-26T09:09:39Z</time>
      </trkpt>
      <trkpt lat="45.54861" lon="5.98799">
        <ele>298.63</ele>
        <time>2020-07-26T09:09:54Z</time>
      </trkpt>
      <trkpt lat="45.54861" lon="5.98801">
        <ele>298.63</ele>
        <time>2020-07-26T09:09:55Z</time>
      </trkpt>
      <trkpt lat="45.54861" lon="5.98802">
        <ele>298.63</ele>
        <time>2020-07-26T09:09:56Z</time>
      </trkpt>
      <trkpt lat="45.54861" lon="5.98804">
        <ele>298.63</ele>
        <time>2020-07-26T09:09:57Z</time>
      </trkpt>
      <trkpt lat="45.54861" lon="5.98805">
        <ele>298.63</ele>
        <time>2020-07-26T09:09:58Z</time>
      </trkpt>
      <trkpt lat="45.54861" lon="5.98807">
        <ele>298.63</ele>
        <time>2020-07-26T09:09:59Z</time>
      </trkpt>
      <trkpt lat="45.54862" lon="5.98808">
        <ele>298.63</ele>
        <time>2020-07-26T09:10:00Z</time>
      </trkpt>
      <trkpt lat="45.5486" lon="5.98822">
        <ele>299.11</ele>
        <time>2020-07-26T09:10:09Z</time>
      </trkpt>
      <trkpt lat="45.54855" lon="5.98828">
        <ele>299.11</ele>
        <time>2020-07-26T09:10:23Z</time>
      </trkpt>
      <trkpt lat="45.54858" lon="5.98831">
        <ele>299.11</ele>
        <time>2020-07-26T09:10:28Z</time>
      </trkpt>
      <trkpt lat="45.5486" lon="5.98833">
        <ele>298.63</ele>
        <time>2020-07-26T09:10:30Z</time>
      </trkpt>
      <trkpt lat="45.54863" lon="5.98842">
        <ele>298.63</ele>
        <time>2020-07-26T09:10:45Z</time>
      </trkpt>
      <trkpt lat="45.54862" lon="5.98839">
        <ele>299.11</ele>
        <time>2020-07-26T09:10:47Z</time>
      </trkpt>
      <trkpt lat="45.54861" lon="5.98835">
        <ele>299.11</ele>
        <time>2020-07-26T09:10:51Z</time>
      </trkpt>
      <trkpt lat="45.5486" lon="5.98833">
        <ele>299.11</ele>
        <time>2020-07-26T09:10:52Z</time>
      </trkpt>
      <trkpt lat="45.5486" lon="5.98832">
        <ele>299.11</ele>
        <time>2020-07-26T09:10:53Z</time>
      </trkpt>
      <trkpt lat="45.54859" lon="5.98831">
        <ele>299.11</ele>
        <time>2020-07-26T09:10:54Z</time>
      </trkpt>
      <trkpt lat="45.54851" lon="5.98831">
        <ele>298.63</ele>
        <time>2020-07-26T09:11:02Z</time>
      </trkpt>
      <trkpt lat="45.54844" lon="5.98834">
        <ele>299.59</ele>
        <time>2020-07-26T09:11:09Z</time>
      </trkpt>
      <trkpt lat="45.54829" lon="5.98839">
        <ele>300.07</ele>
        <time>2020-07-26T09:11:27Z</time>
      </trkpt>
      <trkpt lat="45.54814" lon="5.98844">
        <ele>299.59</ele>
        <time>2020-07-26T09:11:44Z</time>
      </trkpt>
      <trkpt lat="45.548" lon="5.9885">
        <ele>300.07</ele>
        <time>2020-07-26T09:11:58Z</time>
      </trkpt>
      <trkpt lat="45.54784" lon="5.98857">
        <ele>301.03</ele>
        <time>2020-07-26T09:12:14Z</time>
      </trkpt>
      <trkpt lat="45.54768" lon="5.98861">
        <ele>301.51</ele>
        <time>2020-07-26T09:12:29Z</time>
      </trkpt>
      <trkpt lat="45.54749" lon="5.98869">
        <ele>301.99</ele>
        <time>2020-07-26T09:12:49Z</time>
      </trkpt>
      <trkpt lat="45.54733" lon="5.98876">
        <ele>301.99</ele>
        <time>2020-07-26T09:13:06Z</time>
      </trkpt>
      <trkpt lat="45.54715" lon="5.98885">
        <ele>302.95</ele>
        <time>2020-07-26T09:13:24Z</time>
      </trkpt>
      <trkpt lat="45.54699" lon="5.98892">
        <ele>303.43</ele>
        <time>2020-07-26T09:13:40Z</time>
      </trkpt>
      <trkpt lat="45.54683" lon="5.98897">
        <ele>304.39</ele>
        <time>2020-07-26T09:13:57Z</time>
      </trkpt>
      <trkpt lat="45.54653" lon="5.98906">
        <ele>304.88</ele>
        <time>2020-07-26T09:14:26Z</time>
      </trkpt>
      <trkpt lat="45.54635" lon="5.9892">
        <ele>305.36</ele>
        <time>2020-07-26T09:14:43Z</time>
      </trkpt>
      <trkpt lat="45.5463" lon="5.9894">
        <ele>304.39</ele>
        <time>2020-07-26T09:14:59Z</time>
      </trkpt>
      <trkpt lat="45.5463" lon="5.98972">
        <ele>307.28</ele>
        <time>2020-07-26T09:15:19Z</time>
      </trkpt>
      <trkpt lat="45.5463" lon="5.98974">
        <ele>307.28</ele>
        <time>2020-07-26T09:15:20Z</time>
      </trkpt>
      <trkpt lat="45.54627" lon="5.98989">
        <ele>306.32</ele>
        <time>2020-07-26T09:15:34Z</time>
      </trkpt>
      <trkpt lat="45.54626" lon="5.98994">
        <ele>305.84</ele>
        <time>2020-07-26T09:15:38Z</time>
      </trkpt>
      <trkpt lat="45.54622" lon="5.99006">
        <ele>305.84</ele>
        <time>2020-07-26T09:15:51Z</time>
      </trkpt>
      <trkpt lat="45.54621" lon="5.9901">
        <ele>305.84</ele>
        <time>2020-07-26T09:15:54Z</time>
      </trkpt>
      <trkpt lat="45.54613" lon="5.99024">
        <ele>305.84</ele>
        <time>2020-07-26T09:16:11Z</time>
      </trkpt>
      <trkpt lat="45.54606" lon="5.99034">
        <ele>305.84</ele>
        <time>2020-07-26T09:16:22Z</time>
      </trkpt>
      <trkpt lat="45.54591" lon="5.99043">
        <ele>306.32</ele>
        <time>2020-07-26T09:16:40Z</time>
      </trkpt>
      <trkpt lat="45.5458" lon="5.99053">
        <ele>306.32</ele>
        <time>2020-07-26T09:16:56Z</time>
      </trkpt>
      <trkpt lat="45.54576" lon="5.9907">
        <ele>307.28</ele>
        <time>2020-07-26T09:17:14Z</time>
      </trkpt>
      <trkpt lat="45.54581" lon="5.99086">
        <ele>310.16</ele>
        <time>2020-07-26T09:17:29Z</time>
      </trkpt>
      <trkpt lat="45.54595" lon="5.99115">
        <ele>313.05</ele>
        <time>2020-07-26T09:18:02Z</time>
      </trkpt>
      <trkpt lat="45.54583" lon="5.99123">
        <ele>314.49</ele>
        <time>2020-07-26T09:18:17Z</time>
      </trkpt>
      <trkpt lat="45.54583" lon="5.9913">
        <ele>316.89</ele>
        <time>2020-07-26T09:18:31Z</time>
      </trkpt>
      <trkpt lat="45.54598" lon="5.99132">
        <ele>319.3</ele>
        <time>2020-07-26T09:18:54Z</time>
      </trkpt>
      <trkpt lat="45.54614" lon="5.99134">
        <ele>322.66</ele>
        <time>2020-07-26T09:19:17Z</time>
      </trkpt>
      <trkpt lat="45.5463" lon="5.99139">
        <ele>325.54</ele>
        <time>2020-07-26T09:19:36Z</time>
      </trkpt>
      <trkpt lat="45.54645" lon="5.99151">
        <ele>328.43</ele>
        <time>2020-07-26T09:19:58Z</time>
      </trkpt>
      <trkpt lat="45.54653" lon="5.99161">
        <ele>331.79</ele>
        <time>2020-07-26T09:20:17Z</time>
      </trkpt>
      <trkpt lat="45.54636" lon="5.99176">
        <ele>334.68</ele>
        <time>2020-07-26T09:20:43Z</time>
      </trkpt>
      <trkpt lat="45.54623" lon="5.99187">
        <ele>336.6</ele>
        <time>2020-07-26T09:21:00Z</time>
      </trkpt>
      <trkpt lat="45.54607" lon="5.99198">
        <ele>339</ele>
        <time>2020-07-26T09:21:26Z</time>
      </trkpt>
      <trkpt lat="45.54609" lon="5.9921">
        <ele>341.89</ele>
        <time>2020-07-26T09:21:52Z</time>
      </trkpt>
      <trkpt lat="45.54616" lon="5.99213">
        <ele>342.85</ele>
        <time>2020-07-26T09:22:03Z</time>
      </trkpt>
      <trkpt lat="45.54636" lon="5.99221">
        <ele>345.73</ele>
        <time>2020-07-26T09:22:30Z</time>
      </trkpt>
      <trkpt lat="45.5464" lon="5.99223">
        <ele>344.29</ele>
        <time>2020-07-26T09:22:35Z</time>
      </trkpt>
      <trkpt lat="45.54646" lon="5.99229">
        <ele>348.13</ele>
        <time>2020-07-26T09:22:46Z</time>
      </trkpt>
      <trkpt lat="45.54652" lon="5.99249">
        <ele>351.02</ele>
        <time>2020-07-26T09:23:11Z</time>
      </trkpt>
      <trkpt lat="45.54643" lon="5.99262">
        <ele>353.9</ele>
        <time>2020-07-26T09:23:35Z</time>
      </trkpt>
      <trkpt lat="45.54639" lon="5.99262">
        <ele>354.86</ele>
        <time>2020-07-26T09:23:55Z</time>
      </trkpt>
      <trkpt lat="45.54642" lon="5.99259">
        <ele>354.38</ele>
        <time>2020-07-26T09:24:40Z</time>
      </trkpt>
      <trkpt lat="45.54631" lon="5.99265">
        <ele>355.34</ele>
        <time>2020-07-26T09:24:54Z</time>
      </trkpt>
      <trkpt lat="45.54621" lon="5.99265">
        <ele>356.31</ele>
        <time>2020-07-26T09:25:09Z</time>
      </trkpt>
      <trkpt lat="45.5461" lon="5.9927">
        <ele>357.27</ele>
        <time>2020-07-26T09:25:24Z</time>
      </trkpt>
      <trkpt lat="45.54598" lon="5.99276">
        <ele>358.23</ele>
        <time>2020-07-26T09:25:41Z</time>
      </trkpt>
      <trkpt lat="45.54591" lon="5.99292">
        <ele>359.67</ele>
        <time>2020-07-26T09:25:59Z</time>
      </trkpt>
      <trkpt lat="45.54589" lon="5.99295">
        <ele>362.07</ele>
        <time>2020-07-26T09:26:03Z</time>
      </trkpt>
      <trkpt lat="45.54578" lon="5.99312">
        <ele>361.59</ele>
        <time>2020-07-26T09:26:25Z</time>
      </trkpt>
      <trkpt lat="45.54562" lon="5.99328">
        <ele>363.04</ele>
        <time>2020-07-26T09:26:47Z</time>
      </trkpt>
      <trkpt lat="45.54553" lon="5.99346">
        <ele>365.44</ele>
        <time>2020-07-26T09:27:13Z</time>
      </trkpt>
      <trkpt lat="45.54569" lon="5.99351">
        <ele>367.84</ele>
        <time>2020-07-26T09:27:39Z</time>
      </trkpt>
      <trkpt lat="45.5459" lon="5.99352">
        <ele>369.76</ele>
        <time>2020-07-26T09:28:05Z</time>
      </trkpt>
      <trkpt lat="45.54606" lon="5.99354">
        <ele>371.69</ele>
        <time>2020-07-26T09:28:23Z</time>
      </trkpt>
      <trkpt lat="45.54623" lon="5.99356">
        <ele>373.13</ele>
        <time>2020-07-26T09:28:44Z</time>
      </trkpt>
      <trkpt lat="45.54646" lon="5.99357">
        <ele>374.57</ele>
        <time>2020-07-26T09:29:11Z</time>
      </trkpt>
      <trkpt lat="45.5466" lon="5.99355">
        <ele>375.53</ele>
        <time>2020-07-26T09:29:35Z</time>
      </trkpt>
      <trkpt lat="45.54672" lon="5.99359">
        <ele>376.97</ele>
        <time>2020-07-26T09:29:55Z</time>
      </trkpt>
      <trkpt lat="45.54681" lon="5.99363">
        <ele>378.42</ele>
        <time>2020-07-26T09:30:09Z</time>
      </trkpt>
      <trkpt lat="45.54685" lon="5.99367">
        <ele>376.97</ele>
        <time>2020-07-26T09:30:37Z</time>
      </trkpt>
      <trkpt lat="45.54691" lon="5.99371">
        <ele>379.86</ele>
        <time>2020-07-26T09:30:47Z</time>
      </trkpt>
      <trkpt lat="45.54691" lon="5.99374">
        <ele>382.74</ele>
        <time>2020-07-26T09:30:53Z</time>
      </trkpt>
      <trkpt lat="45.54673" lon="5.99381">
        <ele>384.18</ele>
        <time>2020-07-26T09:31:18Z</time>
      </trkpt>
      <trkpt lat="45.54658" lon="5.99387">
        <ele>386.11</ele>
        <time>2020-07-26T09:31:38Z</time>
      </trkpt>
      <trkpt lat="45.54656" lon="5.99391">
        <ele>389.47</ele>
        <time>2020-07-26T09:31:44Z</time>
      </trkpt>
      <trkpt lat="45.54656" lon="5.99391">
        <ele>389.47</ele>
        <time>2020-07-26T09:31:45Z</time>
      </trkpt>
      <trkpt lat="45.54643" lon="5.99406">
        <ele>391.87</ele>
        <time>2020-07-26T09:32:13Z</time>
      </trkpt>
      <trkpt lat="45.54629" lon="5.99412">
        <ele>394.76</ele>
        <time>2020-07-26T09:32:35Z</time>
      </trkpt>
      <trkpt lat="45.5461" lon="5.99417">
        <ele>397.64</ele>
        <time>2020-07-26T09:32:58Z</time>
      </trkpt>
      <trkpt lat="45.54593" lon="5.99426">
        <ele>400.53</ele>
        <time>2020-07-26T09:33:21Z</time>
      </trkpt>
      <trkpt lat="45.54585" lon="5.99429">
        <ele>401.01</ele>
        <time>2020-07-26T09:33:30Z</time>
      </trkpt>
      <trkpt lat="45.54574" lon="5.99434">
        <ele>402.93</ele>
        <time>2020-07-26T09:33:46Z</time>
      </trkpt>
      <trkpt lat="45.54565" lon="5.99441">
        <ele>404.37</ele>
        <time>2020-07-26T09:34:05Z</time>
      </trkpt>
      <trkpt lat="45.54556" lon="5.99447">
        <ele>406.77</ele>
        <time>2020-07-26T09:34:22Z</time>
      </trkpt>
      <trkpt lat="45.54553" lon="5.99453">
        <ele>407.26</ele>
        <time>2020-07-26T09:34:37Z</time>
      </trkpt>
      <trkpt lat="45.5455" lon="5.99452">
        <ele>408.7</ele>
        <time>2020-07-26T09:34:58Z</time>
      </trkpt>
      <trkpt lat="45.54551" lon="5.99453">
        <ele>406.77</ele>
        <time>2020-07-26T09:35:23Z</time>
      </trkpt>
      <trkpt lat="45.54552" lon="5.99453">
        <ele>406.77</ele>
        <time>2020-07-26T09:35:52Z</time>
      </trkpt>
      <trkpt lat="45.54548" lon="5.99446">
        <ele>404.85</ele>
        <time>2020-07-26T09:36:16Z</time>
      </trkpt>
      <trkpt lat="45.54545" lon="5.99442">
        <ele>402.93</ele>
        <time>2020-07-26T09:36:38Z</time>
      </trkpt>
      <trkpt lat="45.54545" lon="5.99439">
        <ele>403.41</ele>
        <time>2020-07-26T09:36:59Z</time>
      </trkpt>
      <trkpt lat="45.54541" lon="5.99436">
        <ele>402.45</ele>
        <time>2020-07-26T09:37:12Z</time>
      </trkpt>
      <trkpt lat="45.54538" lon="5.99432">
        <ele>401.49</ele>
        <time>2020-07-26T09:37:27Z</time>
      </trkpt>
      <trkpt lat="45.54536" lon="5.99424">
        <ele>399.08</ele>
        <time>2020-07-26T09:37:41Z</time>
      </trkpt>
      <trkpt lat="45.54536" lon="5.99422">
        <ele>398.12</ele>
        <time>2020-07-26T09:37:53Z</time>
      </trkpt>
      <trkpt lat="45.54535" lon="5.99421">
        <ele>397.16</ele>
        <time>2020-07-26T09:38:09Z</time>
      </trkpt>
      <trkpt lat="45.5453" lon="5.99421">
        <ele>395.24</ele>
        <time>2020-07-26T09:38:22Z</time>
      </trkpt>
      <trkpt lat="45.5452" lon="5.99422">
        <ele>396.2</ele>
        <time>2020-07-26T09:38:33Z</time>
      </trkpt>
      <trkpt lat="45.54507" lon="5.99425">
        <ele>393.8</ele>
        <time>2020-07-26T09:38:50Z</time>
      </trkpt>
      <trkpt lat="45.54503" lon="5.99426">
        <ele>391.87</ele>
        <time>2020-07-26T09:38:55Z</time>
      </trkpt>
      <trkpt lat="45.54488" lon="5.99428">
        <ele>392.36</ele>
        <time>2020-07-26T09:39:18Z</time>
      </trkpt>
      <trkpt lat="45.54486" lon="5.99427">
        <ele>392.36</ele>
        <time>2020-07-26T09:39:21Z</time>
      </trkpt>
      <trkpt lat="45.54485" lon="5.99427">
        <ele>392.36</ele>
        <time>2020-07-26T09:39:22Z</time>
      </trkpt>
      <trkpt lat="45.54484" lon="5.99427">
        <ele>392.36</ele>
        <time>2020-07-26T09:39:23Z</time>
      </trkpt>
      <trkpt lat="45.54482" lon="5.99427">
        <ele>392.36</ele>
        <time>2020-07-26T09:39:24Z</time>
      </trkpt>
      <trkpt lat="45.54469" lon="5.99431">
        <ele>392.84</ele>
        <time>2020-07-26T09:39:42Z</time>
      </trkpt>
      <trkpt lat="45.54456" lon="5.99428">
        <ele>392.84</ele>
        <time>2020-07-26T09:39:59Z</time>
      </trkpt>
      <trkpt lat="45.54454" lon="5.99427">
        <ele>392.84</ele>
        <time>2020-07-26T09:40:00Z</time>
      </trkpt>
      <trkpt lat="45.54451" lon="5.99427">
        <ele>391.87</ele>
        <time>2020-07-26T09:40:03Z</time>
      </trkpt>
      <trkpt lat="45.54436" lon="5.99429">
        <ele>388.99</ele>
        <time>2020-07-26T09:40:16Z</time>
      </trkpt>
      <trkpt lat="45.54422" lon="5.99427">
        <ele>386.11</ele>
        <time>2020-07-26T09:40:31Z</time>
      </trkpt>
      <trkpt lat="45.54421" lon="5.99426">
        <ele>386.11</ele>
        <time>2020-07-26T09:40:32Z</time>
      </trkpt>
      <trkpt lat="45.54412" lon="5.99424">
        <ele>387.55</ele>
        <time>2020-07-26T09:40:41Z</time>
      </trkpt>
      <trkpt lat="45.54406" lon="5.99423">
        <ele>386.59</ele>
        <time>2020-07-26T09:40:48Z</time>
      </trkpt>
      <trkpt lat="45.54392" lon="5.99422">
        <ele>384.18</ele>
        <time>2020-07-26T09:41:01Z</time>
      </trkpt>
      <trkpt lat="45.54391" lon="5.99422">
        <ele>383.7</ele>
        <time>2020-07-26T09:41:02Z</time>
      </trkpt>
      <trkpt lat="45.5439" lon="5.99422">
        <ele>383.7</ele>
        <time>2020-07-26T09:41:03Z</time>
      </trkpt>
      <trkpt lat="45.54389" lon="5.99422">
        <ele>383.7</ele>
        <time>2020-07-26T09:41:04Z</time>
      </trkpt>
      <trkpt lat="45.54387" lon="5.99421">
        <ele>383.7</ele>
        <time>2020-07-26T09:41:05Z</time>
      </trkpt>
      <trkpt lat="45.54386" lon="5.99421">
        <ele>383.7</ele>
        <time>2020-07-26T09:41:06Z</time>
      </trkpt>
      <trkpt lat="45.54385" lon="5.99421">
        <ele>383.22</ele>
        <time>2020-07-26T09:41:07Z</time>
      </trkpt>
      <trkpt lat="45.5437" lon="5.99418">
        <ele>382.26</ele>
        <time>2020-07-26T09:41:22Z</time>
      </trkpt>
      <trkpt lat="45.54352" lon="5.99417">
        <ele>380.82</ele>
        <time>2020-07-26T09:41:38Z</time>
      </trkpt>
      <trkpt lat="45.54344" lon="5.99406">
        <ele>380.34</ele>
        <time>2020-07-26T09:41:48Z</time>
      </trkpt>
      <trkpt lat="45.54339" lon="5.99386">
        <ele>378.9</ele>
        <time>2020-07-26T09:42:02Z</time>
      </trkpt>
      <trkpt lat="45.5432" lon="5.99387">
        <ele>380.34</ele>
        <time>2020-07-26T09:42:28Z</time>
      </trkpt>
      <trkpt lat="45.54301" lon="5.99397">
        <ele>381.78</ele>
        <time>2020-07-26T09:42:52Z</time>
      </trkpt>
      <trkpt lat="45.54283" lon="5.99406">
        <ele>382.26</ele>
        <time>2020-07-26T09:43:13Z</time>
      </trkpt>
      <trkpt lat="45.54265" lon="5.99418">
        <ele>383.7</ele>
        <time>2020-07-26T09:43:35Z</time>
      </trkpt>
      <trkpt lat="45.54251" lon="5.99426">
        <ele>384.66</ele>
        <time>2020-07-26T09:43:54Z</time>
      </trkpt>
      <trkpt lat="45.54232" lon="5.9943">
        <ele>384.66</ele>
        <time>2020-07-26T09:44:15Z</time>
      </trkpt>
      <trkpt lat="45.54205" lon="5.99438">
        <ele>385.63</ele>
        <time>2020-07-26T09:44:45Z</time>
      </trkpt>
      <trkpt lat="45.54183" lon="5.99463">
        <ele>386.59</ele>
        <time>2020-07-26T09:45:16Z</time>
      </trkpt>
      <trkpt lat="45.54172" lon="5.99474">
        <ele>385.63</ele>
        <time>2020-07-26T09:45:29Z</time>
      </trkpt>
      <trkpt lat="45.5417" lon="5.99475">
        <ele>385.63</ele>
        <time>2020-07-26T09:45:30Z</time>
      </trkpt>
      <trkpt lat="45.54161" lon="5.99476">
        <ele>386.11</ele>
        <time>2020-07-26T09:45:46Z</time>
      </trkpt>
      <trkpt lat="45.54156" lon="5.99477">
        <ele>384.18</ele>
        <time>2020-07-26T09:45:54Z</time>
      </trkpt>
      <trkpt lat="45.54154" lon="5.99477">
        <ele>384.18</ele>
        <time>2020-07-26T09:45:55Z</time>
      </trkpt>
      <trkpt lat="45.54143" lon="5.99473">
        <ele>382.26</ele>
        <time>2020-07-26T09:46:07Z</time>
      </trkpt>
      <trkpt lat="45.54133" lon="5.99471">
        <ele>381.3</ele>
        <time>2020-07-26T09:46:19Z</time>
      </trkpt>
      <trkpt lat="45.54122" lon="5.9947">
        <ele>378.42</ele>
        <time>2020-07-26T09:46:30Z</time>
      </trkpt>
      <trkpt lat="45.54108" lon="5.99467">
        <ele>378.9</ele>
        <time>2020-07-26T09:46:44Z</time>
      </trkpt>
      <trkpt lat="45.54107" lon="5.99467">
        <ele>379.38</ele>
        <time>2020-07-26T09:46:45Z</time>
      </trkpt>
      <trkpt lat="45.54094" lon="5.99479">
        <ele>377.94</ele>
        <time>2020-07-26T09:47:02Z</time>
      </trkpt>
      <trkpt lat="45.54079" lon="5.99487">
        <ele>379.38</ele>
        <time>2020-07-26T09:47:19Z</time>
      </trkpt>
      <trkpt lat="45.54067" lon="5.99497">
        <ele>379.86</ele>
        <time>2020-07-26T09:47:36Z</time>
      </trkpt>
      <trkpt lat="45.54064" lon="5.99503">
        <ele>379.86</ele>
        <time>2020-07-26T09:47:42Z</time>
      </trkpt>
      <trkpt lat="45.5406" lon="5.99518">
        <ele>380.34</ele>
        <time>2020-07-26T09:47:58Z</time>
      </trkpt>
      <trkpt lat="45.54049" lon="5.99525">
        <ele>379.86</ele>
        <time>2020-07-26T09:48:14Z</time>
      </trkpt>
      <trkpt lat="45.54044" lon="5.99529">
        <ele>379.38</ele>
        <time>2020-07-26T09:48:20Z</time>
      </trkpt>
      <trkpt lat="45.54036" lon="5.99536">
        <ele>378.42</ele>
        <time>2020-07-26T09:48:34Z</time>
      </trkpt>
      <trkpt lat="45.54031" lon="5.99538">
        <ele>378.42</ele>
        <time>2020-07-26T09:48:50Z</time>
      </trkpt>
      <trkpt lat="45.5402" lon="5.99548">
        <ele>376.97</ele>
        <time>2020-07-26T09:49:08Z</time>
      </trkpt>
      <trkpt lat="45.54009" lon="5.99551">
        <ele>373.61</ele>
        <time>2020-07-26T09:49:26Z</time>
      </trkpt>
      <trkpt lat="45.54002" lon="5.99553">
        <ele>370.73</ele>
        <time>2020-07-26T09:49:39Z</time>
      </trkpt>
      <trkpt lat="45.53993" lon="5.99557">
        <ele>367.36</ele>
        <time>2020-07-26T09:49:54Z</time>
      </trkpt>
      <trkpt lat="45.53984" lon="5.99559">
        <ele>364</ele>
        <time>2020-07-26T09:50:07Z</time>
      </trkpt>
      <trkpt lat="45.53981" lon="5.99569">
        <ele>360.63</ele>
        <time>2020-07-26T09:50:19Z</time>
      </trkpt>
      <trkpt lat="45.53979" lon="5.99572">
        <ele>359.19</ele>
        <time>2020-07-26T09:50:22Z</time>
      </trkpt>
      <trkpt lat="45.53977" lon="5.99586">
        <ele>359.67</ele>
        <time>2020-07-26T09:50:37Z</time>
      </trkpt>
      <trkpt lat="45.53964" lon="5.99598">
        <ele>356.31</ele>
        <time>2020-07-26T09:50:53Z</time>
      </trkpt>
      <trkpt lat="45.53952" lon="5.99606">
        <ele>353.42</ele>
        <time>2020-07-26T09:51:09Z</time>
      </trkpt>
      <trkpt lat="45.53941" lon="5.99611">
        <ele>351.02</ele>
        <time>2020-07-26T09:51:25Z</time>
      </trkpt>
      <trkpt lat="45.5393" lon="5.99629">
        <ele>349.58</ele>
        <time>2020-07-26T09:51:45Z</time>
      </trkpt>
      <trkpt lat="45.5392" lon="5.99642">
        <ele>350.06</ele>
        <time>2020-07-26T09:52:08Z</time>
      </trkpt>
      <trkpt lat="45.53918" lon="5.99645">
        <ele>350.54</ele>
        <time>2020-07-26T09:52:24Z</time>
      </trkpt>
      <trkpt lat="45.53917" lon="5.99646">
        <ele>349.58</ele>
        <time>2020-07-26T09:52:28Z</time>
      </trkpt>
      <trkpt lat="45.53917" lon="5.99648">
        <ele>351.5</ele>
        <time>2020-07-26T09:52:45Z</time>
      </trkpt>
      <trkpt lat="45.53916" lon="5.99659">
        <ele>351.5</ele>
        <time>2020-07-26T09:53:10Z</time>
      </trkpt>
      <trkpt lat="45.53914" lon="5.99676">
        <ele>352.94</ele>
        <time>2020-07-26T09:53:30Z</time>
      </trkpt>
      <trkpt lat="45.53911" lon="5.99703">
        <ele>355.34</ele>
        <time>2020-07-26T09:53:58Z</time>
      </trkpt>
      <trkpt lat="45.53912" lon="5.99719">
        <ele>358.23</ele>
        <time>2020-07-26T09:54:18Z</time>
      </trkpt>
      <trkpt lat="45.53906" lon="5.99727">
        <ele>356.31</ele>
        <time>2020-07-26T09:54:27Z</time>
      </trkpt>
      <trkpt lat="45.53901" lon="5.99735">
        <ele>358.23</ele>
        <time>2020-07-26T09:54:36Z</time>
      </trkpt>
      <trkpt lat="45.53894" lon="5.99752">
        <ele>355.83</ele>
        <time>2020-07-26T09:54:51Z</time>
      </trkpt>
      <trkpt lat="45.53888" lon="5.99766">
        <ele>355.34</ele>
        <time>2020-07-26T09:55:02Z</time>
      </trkpt>
      <trkpt lat="45.5388" lon="5.9978">
        <ele>353.9</ele>
        <time>2020-07-26T09:55:18Z</time>
      </trkpt>
      <trkpt lat="45.5387" lon="5.99806">
        <ele>351.98</ele>
        <time>2020-07-26T09:55:42Z</time>
      </trkpt>
      <trkpt lat="45.53865" lon="5.99826">
        <ele>351.02</ele>
        <time>2020-07-26T09:56:03Z</time>
      </trkpt>
      <trkpt lat="45.53868" lon="5.99829">
        <ele>354.38</ele>
        <time>2020-07-26T09:56:22Z</time>
      </trkpt>
      <trkpt lat="45.53868" lon="5.99829">
        <ele>354.38</ele>
        <time>2020-07-26T09:56:23Z</time>
      </trkpt>
      <trkpt lat="45.53869" lon="5.99836">
        <ele>352.94</ele>
        <time>2020-07-26T09:56:51Z</time>
      </trkpt>
      <trkpt lat="45.53871" lon="5.99846">
        <ele>352.94</ele>
        <time>2020-07-26T09:57:09Z</time>
      </trkpt>
      <trkpt lat="45.53885" lon="5.99868">
        <ele>354.38</ele>
        <time>2020-07-26T09:57:36Z</time>
      </trkpt>
      <trkpt lat="45.53889" lon="5.99889">
        <ele>355.83</ele>
        <time>2020-07-26T09:57:56Z</time>
      </trkpt>
      <trkpt lat="45.53894" lon="5.99893">
        <ele>356.79</ele>
        <time>2020-07-26T09:58:20Z</time>
      </trkpt>
      <trkpt lat="45.53895" lon="5.99899">
        <ele>356.79</ele>
        <time>2020-07-26T09:58:42Z</time>
      </trkpt>
      <trkpt lat="45.53898" lon="5.999">
        <ele>357.27</ele>
        <time>2020-07-26T09:59:01Z</time>
      </trkpt>
      <trkpt lat="45.53903" lon="5.99902">
        <ele>357.27</ele>
        <time>2020-07-26T09:59:30Z</time>
      </trkpt>
      <trkpt lat="45.53897" lon="5.99911">
        <ele>358.23</ele>
        <time>2020-07-26T09:59:58Z</time>
      </trkpt>
      <trkpt lat="45.53908" lon="5.99932">
        <ele>360.15</ele>
        <time>2020-07-26T10:00:28Z</time>
      </trkpt>
      <trkpt lat="45.53919" lon="5.99943">
        <ele>363.04</ele>
        <time>2020-07-26T10:00:46Z</time>
      </trkpt>
      <trkpt lat="45.53932" lon="5.9995">
        <ele>366.4</ele>
        <time>2020-07-26T10:01:05Z</time>
      </trkpt>
      <trkpt lat="45.53942" lon="5.99954">
        <ele>367.84</ele>
        <time>2020-07-26T10:01:23Z</time>
      </trkpt>
      <trkpt lat="45.53951" lon="5.99966">
        <ele>368.8</ele>
        <time>2020-07-26T10:01:44Z</time>
      </trkpt>
      <trkpt lat="45.5396" lon="5.99991">
        <ele>371.21</ele>
        <time>2020-07-26T10:02:12Z</time>
      </trkpt>
      <trkpt lat="45.5396" lon="5.99993">
        <ele>371.21</ele>
        <time>2020-07-26T10:02:13Z</time>
      </trkpt>
      <trkpt lat="45.53964" lon="6.00013">
        <ele>372.65</ele>
        <time>2020-07-26T10:02:35Z</time>
      </trkpt>
      <trkpt lat="45.53977" lon="6.00038">
        <ele>374.57</ele>
        <time>2020-07-26T10:03:00Z</time>
      </trkpt>
      <trkpt lat="45.53984" lon="6.0006">
        <ele>376.49</ele>
        <time>2020-07-26T10:03:24Z</time>
      </trkpt>
      <trkpt lat="45.53993" lon="6.00088">
        <ele>378.42</ele>
        <time>2020-07-26T10:03:48Z</time>
      </trkpt>
      <trkpt lat="45.53996" lon="6.00113">
        <ele>379.86</ele>
        <time>2020-07-26T10:04:09Z</time>
      </trkpt>
      <trkpt lat="45.54006" lon="6.00136">
        <ele>381.78</ele>
        <time>2020-07-26T10:04:31Z</time>
      </trkpt>
      <trkpt lat="45.54013" lon="6.00151">
        <ele>383.22</ele>
        <time>2020-07-26T10:04:47Z</time>
      </trkpt>
      <trkpt lat="45.54026" lon="6.00169">
        <ele>386.59</ele>
        <time>2020-07-26T10:05:12Z</time>
      </trkpt>
      <trkpt lat="45.54045" lon="6.00187">
        <ele>387.07</ele>
        <time>2020-07-26T10:05:40Z</time>
      </trkpt>
      <trkpt lat="45.54064" lon="6.0021">
        <ele>388.99</ele>
        <time>2020-07-26T10:06:09Z</time>
      </trkpt>
      <trkpt lat="45.54077" lon="6.00233">
        <ele>391.39</ele>
        <time>2020-07-26T10:06:35Z</time>
      </trkpt>
      <trkpt lat="45.54091" lon="6.00246">
        <ele>391.87</ele>
        <time>2020-07-26T10:06:57Z</time>
      </trkpt>
      <trkpt lat="45.54103" lon="6.00254">
        <ele>392.36</ele>
        <time>2020-07-26T10:07:13Z</time>
      </trkpt>
      <trkpt lat="45.5412" lon="6.00263">
        <ele>393.32</ele>
        <time>2020-07-26T10:07:38Z</time>
      </trkpt>
      <trkpt lat="45.54136" lon="6.00274">
        <ele>395.72</ele>
        <time>2020-07-26T10:08:00Z</time>
      </trkpt>
      <trkpt lat="45.54148" lon="6.00299">
        <ele>395.72</ele>
        <time>2020-07-26T10:08:27Z</time>
      </trkpt>
      <trkpt lat="45.54148" lon="6.00303">
        <ele>399.08</ele>
        <time>2020-07-26T10:08:31Z</time>
      </trkpt>
      <trkpt lat="45.5416" lon="6.00324">
        <ele>399.08</ele>
        <time>2020-07-26T10:08:58Z</time>
      </trkpt>
      <trkpt lat="45.54176" lon="6.00341">
        <ele>401.01</ele>
        <time>2020-07-26T10:09:25Z</time>
      </trkpt>
      <trkpt lat="45.54172" lon="6.00353">
        <ele>401.49</ele>
        <time>2020-07-26T10:09:42Z</time>
      </trkpt>
      <trkpt lat="45.54156" lon="6.00357">
        <ele>402.45</ele>
        <time>2020-07-26T10:10:01Z</time>
      </trkpt>
      <trkpt lat="45.54147" lon="6.00369">
        <ele>403.41</ele>
        <time>2020-07-26T10:10:14Z</time>
      </trkpt>
      <trkpt lat="45.54144" lon="6.00376">
        <ele>401.97</ele>
        <time>2020-07-26T10:10:21Z</time>
      </trkpt>
      <trkpt lat="45.54141" lon="6.00384">
        <ele>404.85</ele>
        <time>2020-07-26T10:10:29Z</time>
      </trkpt>
      <trkpt lat="45.5414" lon="6.00385">
        <ele>405.33</ele>
        <time>2020-07-26T10:10:30Z</time>
      </trkpt>
      <trkpt lat="45.54148" lon="6.00389">
        <ele>404.85</ele>
        <time>2020-07-26T10:10:44Z</time>
      </trkpt>
      <trkpt lat="45.54151" lon="6.0039">
        <ele>405.33</ele>
        <time>2020-07-26T10:11:05Z</time>
      </trkpt>
      <trkpt lat="45.54153" lon="6.00392">
        <ele>405.33</ele>
        <time>2020-07-26T10:11:07Z</time>
      </trkpt>
      <trkpt lat="45.54156" lon="6.00393">
        <ele>405.33</ele>
        <time>2020-07-26T10:11:10Z</time>
      </trkpt>
      <trkpt lat="45.54168" lon="6.00396">
        <ele>405.81</ele>
        <time>2020-07-26T10:11:25Z</time>
      </trkpt>
      <trkpt lat="45.5417" lon="6.00397">
        <ele>405.81</ele>
        <time>2020-07-26T10:11:34Z</time>
      </trkpt>
      <trkpt lat="45.54171" lon="6.00397">
        <ele>406.29</ele>
        <time>2020-07-26T10:11:35Z</time>
      </trkpt>
      <trkpt lat="45.54188" lon="6.004">
        <ele>406.29</ele>
        <time>2020-07-26T10:11:51Z</time>
      </trkpt>
      <trkpt lat="45.54205" lon="6.00409">
        <ele>407.26</ele>
        <time>2020-07-26T10:12:09Z</time>
      </trkpt>
      <trkpt lat="45.54219" lon="6.00421">
        <ele>409.18</ele>
        <time>2020-07-26T10:12:26Z</time>
      </trkpt>
      <trkpt lat="45.54226" lon="6.00429">
        <ele>410.14</ele>
        <time>2020-07-26T10:12:39Z</time>
      </trkpt>
      <trkpt lat="45.5424" lon="6.0044">
        <ele>411.58</ele>
        <time>2020-07-26T10:12:55Z</time>
      </trkpt>
      <trkpt lat="45.54257" lon="6.00442">
        <ele>413.02</ele>
        <time>2020-07-26T10:13:13Z</time>
      </trkpt>
      <trkpt lat="45.5427" lon="6.00443">
        <ele>413.98</ele>
        <time>2020-07-26T10:13:29Z</time>
      </trkpt>
      <trkpt lat="45.54285" lon="6.00445">
        <ele>415.43</ele>
        <time>2020-07-26T10:13:47Z</time>
      </trkpt>
      <trkpt lat="45.54289" lon="6.00444">
        <ele>415.91</ele>
        <time>2020-07-26T10:13:52Z</time>
      </trkpt>
      <trkpt lat="45.54299" lon="6.00447">
        <ele>416.87</ele>
        <time>2020-07-26T10:14:03Z</time>
      </trkpt>
      <trkpt lat="45.54322" lon="6.00455">
        <ele>418.79</ele>
        <time>2020-07-26T10:14:31Z</time>
      </trkpt>
      <trkpt lat="45.5432" lon="6.00429">
        <ele>417.83</ele>
        <time>2020-07-26T10:14:55Z</time>
      </trkpt>
      <trkpt lat="45.5432" lon="6.00428">
        <ele>417.35</ele>
        <time>2020-07-26T10:14:56Z</time>
      </trkpt>
      <trkpt lat="45.54316" lon="6.00419">
        <ele>420.71</ele>
        <time>2020-07-26T10:15:04Z</time>
      </trkpt>
      <trkpt lat="45.54315" lon="6.00418">
        <ele>423.12</ele>
        <time>2020-07-26T10:15:10Z</time>
      </trkpt>
      <trkpt lat="45.54313" lon="6.00418">
        <ele>422.64</ele>
        <time>2020-07-26T10:15:39Z</time>
      </trkpt>
      <trkpt lat="45.54314" lon="6.0042">
        <ele>418.79</ele>
        <time>2020-07-26T10:15:51Z</time>
      </trkpt>
      <trkpt lat="45.54314" lon="6.0042">
        <ele>417.83</ele>
        <time>2020-07-26T10:15:53Z</time>
      </trkpt>
      <trkpt lat="45.54314" lon="6.0042">
        <ele>421.19</ele>
        <time>2020-07-26T10:15:56Z</time>
      </trkpt>
      <trkpt lat="45.54316" lon="6.00421">
        <ele>422.64</ele>
        <time>2020-07-26T10:16:24Z</time>
      </trkpt>
      <trkpt lat="45.54313" lon="6.00425">
        <ele>422.64</ele>
        <time>2020-07-26T10:16:51Z</time>
      </trkpt>
      <trkpt lat="45.54314" lon="6.00428">
        <ele>422.16</ele>
        <time>2020-07-26T10:17:11Z</time>
      </trkpt>
      <trkpt lat="45.54315" lon="6.0042">
        <ele>422.16</ele>
        <time>2020-07-26T10:17:36Z</time>
      </trkpt>
      <trkpt lat="45.54318" lon="6.00423">
        <ele>422.64</ele>
        <time>2020-07-26T10:17:55Z</time>
      </trkpt>
      <trkpt lat="45.54324" lon="6.0042">
        <ele>424.08</ele>
        <time>2020-07-26T10:18:20Z</time>
      </trkpt>
      <trkpt lat="45.54333" lon="6.00415">
        <ele>427.44</ele>
        <time>2020-07-26T10:18:42Z</time>
      </trkpt>
      <trkpt lat="45.54341" lon="6.00406">
        <ele>428.89</ele>
        <time>2020-07-26T10:19:08Z</time>
      </trkpt>
      <trkpt lat="45.54344" lon="6.00403">
        <ele>432.25</ele>
        <time>2020-07-26T10:19:14Z</time>
      </trkpt>
      <trkpt lat="45.54344" lon="6.00402">
        <ele>433.21</ele>
        <time>2020-07-26T10:19:16Z</time>
      </trkpt>
      <trkpt lat="45.54351" lon="6.00396">
        <ele>434.65</ele>
        <time>2020-07-26T10:19:40Z</time>
      </trkpt>
      <trkpt lat="45.54358" lon="6.00389">
        <ele>437.54</ele>
        <time>2020-07-26T10:19:57Z</time>
      </trkpt>
      <trkpt lat="45.54363" lon="6.0038">
        <ele>440.42</ele>
        <time>2020-07-26T10:20:15Z</time>
      </trkpt>
      <trkpt lat="45.54367" lon="6.00376">
        <ele>443.79</ele>
        <time>2020-07-26T10:20:34Z</time>
      </trkpt>
      <trkpt lat="45.54366" lon="6.00375">
        <ele>445.23</ele>
        <time>2020-07-26T10:21:00Z</time>
      </trkpt>
      <trkpt lat="45.54367" lon="6.00375">
        <ele>445.23</ele>
        <time>2020-07-26T10:21:01Z</time>
      </trkpt>
      <trkpt lat="45.5437" lon="6.00367">
        <ele>447.63</ele>
        <time>2020-07-26T10:21:25Z</time>
      </trkpt>
      <trkpt lat="45.54376" lon="6.00358">
        <ele>450.52</ele>
        <time>2020-07-26T10:21:42Z</time>
      </trkpt>
      <trkpt lat="45.54384" lon="6.00355">
        <ele>452.92</ele>
        <time>2020-07-26T10:22:00Z</time>
      </trkpt>
      <trkpt lat="45.54389" lon="6.00351">
        <ele>455.8</ele>
        <time>2020-07-26T10:22:17Z</time>
      </trkpt>
      <trkpt lat="45.54385" lon="6.00339">
        <ele>459.17</ele>
        <time>2020-07-26T10:22:42Z</time>
      </trkpt>
      <trkpt lat="45.54389" lon="6.00333">
        <ele>460.61</ele>
        <time>2020-07-26T10:23:00Z</time>
      </trkpt>
      <trkpt lat="45.54396" lon="6.00333">
        <ele>463.97</ele>
        <time>2020-07-26T10:23:19Z</time>
      </trkpt>
      <trkpt lat="45.54405" lon="6.00341">
        <ele>466.86</ele>
        <time>2020-07-26T10:23:41Z</time>
      </trkpt>
      <trkpt lat="45.54411" lon="6.00339">
        <ele>470.22</ele>
        <time>2020-07-26T10:24:04Z</time>
      </trkpt>
      <trkpt lat="45.54409" lon="6.00325">
        <ele>473.11</ele>
        <time>2020-07-26T10:24:28Z</time>
      </trkpt>
      <trkpt lat="45.54414" lon="6.00318">
        <ele>475.99</ele>
        <time>2020-07-26T10:24:49Z</time>
      </trkpt>
      <trkpt lat="45.54413" lon="6.00317">
        <ele>477.43</ele>
        <time>2020-07-26T10:25:10Z</time>
      </trkpt>
      <trkpt lat="45.54418" lon="6.00315">
        <ele>478.87</ele>
        <time>2020-07-26T10:25:29Z</time>
      </trkpt>
      <trkpt lat="45.54417" lon="6.00312">
        <ele>479.84</ele>
        <time>2020-07-26T10:25:45Z</time>
      </trkpt>
      <trkpt lat="45.54414" lon="6.00304">
        <ele>481.28</ele>
        <time>2020-07-26T10:26:04Z</time>
      </trkpt>
      <trkpt lat="45.54415" lon="6.00301">
        <ele>482.72</ele>
        <time>2020-07-26T10:26:16Z</time>
      </trkpt>
      <trkpt lat="45.54421" lon="6.00303">
        <ele>484.64</ele>
        <time>2020-07-26T10:26:26Z</time>
      </trkpt>
      <trkpt lat="45.54427" lon="6.00297">
        <ele>488.01</ele>
        <time>2020-07-26T10:26:50Z</time>
      </trkpt>
      <trkpt lat="45.54423" lon="6.00286">
        <ele>490.89</ele>
        <time>2020-07-26T10:27:09Z</time>
      </trkpt>
      <trkpt lat="45.54422" lon="6.00277">
        <ele>493.77</ele>
        <time>2020-07-26T10:27:37Z</time>
      </trkpt>
      <trkpt lat="45.54426" lon="6.00272">
        <ele>496.18</ele>
        <time>2020-07-26T10:28:12Z</time>
      </trkpt>
      <trkpt lat="45.54429" lon="6.00276">
        <ele>496.66</ele>
        <time>2020-07-26T10:28:45Z</time>
      </trkpt>
      <trkpt lat="45.54423" lon="6.00269">
        <ele>497.62</ele>
        <time>2020-07-26T10:29:04Z</time>
      </trkpt>
      <trkpt lat="45.54421" lon="6.00265">
        <ele>498.58</ele>
        <time>2020-07-26T10:29:10Z</time>
      </trkpt>
      <trkpt lat="45.5442" lon="6.0026">
        <ele>499.06</ele>
        <time>2020-07-26T10:29:16Z</time>
      </trkpt>
      <trkpt lat="45.54417" lon="6.00247">
        <ele>502.43</ele>
        <time>2020-07-26T10:29:33Z</time>
      </trkpt>
      <trkpt lat="45.54417" lon="6.0024">
        <ele>504.83</ele>
        <time>2020-07-26T10:29:49Z</time>
      </trkpt>
      <trkpt lat="45.54425" lon="6.00238">
        <ele>508.19</ele>
        <time>2020-07-26T10:30:10Z</time>
      </trkpt>
      <trkpt lat="45.54428" lon="6.00233">
        <ele>511.08</ele>
        <time>2020-07-26T10:30:26Z</time>
      </trkpt>
      <trkpt lat="45.54424" lon="6.00224">
        <ele>513.96</ele>
        <time>2020-07-26T10:30:43Z</time>
      </trkpt>
      <trkpt lat="45.54419" lon="6.00211">
        <ele>517.33</ele>
        <time>2020-07-26T10:31:06Z</time>
      </trkpt>
      <trkpt lat="45.54419" lon="6.00206">
        <ele>518.29</ele>
        <time>2020-07-26T10:31:25Z</time>
      </trkpt>
      <trkpt lat="45.54416" lon="6.00196">
        <ele>521.65</ele>
        <time>2020-07-26T10:31:46Z</time>
      </trkpt>
      <trkpt lat="45.54412" lon="6.00183">
        <ele>525.02</ele>
        <time>2020-07-26T10:32:06Z</time>
      </trkpt>
      <trkpt lat="45.54408" lon="6.00166">
        <ele>524.06</ele>
        <time>2020-07-26T10:32:30Z</time>
      </trkpt>
      <trkpt lat="45.54408" lon="6.00164">
        <ele>528.86</ele>
        <time>2020-07-26T10:32:33Z</time>
      </trkpt>
      <trkpt lat="45.54408" lon="6.00163">
        <ele>532.23</ele>
        <time>2020-07-26T10:32:36Z</time>
      </trkpt>
      <trkpt lat="45.54403" lon="6.00151">
        <ele>532.23</ele>
        <time>2020-07-26T10:33:00Z</time>
      </trkpt>
      <trkpt lat="45.54404" lon="6.00141">
        <ele>534.63</ele>
        <time>2020-07-26T10:33:22Z</time>
      </trkpt>
      <trkpt lat="45.5441" lon="6.00141">
        <ele>537.03</ele>
        <time>2020-07-26T10:33:40Z</time>
      </trkpt>
      <trkpt lat="45.54409" lon="6.00134">
        <ele>540.4</ele>
        <time>2020-07-26T10:33:57Z</time>
      </trkpt>
      <trkpt lat="45.54406" lon="6.00125">
        <ele>542.8</ele>
        <time>2020-07-26T10:34:14Z</time>
      </trkpt>
      <trkpt lat="45.54404" lon="6.00116">
        <ele>544.72</ele>
        <time>2020-07-26T10:34:32Z</time>
      </trkpt>
      <trkpt lat="45.54406" lon="6.00106">
        <ele>547.61</ele>
        <time>2020-07-26T10:34:51Z</time>
      </trkpt>
      <trkpt lat="45.54406" lon="6.00095">
        <ele>550.97</ele>
        <time>2020-07-26T10:35:11Z</time>
      </trkpt>
      <trkpt lat="45.54406" lon="6.00087">
        <ele>553.86</ele>
        <time>2020-07-26T10:35:34Z</time>
      </trkpt>
      <trkpt lat="45.54404" lon="6.00078">
        <ele>557.22</ele>
        <time>2020-07-26T10:35:50Z</time>
      </trkpt>
      <trkpt lat="45.54402" lon="6.00068">
        <ele>560.11</ele>
        <time>2020-07-26T10:36:07Z</time>
      </trkpt>
      <trkpt lat="45.54398" lon="6.00057">
        <ele>562.99</ele>
        <time>2020-07-26T10:36:26Z</time>
      </trkpt>
      <trkpt lat="45.54395" lon="6.00057">
        <ele>565.39</ele>
        <time>2020-07-26T10:36:55Z</time>
      </trkpt>
      <trkpt lat="45.54395" lon="6.00056">
        <ele>566.35</ele>
        <time>2020-07-26T10:36:57Z</time>
      </trkpt>
      <trkpt lat="45.54394" lon="6.00055">
        <ele>564.43</ele>
        <time>2020-07-26T10:37:24Z</time>
      </trkpt>
      <trkpt lat="45.54393" lon="6.00055">
        <ele>562.99</ele>
        <time>2020-07-26T10:38:00Z</time>
      </trkpt>
      <trkpt lat="45.54393" lon="6.00053">
        <ele>564.43</ele>
        <time>2020-07-26T10:38:37Z</time>
      </trkpt>
      <trkpt lat="45.5439" lon="6.00055">
        <ele>563.95</ele>
        <time>2020-07-26T10:39:11Z</time>
      </trkpt>
      <trkpt lat="45.5439" lon="6.00066">
        <ele>563.95</ele>
        <time>2020-07-26T10:39:52Z</time>
      </trkpt>
      <trkpt lat="45.5439" lon="6.0006">
        <ele>563.95</ele>
        <time>2020-07-26T10:40:29Z</time>
      </trkpt>
      <trkpt lat="45.5439" lon="6.00053">
        <ele>563.95</ele>
        <time>2020-07-26T10:40:58Z</time>
      </trkpt>
      <trkpt lat="45.54387" lon="6.00049">
        <ele>563.95</ele>
        <time>2020-07-26T10:41:06Z</time>
      </trkpt>
      <trkpt lat="45.5438" lon="6.00035">
        <ele>563.95</ele>
        <time>2020-07-26T10:41:33Z</time>
      </trkpt>
      <trkpt lat="45.54377" lon="6.00023">
        <ele>572.6</ele>
        <time>2020-07-26T10:41:53Z</time>
      </trkpt>
      <trkpt lat="45.54376" lon="6.00023">
        <ele>573.08</ele>
        <time>2020-07-26T10:41:54Z</time>
      </trkpt>
      <trkpt lat="45.54369" lon="6.00008">
        <ele>575.97</ele>
        <time>2020-07-26T10:42:16Z</time>
      </trkpt>
      <trkpt lat="45.54366" lon="6">
        <ele>578.85</ele>
        <time>2020-07-26T10:42:38Z</time>
      </trkpt>
      <trkpt lat="45.54373" lon="6">
        <ele>580.77</ele>
        <time>2020-07-26T10:42:55Z</time>
      </trkpt>
      <trkpt lat="45.54384" lon="6.00005">
        <ele>583.66</ele>
        <time>2020-07-26T10:43:13Z</time>
      </trkpt>
      <trkpt lat="45.5439" lon="6.00006">
        <ele>585.58</ele>
        <time>2020-07-26T10:43:30Z</time>
      </trkpt>
      <trkpt lat="45.544" lon="6.00006">
        <ele>587.5</ele>
        <time>2020-07-26T10:43:47Z</time>
      </trkpt>
      <trkpt lat="45.54412" lon="6.00011">
        <ele>589.91</ele>
        <time>2020-07-26T10:44:05Z</time>
      </trkpt>
      <trkpt lat="45.54421" lon="6.00011">
        <ele>591.83</ele>
        <time>2020-07-26T10:44:23Z</time>
      </trkpt>
      <trkpt lat="45.54427" lon="6.00011">
        <ele>595.19</ele>
        <time>2020-07-26T10:44:38Z</time>
      </trkpt>
      <trkpt lat="45.54435" lon="6.00013">
        <ele>597.6</ele>
        <time>2020-07-26T10:44:55Z</time>
      </trkpt>
      <trkpt lat="45.54439" lon="6.0001">
        <ele>600.48</ele>
        <time>2020-07-26T10:45:11Z</time>
      </trkpt>
      <trkpt lat="45.54441" lon="6.00012">
        <ele>602.4</ele>
        <time>2020-07-26T10:45:27Z</time>
      </trkpt>
      <trkpt lat="45.54452" lon="6.00015">
        <ele>605.29</ele>
        <time>2020-07-26T10:45:45Z</time>
      </trkpt>
      <trkpt lat="45.54458" lon="6.00014">
        <ele>608.17</ele>
        <time>2020-07-26T10:46:03Z</time>
      </trkpt>
      <trkpt lat="45.54466" lon="6.00018">
        <ele>610.57</ele>
        <time>2020-07-26T10:46:19Z</time>
      </trkpt>
      <trkpt lat="45.54473" lon="6.00022">
        <ele>612.98</ele>
        <time>2020-07-26T10:46:35Z</time>
      </trkpt>
      <trkpt lat="45.54474" lon="6.00021">
        <ele>614.42</ele>
        <time>2020-07-26T10:46:53Z</time>
      </trkpt>
      <trkpt lat="45.54475" lon="6.00016">
        <ele>616.34</ele>
        <time>2020-07-26T10:47:31Z</time>
      </trkpt>
      <trkpt lat="45.54479" lon="6.00017">
        <ele>619.23</ele>
        <time>2020-07-26T10:47:49Z</time>
      </trkpt>
      <trkpt lat="45.54483" lon="6.00014">
        <ele>620.19</ele>
        <time>2020-07-26T10:48:11Z</time>
      </trkpt>
      <trkpt lat="45.54486" lon="6.00012">
        <ele>622.59</ele>
        <time>2020-07-26T10:48:31Z</time>
      </trkpt>
      <trkpt lat="45.54491" lon="6.0001">
        <ele>624.99</ele>
        <time>2020-07-26T10:48:48Z</time>
      </trkpt>
      <trkpt lat="45.54493" lon="6.00013">
        <ele>628.36</ele>
        <time>2020-07-26T10:49:15Z</time>
      </trkpt>
      <trkpt lat="45.54495" lon="6.00012">
        <ele>630.28</ele>
        <time>2020-07-26T10:49:27Z</time>
      </trkpt>
      <trkpt lat="45.54507" lon="6.00009">
        <ele>633.17</ele>
        <time>2020-07-26T10:49:46Z</time>
      </trkpt>
      <trkpt lat="45.54512" lon="6.00008">
        <ele>635.57</ele>
        <time>2020-07-26T10:50:02Z</time>
      </trkpt>
      <trkpt lat="45.54518" lon="6.00006">
        <ele>638.45</ele>
        <time>2020-07-26T10:50:23Z</time>
      </trkpt>
      <trkpt lat="45.54521" lon="6.00005">
        <ele>640.86</ele>
        <time>2020-07-26T10:50:43Z</time>
      </trkpt>
      <trkpt lat="45.54525" lon="6.00005">
        <ele>642.3</ele>
        <time>2020-07-26T10:51:00Z</time>
      </trkpt>
      <trkpt lat="45.54533" lon="6.00014">
        <ele>644.7</ele>
        <time>2020-07-26T10:51:20Z</time>
      </trkpt>
      <trkpt lat="45.54541" lon="6.00021">
        <ele>647.59</ele>
        <time>2020-07-26T10:51:40Z</time>
      </trkpt>
      <trkpt lat="45.5455" lon="6.00025">
        <ele>650.95</ele>
        <time>2020-07-26T10:52:01Z</time>
      </trkpt>
      <trkpt lat="45.54557" lon="6.00025">
        <ele>651.91</ele>
        <time>2020-07-26T10:52:12Z</time>
      </trkpt>
      <trkpt lat="45.54558" lon="6.00025">
        <ele>651.91</ele>
        <time>2020-07-26T10:52:13Z</time>
      </trkpt>
      <trkpt lat="45.54569" lon="6.00025">
        <ele>654.8</ele>
        <time>2020-07-26T10:52:29Z</time>
      </trkpt>
      <trkpt lat="45.54576" lon="6.00035">
        <ele>651.43</ele>
        <time>2020-07-26T10:52:50Z</time>
      </trkpt>
      <trkpt lat="45.54578" lon="6.00035">
        <ele>654.8</ele>
        <time>2020-07-26T10:52:55Z</time>
      </trkpt>
      <trkpt lat="45.54579" lon="6.00035">
        <ele>655.76</ele>
        <time>2020-07-26T10:52:57Z</time>
      </trkpt>
      <trkpt lat="45.54582" lon="6.00035">
        <ele>660.08</ele>
        <time>2020-07-26T10:53:01Z</time>
      </trkpt>
      <trkpt lat="45.54584" lon="6.00034">
        <ele>662.97</ele>
        <time>2020-07-26T10:53:06Z</time>
      </trkpt>
      <trkpt lat="45.54599" lon="6.00038">
        <ele>662.97</ele>
        <time>2020-07-26T10:53:29Z</time>
      </trkpt>
      <trkpt lat="45.54603" lon="6.00035">
        <ele>663.93</ele>
        <time>2020-07-26T10:53:54Z</time>
      </trkpt>
      <trkpt lat="45.54606" lon="6.00018">
        <ele>664.41</ele>
        <time>2020-07-26T10:54:17Z</time>
      </trkpt>
      <trkpt lat="45.54609" lon="6.00012">
        <ele>662.97</ele>
        <time>2020-07-26T10:54:54Z</time>
      </trkpt>
      <trkpt lat="45.54608" lon="6.00011">
        <ele>665.85</ele>
        <time>2020-07-26T10:54:58Z</time>
      </trkpt>
      <trkpt lat="45.54608" lon="6.00011">
        <ele>664.41</ele>
        <time>2020-07-26T10:55:03Z</time>
      </trkpt>
      <trkpt lat="45.5461" lon="6.00009">
        <ele>664.41</ele>
        <time>2020-07-26T10:55:25Z</time>
      </trkpt>
      <trkpt lat="45.54607" lon="6.00002">
        <ele>664.41</ele>
        <time>2020-07-26T10:55:49Z</time>
      </trkpt>
      <trkpt lat="45.54604" lon="6.00001">
        <ele>664.41</ele>
        <time>2020-07-26T10:56:29Z</time>
      </trkpt>
      <trkpt lat="45.54609" lon="6.00003">
        <ele>664.41</ele>
        <time>2020-07-26T10:57:00Z</time>
      </trkpt>
      <trkpt lat="45.54605" lon="6.00002">
        <ele>664.41</ele>
        <time>2020-07-26T10:57:31Z</time>
      </trkpt>
      <trkpt lat="45.54603" lon="6">
        <ele>664.41</ele>
        <time>2020-07-26T10:57:53Z</time>
      </trkpt>
      <trkpt lat="45.54603" lon="5.99996">
        <ele>664.41</ele>
        <time>2020-07-26T10:58:30Z</time>
      </trkpt>
      <trkpt lat="45.54605" lon="5.99995">
        <ele>664.41</ele>
        <time>2020-07-26T10:59:02Z</time>
      </trkpt>
      <trkpt lat="45.54605" lon="5.99998">
        <ele>664.41</ele>
        <time>2020-07-26T10:59:28Z</time>
      </trkpt>
      <trkpt lat="45.54612" lon="5.99994">
        <ele>664.41</ele>
        <time>2020-07-26T10:59:50Z</time>
      </trkpt>
      <trkpt lat="45.54626" lon="5.99996">
        <ele>668.73</ele>
        <time>2020-07-26T11:00:11Z</time>
      </trkpt>
      <trkpt lat="45.54627" lon="5.99996">
        <ele>668.73</ele>
        <time>2020-07-26T11:00:12Z</time>
      </trkpt>
      <trkpt lat="45.54639" lon="5.99999">
        <ele>670.18</ele>
        <time>2020-07-26T11:00:28Z</time>
      </trkpt>
      <trkpt lat="45.54648" lon="6.00002">
        <ele>671.14</ele>
        <time>2020-07-26T11:00:42Z</time>
      </trkpt>
      <trkpt lat="45.54663" lon="5.99996">
        <ele>672.58</ele>
        <time>2020-07-26T11:01:04Z</time>
      </trkpt>
      <trkpt lat="45.54678" lon="5.99999">
        <ele>674.5</ele>
        <time>2020-07-26T11:01:26Z</time>
      </trkpt>
      <trkpt lat="45.5469" lon="6.00007">
        <ele>676.91</ele>
        <time>2020-07-26T11:01:52Z</time>
      </trkpt>
      <trkpt lat="45.54699" lon="6.00008">
        <ele>679.79</ele>
        <time>2020-07-26T11:02:14Z</time>
      </trkpt>
      <trkpt lat="45.547" lon="6.00008">
        <ele>679.79</ele>
        <time>2020-07-26T11:02:15Z</time>
      </trkpt>
      <trkpt lat="45.54702" lon="6.00008">
        <ele>679.79</ele>
        <time>2020-07-26T11:02:17Z</time>
      </trkpt>
      <trkpt lat="45.54737" lon="6.00026">
        <ele>681.71</ele>
        <time>2020-07-26T11:02:53Z</time>
      </trkpt>
      <trkpt lat="45.54734" lon="6.00006">
        <ele>683.15</ele>
        <time>2020-07-26T11:03:14Z</time>
      </trkpt>
      <trkpt lat="45.5472" lon="5.99991">
        <ele>686.04</ele>
        <time>2020-07-26T11:03:36Z</time>
      </trkpt>
      <trkpt lat="45.54708" lon="5.99977">
        <ele>689.4</ele>
        <time>2020-07-26T11:03:57Z</time>
      </trkpt>
      <trkpt lat="45.54698" lon="5.99968">
        <ele>691.33</ele>
        <time>2020-07-26T11:04:17Z</time>
      </trkpt>
      <trkpt lat="45.54698" lon="5.99959">
        <ele>693.25</ele>
        <time>2020-07-26T11:04:40Z</time>
      </trkpt>
      <trkpt lat="45.54698" lon="5.99953">
        <ele>693.73</ele>
        <time>2020-07-26T11:05:00Z</time>
      </trkpt>
      <trkpt lat="45.54715" lon="5.99947">
        <ele>694.69</ele>
        <time>2020-07-26T11:05:18Z</time>
      </trkpt>
      <trkpt lat="45.54721" lon="5.99945">
        <ele>695.17</ele>
        <time>2020-07-26T11:05:24Z</time>
      </trkpt>
      <trkpt lat="45.54722" lon="5.99945">
        <ele>695.17</ele>
        <time>2020-07-26T11:05:25Z</time>
      </trkpt>
      <trkpt lat="45.54737" lon="5.99948">
        <ele>695.17</ele>
        <time>2020-07-26T11:05:41Z</time>
      </trkpt>
      <trkpt lat="45.54756" lon="5.99951">
        <ele>696.61</ele>
        <time>2020-07-26T11:06:04Z</time>
      </trkpt>
      <trkpt lat="45.54771" lon="5.99956">
        <ele>699.98</ele>
        <time>2020-07-26T11:06:24Z</time>
      </trkpt>
      <trkpt lat="45.54784" lon="5.9996">
        <ele>702.86</ele>
        <time>2020-07-26T11:06:40Z</time>
      </trkpt>
      <trkpt lat="45.54798" lon="5.99974">
        <ele>706.23</ele>
        <time>2020-07-26T11:07:04Z</time>
      </trkpt>
      <trkpt lat="45.54808" lon="5.99986">
        <ele>708.15</ele>
        <time>2020-07-26T11:07:27Z</time>
      </trkpt>
      <trkpt lat="45.54812" lon="5.99993">
        <ele>707.19</ele>
        <time>2020-07-26T11:07:44Z</time>
      </trkpt>
      <trkpt lat="45.54819" lon="6.00003">
        <ele>709.59</ele>
        <time>2020-07-26T11:07:58Z</time>
      </trkpt>
      <trkpt lat="45.54821" lon="6.00006">
        <ele>711.99</ele>
        <time>2020-07-26T11:08:01Z</time>
      </trkpt>
      <trkpt lat="45.54828" lon="6.00018">
        <ele>711.03</ele>
        <time>2020-07-26T11:08:17Z</time>
      </trkpt>
      <trkpt lat="45.54837" lon="6.00024">
        <ele>712.47</ele>
        <time>2020-07-26T11:08:45Z</time>
      </trkpt>
      <trkpt lat="45.54838" lon="6.00049">
        <ele>715.84</ele>
        <time>2020-07-26T11:09:06Z</time>
      </trkpt>
      <trkpt lat="45.5484" lon="6.00079">
        <ele>718.72</ele>
        <time>2020-07-26T11:09:33Z</time>
      </trkpt>
      <trkpt lat="45.54844" lon="6.00097">
        <ele>721.61</ele>
        <time>2020-07-26T11:09:56Z</time>
      </trkpt>
      <trkpt lat="45.5485" lon="6.00114">
        <ele>724.97</ele>
        <time>2020-07-26T11:10:15Z</time>
      </trkpt>
      <trkpt lat="45.54851" lon="6.00131">
        <ele>727.86</ele>
        <time>2020-07-26T11:10:35Z</time>
      </trkpt>
      <trkpt lat="45.54849" lon="6.00149">
        <ele>731.22</ele>
        <time>2020-07-26T11:10:59Z</time>
      </trkpt>
      <trkpt lat="45.54848" lon="6.0017">
        <ele>734.1</ele>
        <time>2020-07-26T11:11:22Z</time>
      </trkpt>
      <trkpt lat="45.54852" lon="6.00171">
        <ele>735.07</ele>
        <time>2020-07-26T11:11:28Z</time>
      </trkpt>
      <trkpt lat="45.54863" lon="6.0017">
        <ele>736.03</ele>
        <time>2020-07-26T11:11:36Z</time>
      </trkpt>
      <trkpt lat="45.54871" lon="6.00168">
        <ele>739.39</ele>
        <time>2020-07-26T11:11:58Z</time>
      </trkpt>
      <trkpt lat="45.54875" lon="6.0016">
        <ele>741.79</ele>
        <time>2020-07-26T11:12:15Z</time>
      </trkpt>
      <trkpt lat="45.54879" lon="6.00145">
        <ele>744.68</ele>
        <time>2020-07-26T11:12:39Z</time>
      </trkpt>
      <trkpt lat="45.54887" lon="6.00147">
        <ele>747.08</ele>
        <time>2020-07-26T11:12:56Z</time>
      </trkpt>
      <trkpt lat="45.54897" lon="6.00166">
        <ele>749.49</ele>
        <time>2020-07-26T11:13:22Z</time>
      </trkpt>
      <trkpt lat="45.54905" lon="6.00187">
        <ele>752.37</ele>
        <time>2020-07-26T11:13:50Z</time>
      </trkpt>
      <trkpt lat="45.54907" lon="6.00184">
        <ele>755.73</ele>
        <time>2020-07-26T11:14:11Z</time>
      </trkpt>
      <trkpt lat="45.54903" lon="6.00165">
        <ele>758.62</ele>
        <time>2020-07-26T11:14:42Z</time>
      </trkpt>
      <trkpt lat="45.54915" lon="6.00144">
        <ele>761.98</ele>
        <time>2020-07-26T11:15:16Z</time>
      </trkpt>
      <trkpt lat="45.5491" lon="6.00119">
        <ele>764.87</ele>
        <time>2020-07-26T11:15:49Z</time>
      </trkpt>
      <trkpt lat="45.54908" lon="6.00104">
        <ele>767.75</ele>
        <time>2020-07-26T11:16:10Z</time>
      </trkpt>
      <trkpt lat="45.54913" lon="6.0009">
        <ele>770.15</ele>
        <time>2020-07-26T11:16:36Z</time>
      </trkpt>
      <trkpt lat="45.54923" lon="6.00079">
        <ele>772.08</ele>
        <time>2020-07-26T11:16:59Z</time>
      </trkpt>
      <trkpt lat="45.54936" lon="6.0008">
        <ele>773.52</ele>
        <time>2020-07-26T11:17:14Z</time>
      </trkpt>
      <trkpt lat="45.54935" lon="6.00095">
        <ele>776.4</ele>
        <time>2020-07-26T11:17:33Z</time>
      </trkpt>
      <trkpt lat="45.54943" lon="6.00112">
        <ele>778.32</ele>
        <time>2020-07-26T11:17:53Z</time>
      </trkpt>
      <trkpt lat="45.54953" lon="6.00129">
        <ele>781.21</ele>
        <time>2020-07-26T11:18:14Z</time>
      </trkpt>
      <trkpt lat="45.54956" lon="6.00145">
        <ele>783.61</ele>
        <time>2020-07-26T11:18:31Z</time>
      </trkpt>
      <trkpt lat="45.54962" lon="6.00166">
        <ele>786.5</ele>
        <time>2020-07-26T11:18:51Z</time>
      </trkpt>
      <trkpt lat="45.54968" lon="6.00183">
        <ele>788.42</ele>
        <time>2020-07-26T11:19:08Z</time>
      </trkpt>
      <trkpt lat="45.54973" lon="6.00195">
        <ele>790.82</ele>
        <time>2020-07-26T11:19:23Z</time>
      </trkpt>
      <trkpt lat="45.54974" lon="6.00196">
        <ele>792.26</ele>
        <time>2020-07-26T11:19:41Z</time>
      </trkpt>
      <trkpt lat="45.54975" lon="6.00196">
        <ele>792.74</ele>
        <time>2020-07-26T11:20:00Z</time>
      </trkpt>
      <trkpt lat="45.54978" lon="6.00201">
        <ele>792.74</ele>
        <time>2020-07-26T11:20:11Z</time>
      </trkpt>
      <trkpt lat="45.54982" lon="6.00207">
        <ele>793.22</ele>
        <time>2020-07-26T11:20:17Z</time>
      </trkpt>
      <trkpt lat="45.54991" lon="6.00222">
        <ele>794.67</ele>
        <time>2020-07-26T11:20:33Z</time>
      </trkpt>
      <trkpt lat="45.55004" lon="6.0024">
        <ele>797.07</ele>
        <time>2020-07-26T11:20:54Z</time>
      </trkpt>
      <trkpt lat="45.55018" lon="6.00261">
        <ele>799.47</ele>
        <time>2020-07-26T11:21:14Z</time>
      </trkpt>
      <trkpt lat="45.55031" lon="6.00278">
        <ele>801.4</ele>
        <time>2020-07-26T11:21:34Z</time>
      </trkpt>
      <trkpt lat="45.5504" lon="6.00284">
        <ele>802.84</ele>
        <time>2020-07-26T11:21:47Z</time>
      </trkpt>
      <trkpt lat="45.55055" lon="6.0029">
        <ele>804.76</ele>
        <time>2020-07-26T11:22:04Z</time>
      </trkpt>
      <trkpt lat="45.55069" lon="6.00297">
        <ele>806.2</ele>
        <time>2020-07-26T11:22:21Z</time>
      </trkpt>
      <trkpt lat="45.55085" lon="6.003">
        <ele>807.64</ele>
        <time>2020-07-26T11:22:41Z</time>
      </trkpt>
      <trkpt lat="45.551" lon="6.00304">
        <ele>810.05</ele>
        <time>2020-07-26T11:23:00Z</time>
      </trkpt>
      <trkpt lat="45.55112" lon="6.00311">
        <ele>811.01</ele>
        <time>2020-07-26T11:23:16Z</time>
      </trkpt>
      <trkpt lat="45.55124" lon="6.00316">
        <ele>811.01</ele>
        <time>2020-07-26T11:23:32Z</time>
      </trkpt>
      <trkpt lat="45.55139" lon="6.00321">
        <ele>811.97</ele>
        <time>2020-07-26T11:23:48Z</time>
      </trkpt>
      <trkpt lat="45.5515" lon="6.00321">
        <ele>812.93</ele>
        <time>2020-07-26T11:24:02Z</time>
      </trkpt>
      <trkpt lat="45.5516" lon="6.00321">
        <ele>812.93</ele>
        <time>2020-07-26T11:24:21Z</time>
      </trkpt>
      <trkpt lat="45.55172" lon="6.00324">
        <ele>813.41</ele>
        <time>2020-07-26T11:24:38Z</time>
      </trkpt>
      <trkpt lat="45.55187" lon="6.00328">
        <ele>813.89</ele>
        <time>2020-07-26T11:24:56Z</time>
      </trkpt>
      <trkpt lat="45.55201" lon="6.0033">
        <ele>814.37</ele>
        <time>2020-07-26T11:25:12Z</time>
      </trkpt>
      <trkpt lat="45.55208" lon="6.00329">
        <ele>814.37</ele>
        <time>2020-07-26T11:25:19Z</time>
      </trkpt>
      <trkpt lat="45.5522" lon="6.00316">
        <ele>815.34</ele>
        <time>2020-07-26T11:25:38Z</time>
      </trkpt>
      <trkpt lat="45.55241" lon="6.00306">
        <ele>816.78</ele>
        <time>2020-07-26T11:26:03Z</time>
      </trkpt>
      <trkpt lat="45.55256" lon="6.00303">
        <ele>816.78</ele>
        <time>2020-07-26T11:26:21Z</time>
      </trkpt>
      <trkpt lat="45.55278" lon="6.00294">
        <ele>815.82</ele>
        <time>2020-07-26T11:26:49Z</time>
      </trkpt>
      <trkpt lat="45.55281" lon="6.00293">
        <ele>816.78</ele>
        <time>2020-07-26T11:26:51Z</time>
      </trkpt>
      <trkpt lat="45.55284" lon="6.00292">
        <ele>818.22</ele>
        <time>2020-07-26T11:26:53Z</time>
      </trkpt>
      <trkpt lat="45.55304" lon="6.00288">
        <ele>816.78</ele>
        <time>2020-07-26T11:27:14Z</time>
      </trkpt>
      <trkpt lat="45.5532" lon="6.00289">
        <ele>817.74</ele>
        <time>2020-07-26T11:27:31Z</time>
      </trkpt>
      <trkpt lat="45.55344" lon="6.00284">
        <ele>818.7</ele>
        <time>2020-07-26T11:28:01Z</time>
      </trkpt>
      <trkpt lat="45.55345" lon="6.00283">
        <ele>818.7</ele>
        <time>2020-07-26T11:28:02Z</time>
      </trkpt>
      <trkpt lat="45.55346" lon="6.00283">
        <ele>818.7</ele>
        <time>2020-07-26T11:28:03Z</time>
      </trkpt>
      <trkpt lat="45.55346" lon="6.00279">
        <ele>819.18</ele>
        <time>2020-07-26T11:28:08Z</time>
      </trkpt>
      <trkpt lat="45.55345" lon="6.00274">
        <ele>819.18</ele>
        <time>2020-07-26T11:28:39Z</time>
      </trkpt>
      <trkpt lat="45.55328" lon="6.00271">
        <ele>820.14</ele>
        <time>2020-07-26T11:29:05Z</time>
      </trkpt>
      <trkpt lat="45.55304" lon="6.00263">
        <ele>823.03</ele>
        <time>2020-07-26T11:29:32Z</time>
      </trkpt>
      <trkpt lat="45.55289" lon="6.00266">
        <ele>825.91</ele>
        <time>2020-07-26T11:29:52Z</time>
      </trkpt>
      <trkpt lat="45.55277" lon="6.00266">
        <ele>828.79</ele>
        <time>2020-07-26T11:30:12Z</time>
      </trkpt>
      <trkpt lat="45.55261" lon="6.00267">
        <ele>831.68</ele>
        <time>2020-07-26T11:30:33Z</time>
      </trkpt>
      <trkpt lat="45.55249" lon="6.00263">
        <ele>835.04</ele>
        <time>2020-07-26T11:30:52Z</time>
      </trkpt>
      <trkpt lat="45.55236" lon="6.00265">
        <ele>837.93</ele>
        <time>2020-07-26T11:31:10Z</time>
      </trkpt>
      <trkpt lat="45.55223" lon="6.0026">
        <ele>841.29</ele>
        <time>2020-07-26T11:31:31Z</time>
      </trkpt>
      <trkpt lat="45.55198" lon="6.00253">
        <ele>843.21</ele>
        <time>2020-07-26T11:31:58Z</time>
      </trkpt>
      <trkpt lat="45.55172" lon="6.00247">
        <ele>846.1</ele>
        <time>2020-07-26T11:32:27Z</time>
      </trkpt>
      <trkpt lat="45.55151" lon="6.00232">
        <ele>845.62</ele>
        <time>2020-07-26T11:32:55Z</time>
      </trkpt>
      <trkpt lat="45.55138" lon="6.00202">
        <ele>848.5</ele>
        <time>2020-07-26T11:33:20Z</time>
      </trkpt>
      <trkpt lat="45.55129" lon="6.00189">
        <ele>848.98</ele>
        <time>2020-07-26T11:33:43Z</time>
      </trkpt>
      <trkpt lat="45.5513" lon="6.00189">
        <ele>848.98</ele>
        <time>2020-07-26T11:34:04Z</time>
      </trkpt>
      <trkpt lat="45.55123" lon="6.00188">
        <ele>848.98</ele>
        <time>2020-07-26T11:34:22Z</time>
      </trkpt>
      <trkpt lat="45.55121" lon="6.00189">
        <ele>848.98</ele>
        <time>2020-07-26T11:34:23Z</time>
      </trkpt>
      <trkpt lat="45.5512" lon="6.00189">
        <ele>848.98</ele>
        <time>2020-07-26T11:34:24Z</time>
      </trkpt>
      <trkpt lat="45.55118" lon="6.00192">
        <ele>848.5</ele>
        <time>2020-07-26T11:34:27Z</time>
      </trkpt>
      <trkpt lat="45.55105" lon="6.00201">
        <ele>848.5</ele>
        <time>2020-07-26T11:34:42Z</time>
      </trkpt>
      <trkpt lat="45.55094" lon="6.00201">
        <ele>849.46</ele>
        <time>2020-07-26T11:34:56Z</time>
      </trkpt>
      <trkpt lat="45.55078" lon="6.00198">
        <ele>851.87</ele>
        <time>2020-07-26T11:35:13Z</time>
      </trkpt>
      <trkpt lat="45.55077" lon="6.00177">
        <ele>853.31</ele>
        <time>2020-07-26T11:35:29Z</time>
      </trkpt>
      <trkpt lat="45.55079" lon="6.00173">
        <ele>853.31</ele>
        <time>2020-07-26T11:35:33Z</time>
      </trkpt>
      <trkpt lat="45.5508" lon="6.00171">
        <ele>853.31</ele>
        <time>2020-07-26T11:35:34Z</time>
      </trkpt>
      <trkpt lat="45.55085" lon="6.00161">
        <ele>853.79</ele>
        <time>2020-07-26T11:35:43Z</time>
      </trkpt>
      <trkpt lat="45.55089" lon="6.00147">
        <ele>853.79</ele>
        <time>2020-07-26T11:35:55Z</time>
      </trkpt>
      <trkpt lat="45.55096" lon="6.00138">
        <ele>854.27</ele>
        <time>2020-07-26T11:36:07Z</time>
      </trkpt>
      <trkpt lat="45.55095" lon="6.0014">
        <ele>853.79</ele>
        <time>2020-07-26T11:36:21Z</time>
      </trkpt>
      <trkpt lat="45.55093" lon="6.00141">
        <ele>853.79</ele>
        <time>2020-07-26T11:36:36Z</time>
      </trkpt>
      <trkpt lat="45.55093" lon="6.0014">
        <ele>853.79</ele>
        <time>2020-07-26T11:36:47Z</time>
      </trkpt>
      <trkpt lat="45.55091" lon="6.0014">
        <ele>853.79</ele>
        <time>2020-07-26T11:37:04Z</time>
      </trkpt>
      <trkpt lat="45.55091" lon="6.00137">
        <ele>854.27</ele>
        <time>2020-07-26T11:37:32Z</time>
      </trkpt>
      <trkpt lat="45.55092" lon="6.00135">
        <ele>854.27</ele>
        <time>2020-07-26T11:37:38Z</time>
      </trkpt>
      <trkpt lat="45.55093" lon="6.00133">
        <ele>854.27</ele>
        <time>2020-07-26T11:37:54Z</time>
      </trkpt>
      <trkpt lat="45.55093" lon="6.00134">
        <ele>854.27</ele>
        <time>2020-07-26T11:38:11Z</time>
      </trkpt>
      <trkpt lat="45.55093" lon="6.00144">
        <ele>854.27</ele>
        <time>2020-07-26T11:38:22Z</time>
      </trkpt>
      <trkpt lat="45.55084" lon="6.00152">
        <ele>854.27</ele>
        <time>2020-07-26T11:38:35Z</time>
      </trkpt>
      <trkpt lat="45.55083" lon="6.00164">
        <ele>853.79</ele>
        <time>2020-07-26T11:38:50Z</time>
      </trkpt>
      <trkpt lat="45.55083" lon="6.00151">
        <ele>854.75</ele>
        <time>2020-07-26T11:39:04Z</time>
      </trkpt>
      <trkpt lat="45.55094" lon="6.00136">
        <ele>855.23</ele>
        <time>2020-07-26T11:39:22Z</time>
      </trkpt>
      <trkpt lat="45.55096" lon="6.00134">
        <ele>855.23</ele>
        <time>2020-07-26T11:39:24Z</time>
      </trkpt>
      <trkpt lat="45.55102" lon="6.00123">
        <ele>855.23</ele>
        <time>2020-07-26T11:39:38Z</time>
      </trkpt>
      <trkpt lat="45.55102" lon="6.00117">
        <ele>854.75</ele>
        <time>2020-07-26T11:39:52Z</time>
      </trkpt>
      <trkpt lat="45.55102" lon="6.0012">
        <ele>854.75</ele>
        <time>2020-07-26T11:40:07Z</time>
      </trkpt>
      <trkpt lat="45.55099" lon="6.00122">
        <ele>854.75</ele>
        <time>2020-07-26T11:40:31Z</time>
      </trkpt>
      <trkpt lat="45.551" lon="6.00123">
        <ele>852.83</ele>
        <time>2020-07-26T11:41:06Z</time>
      </trkpt>
      <trkpt lat="45.55098" lon="6.0012">
        <ele>853.79</ele>
        <time>2020-07-26T11:41:57Z</time>
      </trkpt>
      <trkpt lat="45.55104" lon="6.00117">
        <ele>853.79</ele>
        <time>2020-07-26T11:42:21Z</time>
      </trkpt>
      <trkpt lat="45.55107" lon="6.00134">
        <ele>854.75</ele>
        <time>2020-07-26T11:43:03Z</time>
      </trkpt>
      <trkpt lat="45.55108" lon="6.00127">
        <ele>853.79</ele>
        <time>2020-07-26T11:43:51Z</time>
      </trkpt>
      <trkpt lat="45.55112" lon="6.00123">
        <ele>853.79</ele>
        <time>2020-07-26T11:44:21Z</time>
      </trkpt>
      <trkpt lat="45.55104" lon="6.00129">
        <ele>853.79</ele>
        <time>2020-07-26T11:44:37Z</time>
      </trkpt>
      <trkpt lat="45.551" lon="6.00122">
        <ele>854.75</ele>
        <time>2020-07-26T11:45:04Z</time>
      </trkpt>
      <trkpt lat="45.55105" lon="6.00121">
        <ele>856.19</ele>
        <time>2020-07-26T11:45:07Z</time>
      </trkpt>
      <trkpt lat="45.55106" lon="6.0012">
        <ele>854.27</ele>
        <time>2020-07-26T11:45:31Z</time>
      </trkpt>
      <trkpt lat="45.55104" lon="6.0012">
        <ele>854.75</ele>
        <time>2020-07-26T11:45:57Z</time>
      </trkpt>
      <trkpt lat="45.55103" lon="6.00119">
        <ele>854.75</ele>
        <time>2020-07-26T11:46:14Z</time>
      </trkpt>
      <trkpt lat="45.55104" lon="6.0012">
        <ele>854.75</ele>
        <time>2020-07-26T11:46:41Z</time>
      </trkpt>
      <trkpt lat="45.55103" lon="6.00121">
        <ele>854.75</ele>
        <time>2020-07-26T11:46:58Z</time>
      </trkpt>
      <trkpt lat="45.55104" lon="6.0012">
        <ele>854.75</ele>
        <time>2020-07-26T11:47:35Z</time>
      </trkpt>
      <trkpt lat="45.55104" lon="6.00119">
        <ele>854.75</ele>
        <time>2020-07-26T11:48:04Z</time>
      </trkpt>
      <trkpt lat="45.55105" lon="6.00119">
        <ele>854.75</ele>
        <time>2020-07-26T11:48:36Z</time>
      </trkpt>
      <trkpt lat="45.55103" lon="6.00118">
        <ele>854.75</ele>
        <time>2020-07-26T11:49:12Z</time>
      </trkpt>
      <trkpt lat="45.55103" lon="6.00118">
        <ele>854.75</ele>
        <time>2020-07-26T11:49:44Z</time>
      </trkpt>
      <trkpt lat="45.55104" lon="6.00119">
        <ele>854.75</ele>
        <time>2020-07-26T11:50:12Z</time>
      </trkpt>
      <trkpt lat="45.55103" lon="6.00118">
        <ele>854.75</ele>
        <time>2020-07-26T11:50:44Z</time>
      </trkpt>
      <trkpt lat="45.55103" lon="6.00119">
        <ele>854.75</ele>
        <time>2020-07-26T11:51:08Z</time>
      </trkpt>
      <trkpt lat="45.55103" lon="6.00118">
        <ele>854.75</ele>
        <time>2020-07-26T11:51:45Z</time>
      </trkpt>
      <trkpt lat="45.55103" lon="6.00119">
        <ele>854.75</ele>
        <time>2020-07-26T11:52:25Z</time>
      </trkpt>
      <trkpt lat="45.55102" lon="6.0012">
        <ele>854.75</ele>
        <time>2020-07-26T11:52:52Z</time>
      </trkpt>
      <trkpt lat="45.55103" lon="6.00119">
        <ele>854.75</ele>
        <time>2020-07-26T11:53:09Z</time>
      </trkpt>
      <trkpt lat="45.55103" lon="6.00122">
        <ele>854.75</ele>
        <time>2020-07-26T11:53:35Z</time>
      </trkpt>
      <trkpt lat="45.55104" lon="6.0012">
        <ele>854.75</ele>
        <time>2020-07-26T11:53:56Z</time>
      </trkpt>
      <trkpt lat="45.55104" lon="6.00118">
        <ele>854.75</ele>
        <time>2020-07-26T11:54:26Z</time>
      </trkpt>
      <trkpt lat="45.55104" lon="6.00118">
        <ele>854.75</ele>
        <time>2020-07-26T11:54:45Z</time>
      </trkpt>
      <trkpt lat="45.55104" lon="6.00119">
        <ele>854.75</ele>
        <time>2020-07-26T11:55:02Z</time>
      </trkpt>
      <trkpt lat="45.55102" lon="6.00119">
        <ele>854.75</ele>
        <time>2020-07-26T11:55:32Z</time>
      </trkpt>
      <trkpt lat="45.55093" lon="6.00117">
        <ele>853.31</ele>
        <time>2020-07-26T11:56:18Z</time>
      </trkpt>
      <trkpt lat="45.55095" lon="6.00117">
        <ele>853.31</ele>
        <time>2020-07-26T11:57:01Z</time>
      </trkpt>
      <trkpt lat="45.55103" lon="6.0012">
        <ele>854.27</ele>
        <time>2020-07-26T11:57:34Z</time>
      </trkpt>
      <trkpt lat="45.55104" lon="6.00119">
        <ele>853.31</ele>
        <time>2020-07-26T11:58:01Z</time>
      </trkpt>
      <trkpt lat="45.55105" lon="6.00118">
        <ele>853.79</ele>
        <time>2020-07-26T11:58:23Z</time>
      </trkpt>
      <trkpt lat="45.55104" lon="6.00118">
        <ele>853.31</ele>
        <time>2020-07-26T11:58:54Z</time>
      </trkpt>
      <trkpt lat="45.55103" lon="6.0012">
        <ele>853.31</ele>
        <time>2020-07-26T11:59:27Z</time>
      </trkpt>
      <trkpt lat="45.55104" lon="6.0012">
        <ele>853.79</ele>
        <time>2020-07-26T11:59:58Z</time>
      </trkpt>
      <trkpt lat="45.55104" lon="6.00119">
        <ele>853.79</ele>
        <time>2020-07-26T12:00:38Z</time>
      </trkpt>
      <trkpt lat="45.55104" lon="6.00119">
        <ele>853.79</ele>
        <time>2020-07-26T12:01:30Z</time>
      </trkpt>
      <trkpt lat="45.55104" lon="6.00119">
        <ele>853.79</ele>
        <time>2020-07-26T12:02:00Z</time>
      </trkpt>
      <trkpt lat="45.55103" lon="6.00118">
        <ele>853.79</ele>
        <time>2020-07-26T12:02:22Z</time>
      </trkpt>
      <trkpt lat="45.55103" lon="6.00118">
        <ele>853.79</ele>
        <time>2020-07-26T12:02:46Z</time>
      </trkpt>
      <trkpt lat="45.55104" lon="6.00118">
        <ele>853.79</ele>
        <time>2020-07-26T12:03:37Z</time>
      </trkpt>
      <trkpt lat="45.55104" lon="6.00115">
        <ele>853.79</ele>
        <time>2020-07-26T12:04:04Z</time>
      </trkpt>
      <trkpt lat="45.551" lon="6.00115">
        <ele>853.79</ele>
        <time>2020-07-26T12:04:34Z</time>
      </trkpt>
      <trkpt lat="45.55105" lon="6.00112">
        <ele>853.79</ele>
        <time>2020-07-26T12:04:54Z</time>
      </trkpt>
      <trkpt lat="45.55095" lon="6.00121">
        <ele>853.31</ele>
        <time>2020-07-26T12:05:24Z</time>
      </trkpt>
      <trkpt lat="45.55095" lon="6.00121">
        <ele>853.31</ele>
        <time>2020-07-26T12:05:47Z</time>
      </trkpt>
      <trkpt lat="45.55095" lon="6.00121">
        <ele>853.31</ele>
        <time>2020-07-26T12:05:48Z</time>
      </trkpt>
      <trkpt lat="45.55095" lon="6.00121">
        <ele>853.31</ele>
        <time>2020-07-26T12:05:49Z</time>
      </trkpt>
      <trkpt lat="45.55095" lon="6.00121">
        <ele>853.31</ele>
        <time>2020-07-26T12:05:50Z</time>
      </trkpt>
      <trkpt lat="45.55095" lon="6.00121">
        <ele>853.31</ele>
        <time>2020-07-26T12:05:51Z</time>
      </trkpt>
      <trkpt lat="45.55095" lon="6.00121">
        <ele>853.31</ele>
        <time>2020-07-26T12:05:52Z</time>
      </trkpt>
      <trkpt lat="45.55095" lon="6.00121">
        <ele>853.31</ele>
        <time>2020-07-26T12:05:53Z</time>
      </trkpt>
      <trkpt lat="45.55095" lon="6.00121">
        <ele>853.31</ele>
        <time>2020-07-26T12:05:54Z</time>
      </trkpt>
      <trkpt lat="45.55095" lon="6.00121">
        <ele>853.31</ele>
        <time>2020-07-26T12:05:55Z</time>
      </trkpt>
      <trkpt lat="45.55095" lon="6.00121">
        <ele>853.31</ele>
        <time>2020-07-26T12:05:56Z</time>
      </trkpt>
      <trkpt lat="45.55095" lon="6.00121">
        <ele>853.31</ele>
        <time>2020-07-26T12:05:57Z</time>
      </trkpt>
      <trkpt lat="45.55095" lon="6.00121">
        <ele>853.31</ele>
        <time>2020-07-26T12:05:58Z</time>
      </trkpt>
      <trkpt lat="45.55095" lon="6.00121">
        <ele>853.31</ele>
        <time>2020-07-26T12:05:59Z</time>
      </trkpt>
      <trkpt lat="45.55095" lon="6.00121">
        <ele>853.31</ele>
        <time>2020-07-26T12:06:00Z</time>
      </trkpt>
      <trkpt lat="45.55095" lon="6.00121">
        <ele>853.31</ele>
        <time>2020-07-26T12:06:01Z</time>
      </trkpt>
      <trkpt lat="45.55095" lon="6.00121">
        <ele>853.31</ele>
        <time>2020-07-26T12:06:02Z</time>
      </trkpt>
      <trkpt lat="45.55095" lon="6.00121">
        <ele>853.31</ele>
        <time>2020-07-26T12:06:03Z</time>
      </trkpt>
      <trkpt lat="45.55095" lon="6.00121">
        <ele>853.31</ele>
        <time>2020-07-26T12:06:04Z</time>
      </trkpt>
      <trkpt lat="45.55095" lon="6.00121">
        <ele>853.31</ele>
        <time>2020-07-26T12:06:05Z</time>
      </trkpt>
      <trkpt lat="45.55095" lon="6.00121">
        <ele>852.83</ele>
        <time>2020-07-26T12:06:06Z</time>
      </trkpt>
      <trkpt lat="45.55095" lon="6.00121">
        <ele>852.83</ele>
        <time>2020-07-26T12:06:07Z</time>
      </trkpt>
      <trkpt lat="45.55095" lon="6.00121">
        <ele>852.83</ele>
        <time>2020-07-26T12:06:08Z</time>
      </trkpt>
      <trkpt lat="45.55095" lon="6.00121">
        <ele>852.83</ele>
        <time>2020-07-26T12:06:09Z</time>
      </trkpt>
      <trkpt lat="45.55095" lon="6.00121">
        <ele>852.83</ele>
        <time>2020-07-26T12:06:10Z</time>
      </trkpt>
      <trkpt lat="45.55095" lon="6.00121">
        <ele>852.83</ele>
        <time>2020-07-26T12:06:11Z</time>
      </trkpt>
      <trkpt lat="45.55095" lon="6.00121">
        <ele>852.83</ele>
        <time>2020-07-26T12:06:12Z</time>
      </trkpt>
      <trkpt lat="45.55095" lon="6.00121">
        <ele>852.83</ele>
        <time>2020-07-26T12:06:13Z</time>
      </trkpt>
      <trkpt lat="45.55095" lon="6.00121">
        <ele>852.83</ele>
        <time>2020-07-26T12:06:14Z</time>
      </trkpt>
      <trkpt lat="45.55095" lon="6.00121">
        <ele>852.83</ele>
        <time>2020-07-26T12:06:15Z</time>
      </trkpt>
      <trkpt lat="45.55095" lon="6.00121">
        <ele>852.83</ele>
        <time>2020-07-26T12:06:16Z</time>
      </trkpt>
      <trkpt lat="45.55095" lon="6.00121">
        <ele>852.83</ele>
        <time>2020-07-26T12:06:17Z</time>
      </trkpt>
      <trkpt lat="45.55095" lon="6.00121">
        <ele>852.83</ele>
        <time>2020-07-26T12:06:18Z</time>
      </trkpt>
      <trkpt lat="45.55095" lon="6.00121">
        <ele>852.83</ele>
        <time>2020-07-26T12:06:19Z</time>
      </trkpt>
      <trkpt lat="45.55095" lon="6.00121">
        <ele>852.83</ele>
        <time>2020-07-26T12:06:20Z</time>
      </trkpt>
      <trkpt lat="45.55095" lon="6.00121">
        <ele>852.83</ele>
        <time>2020-07-26T12:06:21Z</time>
      </trkpt>
      <trkpt lat="45.55095" lon="6.00121">
        <ele>852.83</ele>
        <time>2020-07-26T12:06:22Z</time>
      </trkpt>
      <trkpt lat="45.55095" lon="6.00121">
        <ele>852.83</ele>
        <time>2020-07-26T12:06:23Z</time>
      </trkpt>
      <trkpt lat="45.55095" lon="6.00121">
        <ele>852.83</ele>
        <time>2020-07-26T12:06:24Z</time>
      </trkpt>
      <trkpt lat="45.55095" lon="6.00121">
        <ele>852.83</ele>
        <time>2020-07-26T12:06:25Z</time>
      </trkpt>
      <trkpt lat="45.55095" lon="6.00121">
        <ele>852.83</ele>
        <time>2020-07-26T12:06:26Z</time>
      </trkpt>
      <trkpt lat="45.55095" lon="6.00121">
        <ele>852.83</ele>
        <time>2020-07-26T12:06:27Z</time>
      </trkpt>
      <trkpt lat="45.55095" lon="6.00121">
        <ele>852.83</ele>
        <time>2020-07-26T12:06:28Z</time>
      </trkpt>
      <trkpt lat="45.55095" lon="6.00121">
        <ele>852.83</ele>
        <time>2020-07-26T12:06:29Z</time>
      </trkpt>
      <trkpt lat="45.55095" lon="6.00121">
        <ele>852.83</ele>
        <time>2020-07-26T12:06:30Z</time>
      </trkpt>
      <trkpt lat="45.55095" lon="6.00121">
        <ele>852.83</ele>
        <time>2020-07-26T12:06:31Z</time>
      </trkpt>
      <trkpt lat="45.55095" lon="6.00121">
        <ele>852.83</ele>
        <time>2020-07-26T12:06:32Z</time>
      </trkpt>
      <trkpt lat="45.55095" lon="6.00121">
        <ele>852.83</ele>
        <time>2020-07-26T12:06:33Z</time>
      </trkpt>
      <trkpt lat="45.55095" lon="6.00121">
        <ele>852.83</ele>
        <time>2020-07-26T12:06:34Z</time>
      </trkpt>
      <trkpt lat="45.55095" lon="6.00121">
        <ele>852.83</ele>
        <time>2020-07-26T12:06:35Z</time>
      </trkpt>
      <trkpt lat="45.55095" lon="6.00121">
        <ele>852.83</ele>
        <time>2020-07-26T12:06:36Z</time>
      </trkpt>
      <trkpt lat="45.55095" lon="6.00121">
        <ele>852.83</ele>
        <time>2020-07-26T12:06:37Z</time>
      </trkpt>
      <trkpt lat="45.55095" lon="6.00121">
        <ele>852.83</ele>
        <time>2020-07-26T12:06:38Z</time>
      </trkpt>
      <trkpt lat="45.55095" lon="6.00121">
        <ele>852.83</ele>
        <time>2020-07-26T12:06:39Z</time>
      </trkpt>
      <trkpt lat="45.55095" lon="6.00121">
        <ele>852.83</ele>
        <time>2020-07-26T12:06:40Z</time>
      </trkpt>
      <trkpt lat="45.55095" lon="6.00121">
        <ele>852.83</ele>
        <time>2020-07-26T12:06:41Z</time>
      </trkpt>
      <trkpt lat="45.55095" lon="6.00121">
        <ele>852.83</ele>
        <time>2020-07-26T12:06:42Z</time>
      </trkpt>
      <trkpt lat="45.55095" lon="6.00121">
        <ele>852.83</ele>
        <time>2020-07-26T12:06:43Z</time>
      </trkpt>
      <trkpt lat="45.55095" lon="6.00121">
        <ele>852.83</ele>
        <time>2020-07-26T12:06:44Z</time>
      </trkpt>
      <trkpt lat="45.55095" lon="6.00121">
        <ele>852.83</ele>
        <time>2020-07-26T12:06:45Z</time>
      </trkpt>
      <trkpt lat="45.55095" lon="6.00121">
        <ele>852.83</ele>
        <time>2020-07-26T12:06:46Z</time>
      </trkpt>
      <trkpt lat="45.55095" lon="6.00121">
        <ele>852.83</ele>
        <time>2020-07-26T12:06:47Z</time>
      </trkpt>
      <trkpt lat="45.55095" lon="6.00121">
        <ele>852.83</ele>
        <time>2020-07-26T12:06:48Z</time>
      </trkpt>
      <trkpt lat="45.55095" lon="6.00121">
        <ele>852.83</ele>
        <time>2020-07-26T12:06:49Z</time>
      </trkpt>
      <trkpt lat="45.55095" lon="6.00121">
        <ele>852.83</ele>
        <time>2020-07-26T12:06:50Z</time>
      </trkpt>
      <trkpt lat="45.55095" lon="6.00121">
        <ele>852.83</ele>
        <time>2020-07-26T12:06:51Z</time>
      </trkpt>
      <trkpt lat="45.55095" lon="6.00121">
        <ele>852.83</ele>
        <time>2020-07-26T12:06:52Z</time>
      </trkpt>
      <trkpt lat="45.55095" lon="6.00121">
        <ele>852.83</ele>
        <time>2020-07-26T12:06:53Z</time>
      </trkpt>
      <trkpt lat="45.55095" lon="6.00121">
        <ele>852.83</ele>
        <time>2020-07-26T12:06:54Z</time>
      </trkpt>
      <trkpt lat="45.55095" lon="6.00121">
        <ele>852.83</ele>
        <time>2020-07-26T12:06:55Z</time>
      </trkpt>
      <trkpt lat="45.55095" lon="6.00121">
        <ele>852.83</ele>
        <time>2020-07-26T12:06:56Z</time>
      </trkpt>
      <trkpt lat="45.55095" lon="6.00121">
        <ele>852.83</ele>
        <time>2020-07-26T12:06:57Z</time>
      </trkpt>
      <trkpt lat="45.55095" lon="6.00121">
        <ele>852.83</ele>
        <time>2020-07-26T12:06:58Z</time>
      </trkpt>
      <trkpt lat="45.55095" lon="6.00121">
        <ele>852.83</ele>
        <time>2020-07-26T12:06:59Z</time>
      </trkpt>
      <trkpt lat="45.55095" lon="6.00121">
        <ele>852.83</ele>
        <time>2020-07-26T12:07:00Z</time>
      </trkpt>
      <trkpt lat="45.55095" lon="6.00121">
        <ele>852.83</ele>
        <time>2020-07-26T12:07:01Z</time>
      </trkpt>
      <trkpt lat="45.55095" lon="6.00121">
        <ele>852.83</ele>
        <time>2020-07-26T12:07:02Z</time>
      </trkpt>
      <trkpt lat="45.55095" lon="6.00121">
        <ele>852.83</ele>
        <time>2020-07-26T12:07:03Z</time>
      </trkpt>
      <trkpt lat="45.55095" lon="6.00121">
        <ele>852.83</ele>
        <time>2020-07-26T12:07:04Z</time>
      </trkpt>
      <trkpt lat="45.55095" lon="6.00121">
        <ele>852.83</ele>
        <time>2020-07-26T12:07:05Z</time>
      </trkpt>
      <trkpt lat="45.55095" lon="6.00121">
        <ele>852.83</ele>
        <time>2020-07-26T12:07:06Z</time>
      </trkpt>
      <trkpt lat="45.55095" lon="6.00121">
        <ele>852.83</ele>
        <time>2020-07-26T12:07:07Z</time>
      </trkpt>
      <trkpt lat="45.55095" lon="6.00121">
        <ele>852.83</ele>
        <time>2020-07-26T12:07:08Z</time>
      </trkpt>
      <trkpt lat="45.55095" lon="6.00121">
        <ele>852.83</ele>
        <time>2020-07-26T12:07:09Z</time>
      </trkpt>
      <trkpt lat="45.55095" lon="6.00121">
        <ele>852.83</ele>
        <time>2020-07-26T12:07:10Z</time>
      </trkpt>
      <trkpt lat="45.55095" lon="6.00121">
        <ele>852.83</ele>
        <time>2020-07-26T12:07:11Z</time>
      </trkpt>
      <trkpt lat="45.55095" lon="6.00121">
        <ele>852.83</ele>
        <time>2020-07-26T12:07:12Z</time>
      </trkpt>
      <trkpt lat="45.55095" lon="6.00121">
        <ele>852.83</ele>
        <time>2020-07-26T12:07:13Z</time>
      </trkpt>
      <trkpt lat="45.55095" lon="6.00121">
        <ele>852.83</ele>
        <time>2020-07-26T12:07:14Z</time>
      </trkpt>
      <trkpt lat="45.55095" lon="6.00121">
        <ele>852.83</ele>
        <time>2020-07-26T12:07:15Z</time>
      </trkpt>
      <trkpt lat="45.55095" lon="6.00121">
        <ele>852.83</ele>
        <time>2020-07-26T12:07:16Z</time>
      </trkpt>
      <trkpt lat="45.55095" lon="6.00121">
        <ele>852.83</ele>
        <time>2020-07-26T12:07:17Z</time>
      </trkpt>
      <trkpt lat="45.55095" lon="6.00121">
        <ele>852.83</ele>
        <time>2020-07-26T12:07:18Z</time>
      </trkpt>
      <trkpt lat="45.55095" lon="6.00121">
        <ele>852.83</ele>
        <time>2020-07-26T12:07:19Z</time>
      </trkpt>
      <trkpt lat="45.55095" lon="6.00121">
        <ele>852.83</ele>
        <time>2020-07-26T12:07:20Z</time>
      </trkpt>
      <trkpt lat="45.55095" lon="6.00121">
        <ele>852.83</ele>
        <time>2020-07-26T12:07:21Z</time>
      </trkpt>
      <trkpt lat="45.55095" lon="6.00121">
        <ele>852.83</ele>
        <time>2020-07-26T12:07:22Z</time>
      </trkpt>
      <trkpt lat="45.55095" lon="6.00121">
        <ele>852.83</ele>
        <time>2020-07-26T12:07:23Z</time>
      </trkpt>
      <trkpt lat="45.55095" lon="6.00121">
        <ele>852.83</ele>
        <time>2020-07-26T12:07:24Z</time>
      </trkpt>
      <trkpt lat="45.55095" lon="6.00121">
        <ele>852.83</ele>
        <time>2020-07-26T12:07:25Z</time>
      </trkpt>
      <trkpt lat="45.55095" lon="6.00121">
        <ele>852.83</ele>
        <time>2020-07-26T12:07:26Z</time>
      </trkpt>
      <trkpt lat="45.55095" lon="6.00121">
        <ele>852.83</ele>
        <time>2020-07-26T12:07:27Z</time>
      </trkpt>
      <trkpt lat="45.55095" lon="6.00121">
        <ele>852.83</ele>
        <time>2020-07-26T12:07:28Z</time>
      </trkpt>
      <trkpt lat="45.55095" lon="6.00121">
        <ele>852.83</ele>
        <time>2020-07-26T12:07:29Z</time>
      </trkpt>
      <trkpt lat="45.55095" lon="6.00121">
        <ele>852.83</ele>
        <time>2020-07-26T12:07:30Z</time>
      </trkpt>
      <trkpt lat="45.55095" lon="6.00121">
        <ele>852.83</ele>
        <time>2020-07-26T12:07:31Z</time>
      </trkpt>
      <trkpt lat="45.55095" lon="6.00121">
        <ele>852.83</ele>
        <time>2020-07-26T12:07:32Z</time>
      </trkpt>
      <trkpt lat="45.55095" lon="6.00121">
        <ele>852.83</ele>
        <time>2020-07-26T12:07:33Z</time>
      </trkpt>
      <trkpt lat="45.55095" lon="6.00121">
        <ele>852.83</ele>
        <time>2020-07-26T12:07:34Z</time>
      </trkpt>
      <trkpt lat="45.55095" lon="6.00121">
        <ele>852.83</ele>
        <time>2020-07-26T12:07:35Z</time>
      </trkpt>
      <trkpt lat="45.55095" lon="6.00121">
        <ele>852.83</ele>
        <time>2020-07-26T12:07:36Z</time>
      </trkpt>
      <trkpt lat="45.55095" lon="6.00121">
        <ele>852.83</ele>
        <time>2020-07-26T12:07:37Z</time>
      </trkpt>
      <trkpt lat="45.55095" lon="6.00121">
        <ele>852.83</ele>
        <time>2020-07-26T12:07:38Z</time>
      </trkpt>
      <trkpt lat="45.55095" lon="6.00121">
        <ele>852.83</ele>
        <time>2020-07-26T12:07:39Z</time>
      </trkpt>
      <trkpt lat="45.55095" lon="6.00121">
        <ele>852.83</ele>
        <time>2020-07-26T12:07:40Z</time>
      </trkpt>
      <trkpt lat="45.55095" lon="6.00121">
        <ele>852.83</ele>
        <time>2020-07-26T12:07:41Z</time>
      </trkpt>
      <trkpt lat="45.55095" lon="6.00121">
        <ele>852.83</ele>
        <time>2020-07-26T12:07:42Z</time>
      </trkpt>
      <trkpt lat="45.55095" lon="6.00121">
        <ele>852.83</ele>
        <time>2020-07-26T12:07:43Z</time>
      </trkpt>
      <trkpt lat="45.55095" lon="6.00121">
        <ele>852.83</ele>
        <time>2020-07-26T12:07:44Z</time>
      </trkpt>
      <trkpt lat="45.55095" lon="6.00121">
        <ele>852.83</ele>
        <time>2020-07-26T12:07:45Z</time>
      </trkpt>
      <trkpt lat="45.55095" lon="6.00121">
        <ele>852.83</ele>
        <time>2020-07-26T12:07:46Z</time>
      </trkpt>
      <trkpt lat="45.55095" lon="6.00121">
        <ele>852.83</ele>
        <time>2020-07-26T12:07:47Z</time>
      </trkpt>
      <trkpt lat="45.55095" lon="6.00121">
        <ele>852.83</ele>
        <time>2020-07-26T12:07:48Z</time>
      </trkpt>
      <trkpt lat="45.55095" lon="6.00121">
        <ele>852.83</ele>
        <time>2020-07-26T12:07:49Z</time>
      </trkpt>
      <trkpt lat="45.55095" lon="6.00121">
        <ele>852.83</ele>
        <time>2020-07-26T12:07:50Z</time>
      </trkpt>
      <trkpt lat="45.55095" lon="6.00121">
        <ele>852.83</ele>
        <time>2020-07-26T12:07:51Z</time>
      </trkpt>
      <trkpt lat="45.55095" lon="6.00121">
        <ele>852.83</ele>
        <time>2020-07-26T12:07:52Z</time>
      </trkpt>
      <trkpt lat="45.55095" lon="6.00121">
        <ele>852.83</ele>
        <time>2020-07-26T12:07:53Z</time>
      </trkpt>
      <trkpt lat="45.55095" lon="6.00121">
        <ele>852.83</ele>
        <time>2020-07-26T12:07:54Z</time>
      </trkpt>
      <trkpt lat="45.55095" lon="6.00121">
        <ele>852.83</ele>
        <time>2020-07-26T12:07:55Z</time>
      </trkpt>
      <trkpt lat="45.55095" lon="6.00121">
        <ele>852.83</ele>
        <time>2020-07-26T12:07:56Z</time>
      </trkpt>
      <trkpt lat="45.55095" lon="6.00121">
        <ele>852.83</ele>
        <time>2020-07-26T12:07:57Z</time>
      </trkpt>
      <trkpt lat="45.55095" lon="6.00121">
        <ele>852.83</ele>
        <time>2020-07-26T12:07:58Z</time>
      </trkpt>
      <trkpt lat="45.55095" lon="6.00121">
        <ele>852.83</ele>
        <time>2020-07-26T12:07:59Z</time>
      </trkpt>
      <trkpt lat="45.55095" lon="6.00121">
        <ele>852.83</ele>
        <time>2020-07-26T12:08:00Z</time>
      </trkpt>
      <trkpt lat="45.55095" lon="6.00121">
        <ele>852.83</ele>
        <time>2020-07-26T12:08:01Z</time>
      </trkpt>
      <trkpt lat="45.55095" lon="6.00121">
        <ele>852.83</ele>
        <time>2020-07-26T12:08:02Z</time>
      </trkpt>
      <trkpt lat="45.55095" lon="6.00121">
        <ele>852.83</ele>
        <time>2020-07-26T12:08:03Z</time>
      </trkpt>
      <trkpt lat="45.55095" lon="6.00121">
        <ele>852.83</ele>
        <time>2020-07-26T12:08:04Z</time>
      </trkpt>
      <trkpt lat="45.55095" lon="6.00121">
        <ele>852.83</ele>
        <time>2020-07-26T12:08:05Z</time>
      </trkpt>
      <trkpt lat="45.55095" lon="6.00121">
        <ele>852.83</ele>
        <time>2020-07-26T12:08:06Z</time>
      </trkpt>
      <trkpt lat="45.55095" lon="6.00121">
        <ele>852.83</ele>
        <time>2020-07-26T12:08:07Z</time>
      </trkpt>
      <trkpt lat="45.55095" lon="6.00121">
        <ele>852.83</ele>
        <time>2020-07-26T12:08:08Z</time>
      </trkpt>
      <trkpt lat="45.55095" lon="6.00121">
        <ele>852.83</ele>
        <time>2020-07-26T12:08:09Z</time>
      </trkpt>
      <trkpt lat="45.55095" lon="6.00121">
        <ele>852.83</ele>
        <time>2020-07-26T12:08:10Z</time>
      </trkpt>
      <trkpt lat="45.55095" lon="6.00121">
        <ele>852.83</ele>
        <time>2020-07-26T12:08:11Z</time>
      </trkpt>
      <trkpt lat="45.55095" lon="6.00121">
        <ele>852.83</ele>
        <time>2020-07-26T12:08:12Z</time>
      </trkpt>
      <trkpt lat="45.55095" lon="6.00121">
        <ele>852.83</ele>
        <time>2020-07-26T12:08:13Z</time>
      </trkpt>
      <trkpt lat="45.55095" lon="6.00121">
        <ele>852.83</ele>
        <time>2020-07-26T12:08:14Z</time>
      </trkpt>
      <trkpt lat="45.55095" lon="6.00121">
        <ele>852.83</ele>
        <time>2020-07-26T12:08:15Z</time>
      </trkpt>
      <trkpt lat="45.55095" lon="6.00121">
        <ele>852.83</ele>
        <time>2020-07-26T12:08:16Z</time>
      </trkpt>
      <trkpt lat="45.55095" lon="6.00121">
        <ele>852.83</ele>
        <time>2020-07-26T12:08:17Z</time>
      </trkpt>
      <trkpt lat="45.55095" lon="6.00121">
        <ele>852.83</ele>
        <time>2020-07-26T12:08:18Z</time>
      </trkpt>
      <trkpt lat="45.55095" lon="6.00121">
        <ele>852.83</ele>
        <time>2020-07-26T12:08:19Z</time>
      </trkpt>
      <trkpt lat="45.55095" lon="6.00121">
        <ele>852.83</ele>
        <time>2020-07-26T12:08:20Z</time>
      </trkpt>
      <trkpt lat="45.55095" lon="6.00121">
        <ele>852.83</ele>
        <time>2020-07-26T12:08:21Z</time>
      </trkpt>
      <trkpt lat="45.55095" lon="6.00121">
        <ele>852.83</ele>
        <time>2020-07-26T12:08:22Z</time>
      </trkpt>
      <trkpt lat="45.55095" lon="6.00121">
        <ele>852.83</ele>
        <time>2020-07-26T12:08:23Z</time>
      </trkpt>
      <trkpt lat="45.55095" lon="6.00121">
        <ele>852.83</ele>
        <time>2020-07-26T12:08:24Z</time>
      </trkpt>
      <trkpt lat="45.55095" lon="6.00121">
        <ele>852.83</ele>
        <time>2020-07-26T12:08:25Z</time>
      </trkpt>
      <trkpt lat="45.55095" lon="6.00121">
        <ele>852.83</ele>
        <time>2020-07-26T12:08:26Z</time>
      </trkpt>
      <trkpt lat="45.55095" lon="6.00121">
        <ele>852.83</ele>
        <time>2020-07-26T12:08:27Z</time>
      </trkpt>
      <trkpt lat="45.55095" lon="6.00121">
        <ele>852.83</ele>
        <time>2020-07-26T12:08:28Z</time>
      </trkpt>
      <trkpt lat="45.55095" lon="6.00121">
        <ele>852.83</ele>
        <time>2020-07-26T12:08:29Z</time>
      </trkpt>
      <trkpt lat="45.55095" lon="6.00121">
        <ele>852.83</ele>
        <time>2020-07-26T12:08:30Z</time>
      </trkpt>
      <trkpt lat="45.55095" lon="6.00121">
        <ele>852.83</ele>
        <time>2020-07-26T12:08:31Z</time>
      </trkpt>
      <trkpt lat="45.55095" lon="6.00121">
        <ele>852.83</ele>
        <time>2020-07-26T12:08:32Z</time>
      </trkpt>
      <trkpt lat="45.55095" lon="6.00121">
        <ele>852.83</ele>
        <time>2020-07-26T12:08:33Z</time>
      </trkpt>
      <trkpt lat="45.55095" lon="6.00121">
        <ele>852.83</ele>
        <time>2020-07-26T12:08:34Z</time>
      </trkpt>
      <trkpt lat="45.55095" lon="6.00121">
        <ele>852.83</ele>
        <time>2020-07-26T12:08:35Z</time>
      </trkpt>
      <trkpt lat="45.55095" lon="6.00121">
        <ele>852.83</ele>
        <time>2020-07-26T12:08:36Z</time>
      </trkpt>
      <trkpt lat="45.55095" lon="6.00121">
        <ele>852.83</ele>
        <time>2020-07-26T12:08:37Z</time>
      </trkpt>
      <trkpt lat="45.55095" lon="6.00121">
        <ele>852.83</ele>
        <time>2020-07-26T12:08:38Z</time>
      </trkpt>
      <trkpt lat="45.55095" lon="6.00121">
        <ele>852.83</ele>
        <time>2020-07-26T12:08:39Z</time>
      </trkpt>
      <trkpt lat="45.55095" lon="6.00121">
        <ele>852.83</ele>
        <time>2020-07-26T12:08:40Z</time>
      </trkpt>
      <trkpt lat="45.55095" lon="6.00121">
        <ele>852.83</ele>
        <time>2020-07-26T12:08:41Z</time>
      </trkpt>
      <trkpt lat="45.55095" lon="6.00121">
        <ele>852.83</ele>
        <time>2020-07-26T12:08:42Z</time>
      </trkpt>
      <trkpt lat="45.55095" lon="6.00121">
        <ele>852.83</ele>
        <time>2020-07-26T12:08:43Z</time>
      </trkpt>
      <trkpt lat="45.55095" lon="6.00121">
        <ele>852.83</ele>
        <time>2020-07-26T12:08:44Z</time>
      </trkpt>
      <trkpt lat="45.55095" lon="6.00121">
        <ele>852.83</ele>
        <time>2020-07-26T12:08:45Z</time>
      </trkpt>
      <trkpt lat="45.55095" lon="6.00121">
        <ele>852.83</ele>
        <time>2020-07-26T12:08:46Z</time>
      </trkpt>
      <trkpt lat="45.55095" lon="6.00121">
        <ele>852.83</ele>
        <time>2020-07-26T12:08:47Z</time>
      </trkpt>
      <trkpt lat="45.55095" lon="6.00121">
        <ele>852.83</ele>
        <time>2020-07-26T12:08:48Z</time>
      </trkpt>
      <trkpt lat="45.55095" lon="6.00121">
        <ele>852.83</ele>
        <time>2020-07-26T12:08:49Z</time>
      </trkpt>
      <trkpt lat="45.55095" lon="6.00121">
        <ele>852.83</ele>
        <time>2020-07-26T12:08:50Z</time>
      </trkpt>
      <trkpt lat="45.55095" lon="6.00121">
        <ele>852.83</ele>
        <time>2020-07-26T12:08:51Z</time>
      </trkpt>
      <trkpt lat="45.55095" lon="6.00121">
        <ele>852.83</ele>
        <time>2020-07-26T12:08:52Z</time>
      </trkpt>
      <trkpt lat="45.55095" lon="6.00121">
        <ele>852.83</ele>
        <time>2020-07-26T12:08:53Z</time>
      </trkpt>
      <trkpt lat="45.55095" lon="6.00121">
        <ele>852.83</ele>
        <time>2020-07-26T12:08:54Z</time>
      </trkpt>
      <trkpt lat="45.55095" lon="6.00121">
        <ele>852.83</ele>
        <time>2020-07-26T12:08:55Z</time>
      </trkpt>
      <trkpt lat="45.55095" lon="6.00121">
        <ele>852.83</ele>
        <time>2020-07-26T12:08:56Z</time>
      </trkpt>
      <trkpt lat="45.55095" lon="6.00121">
        <ele>852.83</ele>
        <time>2020-07-26T12:08:57Z</time>
      </trkpt>
      <trkpt lat="45.55095" lon="6.00121">
        <ele>852.83</ele>
        <time>2020-07-26T12:08:58Z</time>
      </trkpt>
      <trkpt lat="45.55095" lon="6.00121">
        <ele>852.83</ele>
        <time>2020-07-26T12:08:59Z</time>
      </trkpt>
      <trkpt lat="45.55095" lon="6.00121">
        <ele>852.83</ele>
        <time>2020-07-26T12:09:00Z</time>
      </trkpt>
      <trkpt lat="45.55095" lon="6.00121">
        <ele>852.83</ele>
        <time>2020-07-26T12:09:01Z</time>
      </trkpt>
      <trkpt lat="45.55095" lon="6.00121">
        <ele>852.83</ele>
        <time>2020-07-26T12:09:02Z</time>
      </trkpt>
      <trkpt lat="45.55095" lon="6.00121">
        <ele>852.83</ele>
        <time>2020-07-26T12:09:03Z</time>
      </trkpt>
      <trkpt lat="45.55095" lon="6.00121">
        <ele>852.83</ele>
        <time>2020-07-26T12:09:04Z</time>
      </trkpt>
      <trkpt lat="45.55095" lon="6.00121">
        <ele>852.83</ele>
        <time>2020-07-26T12:09:05Z</time>
      </trkpt>
      <trkpt lat="45.55095" lon="6.00121">
        <ele>852.83</ele>
        <time>2020-07-26T12:09:06Z</time>
      </trkpt>
      <trkpt lat="45.55095" lon="6.00121">
        <ele>852.83</ele>
        <time>2020-07-26T12:09:07Z</time>
      </trkpt>
      <trkpt lat="45.55095" lon="6.00121">
        <ele>852.83</ele>
        <time>2020-07-26T12:09:08Z</time>
      </trkpt>
      <trkpt lat="45.55095" lon="6.00121">
        <ele>852.83</ele>
        <time>2020-07-26T12:09:09Z</time>
      </trkpt>
      <trkpt lat="45.55095" lon="6.00121">
        <ele>852.83</ele>
        <time>2020-07-26T12:09:10Z</time>
      </trkpt>
      <trkpt lat="45.55095" lon="6.00121">
        <ele>852.83</ele>
        <time>2020-07-26T12:09:11Z</time>
      </trkpt>
      <trkpt lat="45.55095" lon="6.00121">
        <ele>852.83</ele>
        <time>2020-07-26T12:09:12Z</time>
      </trkpt>
      <trkpt lat="45.55095" lon="6.00121">
        <ele>852.83</ele>
        <time>2020-07-26T12:09:13Z</time>
      </trkpt>
      <trkpt lat="45.55095" lon="6.00121">
        <ele>852.83</ele>
        <time>2020-07-26T12:09:14Z</time>
      </trkpt>
      <trkpt lat="45.55095" lon="6.00121">
        <ele>852.83</ele>
        <time>2020-07-26T12:09:15Z</time>
      </trkpt>
      <trkpt lat="45.55095" lon="6.00121">
        <ele>852.83</ele>
        <time>2020-07-26T12:09:16Z</time>
      </trkpt>
      <trkpt lat="45.55095" lon="6.00121">
        <ele>852.83</ele>
        <time>2020-07-26T12:09:17Z</time>
      </trkpt>
      <trkpt lat="45.55095" lon="6.00121">
        <ele>852.83</ele>
        <time>2020-07-26T12:09:18Z</time>
      </trkpt>
      <trkpt lat="45.55095" lon="6.00121">
        <ele>852.83</ele>
        <time>2020-07-26T12:09:19Z</time>
      </trkpt>
      <trkpt lat="45.55095" lon="6.00121">
        <ele>852.83</ele>
        <time>2020-07-26T12:09:20Z</time>
      </trkpt>
      <trkpt lat="45.55095" lon="6.00121">
        <ele>852.83</ele>
        <time>2020-07-26T12:09:21Z</time>
      </trkpt>
      <trkpt lat="45.55095" lon="6.00121">
        <ele>852.83</ele>
        <time>2020-07-26T12:09:22Z</time>
      </trkpt>
      <trkpt lat="45.55095" lon="6.00121">
        <ele>852.83</ele>
        <time>2020-07-26T12:09:23Z</time>
      </trkpt>
      <trkpt lat="45.55095" lon="6.00121">
        <ele>852.83</ele>
        <time>2020-07-26T12:09:24Z</time>
      </trkpt>
      <trkpt lat="45.55095" lon="6.00121">
        <ele>852.83</ele>
        <time>2020-07-26T12:09:25Z</time>
      </trkpt>
      <trkpt lat="45.55095" lon="6.00121">
        <ele>852.83</ele>
        <time>2020-07-26T12:09:26Z</time>
      </trkpt>
      <trkpt lat="45.55095" lon="6.00121">
        <ele>852.83</ele>
        <time>2020-07-26T12:09:27Z</time>
      </trkpt>
      <trkpt lat="45.55095" lon="6.00121">
        <ele>852.83</ele>
        <time>2020-07-26T12:09:28Z</time>
      </trkpt>
      <trkpt lat="45.55095" lon="6.00121">
        <ele>852.83</ele>
        <time>2020-07-26T12:09:29Z</time>
      </trkpt>
      <trkpt lat="45.55095" lon="6.00121">
        <ele>852.83</ele>
        <time>2020-07-26T12:09:30Z</time>
      </trkpt>
      <trkpt lat="45.55095" lon="6.00121">
        <ele>852.83</ele>
        <time>2020-07-26T12:09:31Z</time>
      </trkpt>
      <trkpt lat="45.55095" lon="6.00121">
        <ele>852.83</ele>
        <time>2020-07-26T12:09:32Z</time>
      </trkpt>
      <trkpt lat="45.55095" lon="6.00121">
        <ele>852.83</ele>
        <time>2020-07-26T12:09:33Z</time>
      </trkpt>
      <trkpt lat="45.55095" lon="6.00121">
        <ele>852.83</ele>
        <time>2020-07-26T12:09:34Z</time>
      </trkpt>
      <trkpt lat="45.55095" lon="6.00121">
        <ele>852.83</ele>
        <time>2020-07-26T12:09:35Z</time>
      </trkpt>
      <trkpt lat="45.55095" lon="6.00121">
        <ele>852.83</ele>
        <time>2020-07-26T12:09:36Z</time>
      </trkpt>
      <trkpt lat="45.55095" lon="6.00121">
        <ele>852.83</ele>
        <time>2020-07-26T12:09:37Z</time>
      </trkpt>
      <trkpt lat="45.55095" lon="6.00121">
        <ele>852.83</ele>
        <time>2020-07-26T12:09:38Z</time>
      </trkpt>
      <trkpt lat="45.55095" lon="6.00121">
        <ele>852.83</ele>
        <time>2020-07-26T12:09:39Z</time>
      </trkpt>
      <trkpt lat="45.55095" lon="6.00121">
        <ele>852.83</ele>
        <time>2020-07-26T12:09:40Z</time>
      </trkpt>
      <trkpt lat="45.55095" lon="6.00121">
        <ele>852.83</ele>
        <time>2020-07-26T12:09:41Z</time>
      </trkpt>
      <trkpt lat="45.55095" lon="6.00121">
        <ele>852.83</ele>
        <time>2020-07-26T12:09:42Z</time>
      </trkpt>
      <trkpt lat="45.55095" lon="6.00121">
        <ele>852.83</ele>
        <time>2020-07-26T12:09:43Z</time>
      </trkpt>
      <trkpt lat="45.55095" lon="6.00121">
        <ele>852.83</ele>
        <time>2020-07-26T12:09:44Z</time>
      </trkpt>
      <trkpt lat="45.55095" lon="6.00121">
        <ele>852.83</ele>
        <time>2020-07-26T12:09:45Z</time>
      </trkpt>
      <trkpt lat="45.55095" lon="6.00121">
        <ele>852.83</ele>
        <time>2020-07-26T12:09:46Z</time>
      </trkpt>
      <trkpt lat="45.55095" lon="6.00121">
        <ele>852.83</ele>
        <time>2020-07-26T12:09:47Z</time>
      </trkpt>
      <trkpt lat="45.55095" lon="6.00121">
        <ele>852.83</ele>
        <time>2020-07-26T12:09:48Z</time>
      </trkpt>
      <trkpt lat="45.55095" lon="6.00121">
        <ele>852.83</ele>
        <time>2020-07-26T12:09:49Z</time>
      </trkpt>
      <trkpt lat="45.55095" lon="6.00121">
        <ele>852.83</ele>
        <time>2020-07-26T12:09:50Z</time>
      </trkpt>
      <trkpt lat="45.55095" lon="6.00121">
        <ele>852.83</ele>
        <time>2020-07-26T12:09:51Z</time>
      </trkpt>
      <trkpt lat="45.55095" lon="6.00121">
        <ele>852.83</ele>
        <time>2020-07-26T12:09:52Z</time>
      </trkpt>
      <trkpt lat="45.55095" lon="6.00121">
        <ele>852.83</ele>
        <time>2020-07-26T12:09:53Z</time>
      </trkpt>
      <trkpt lat="45.55095" lon="6.00121">
        <ele>852.83</ele>
        <time>2020-07-26T12:09:54Z</time>
      </trkpt>
      <trkpt lat="45.55095" lon="6.00121">
        <ele>852.83</ele>
        <time>2020-07-26T12:09:55Z</time>
      </trkpt>
      <trkpt lat="45.55095" lon="6.00121">
        <ele>852.83</ele>
        <time>2020-07-26T12:09:56Z</time>
      </trkpt>
      <trkpt lat="45.55095" lon="6.00121">
        <ele>852.83</ele>
        <time>2020-07-26T12:09:57Z</time>
      </trkpt>
      <trkpt lat="45.55095" lon="6.00121">
        <ele>852.83</ele>
        <time>2020-07-26T12:09:58Z</time>
      </trkpt>
      <trkpt lat="45.55095" lon="6.00121">
        <ele>852.83</ele>
        <time>2020-07-26T12:09:59Z</time>
      </trkpt>
      <trkpt lat="45.55095" lon="6.00121">
        <ele>852.83</ele>
        <time>2020-07-26T12:10:00Z</time>
      </trkpt>
      <trkpt lat="45.55095" lon="6.00121">
        <ele>852.83</ele>
        <time>2020-07-26T12:10:01Z</time>
      </trkpt>
      <trkpt lat="45.55095" lon="6.00121">
        <ele>852.83</ele>
        <time>2020-07-26T12:10:02Z</time>
      </trkpt>
      <trkpt lat="45.55095" lon="6.00121">
        <ele>852.83</ele>
        <time>2020-07-26T12:10:03Z</time>
      </trkpt>
      <trkpt lat="45.55095" lon="6.00121">
        <ele>852.83</ele>
        <time>2020-07-26T12:10:04Z</time>
      </trkpt>
      <trkpt lat="45.55095" lon="6.00121">
        <ele>852.83</ele>
        <time>2020-07-26T12:10:05Z</time>
      </trkpt>
      <trkpt lat="45.55095" lon="6.00121">
        <ele>852.83</ele>
        <time>2020-07-26T12:10:06Z</time>
      </trkpt>
      <trkpt lat="45.55095" lon="6.00121">
        <ele>852.83</ele>
        <time>2020-07-26T12:10:07Z</time>
      </trkpt>
      <trkpt lat="45.55095" lon="6.00121">
        <ele>852.83</ele>
        <time>2020-07-26T12:10:08Z</time>
      </trkpt>
      <trkpt lat="45.55095" lon="6.00121">
        <ele>852.83</ele>
        <time>2020-07-26T12:10:09Z</time>
      </trkpt>
      <trkpt lat="45.55095" lon="6.00121">
        <ele>852.83</ele>
        <time>2020-07-26T12:10:10Z</time>
      </trkpt>
      <trkpt lat="45.55095" lon="6.00121">
        <ele>852.83</ele>
        <time>2020-07-26T12:10:11Z</time>
      </trkpt>
      <trkpt lat="45.55095" lon="6.00121">
        <ele>852.83</ele>
        <time>2020-07-26T12:10:12Z</time>
      </trkpt>
      <trkpt lat="45.55095" lon="6.00121">
        <ele>852.83</ele>
        <time>2020-07-26T12:10:13Z</time>
      </trkpt>
      <trkpt lat="45.55095" lon="6.00121">
        <ele>852.83</ele>
        <time>2020-07-26T12:10:14Z</time>
      </trkpt>
      <trkpt lat="45.55095" lon="6.00121">
        <ele>852.83</ele>
        <time>2020-07-26T12:10:15Z</time>
      </trkpt>
      <trkpt lat="45.55095" lon="6.00121">
        <ele>852.83</ele>
        <time>2020-07-26T12:10:16Z</time>
      </trkpt>
      <trkpt lat="45.55095" lon="6.00121">
        <ele>852.83</ele>
        <time>2020-07-26T12:10:17Z</time>
      </trkpt>
      <trkpt lat="45.55095" lon="6.00121">
        <ele>852.83</ele>
        <time>2020-07-26T12:10:18Z</time>
      </trkpt>
      <trkpt lat="45.55095" lon="6.00121">
        <ele>852.83</ele>
        <time>2020-07-26T12:10:19Z</time>
      </trkpt>
      <trkpt lat="45.55095" lon="6.00121">
        <ele>852.83</ele>
        <time>2020-07-26T12:10:20Z</time>
      </trkpt>
      <trkpt lat="45.55095" lon="6.00121">
        <ele>852.83</ele>
        <time>2020-07-26T12:10:21Z</time>
      </trkpt>
      <trkpt lat="45.55095" lon="6.00121">
        <ele>852.83</ele>
        <time>2020-07-26T12:10:22Z</time>
      </trkpt>
      <trkpt lat="45.55095" lon="6.00121">
        <ele>852.83</ele>
        <time>2020-07-26T12:10:23Z</time>
      </trkpt>
      <trkpt lat="45.55095" lon="6.00121">
        <ele>852.83</ele>
        <time>2020-07-26T12:10:24Z</time>
      </trkpt>
      <trkpt lat="45.55095" lon="6.00121">
        <ele>852.83</ele>
        <time>2020-07-26T12:10:25Z</time>
      </trkpt>
      <trkpt lat="45.55095" lon="6.00121">
        <ele>852.83</ele>
        <time>2020-07-26T12:10:26Z</time>
      </trkpt>
      <trkpt lat="45.55095" lon="6.00121">
        <ele>852.83</ele>
        <time>2020-07-26T12:10:27Z</time>
      </trkpt>
      <trkpt lat="45.55095" lon="6.00121">
        <ele>852.83</ele>
        <time>2020-07-26T12:10:28Z</time>
      </trkpt>
      <trkpt lat="45.55095" lon="6.00121">
        <ele>852.83</ele>
        <time>2020-07-26T12:10:29Z</time>
      </trkpt>
      <trkpt lat="45.55095" lon="6.00121">
        <ele>852.83</ele>
        <time>2020-07-26T12:10:30Z</time>
      </trkpt>
      <trkpt lat="45.55095" lon="6.00121">
        <ele>852.83</ele>
        <time>2020-07-26T12:10:31Z</time>
      </trkpt>
      <trkpt lat="45.55095" lon="6.00121">
        <ele>852.83</ele>
        <time>2020-07-26T12:10:32Z</time>
      </trkpt>
      <trkpt lat="45.55095" lon="6.00121">
        <ele>852.83</ele>
        <time>2020-07-26T12:10:33Z</time>
      </trkpt>
      <trkpt lat="45.55095" lon="6.00121">
        <ele>852.83</ele>
        <time>2020-07-26T12:10:34Z</time>
      </trkpt>
      <trkpt lat="45.55095" lon="6.00121">
        <ele>852.83</ele>
        <time>2020-07-26T12:10:35Z</time>
      </trkpt>
      <trkpt lat="45.55095" lon="6.00121">
        <ele>852.83</ele>
        <time>2020-07-26T12:10:36Z</time>
      </trkpt>
      <trkpt lat="45.55095" lon="6.00121">
        <ele>852.83</ele>
        <time>2020-07-26T12:10:37Z</time>
      </trkpt>
      <trkpt lat="45.55095" lon="6.00121">
        <ele>852.83</ele>
        <time>2020-07-26T12:10:38Z</time>
      </trkpt>
      <trkpt lat="45.55095" lon="6.00121">
        <ele>852.83</ele>
        <time>2020-07-26T12:10:39Z</time>
      </trkpt>
      <trkpt lat="45.55095" lon="6.00121">
        <ele>852.83</ele>
        <time>2020-07-26T12:10:40Z</time>
      </trkpt>
      <trkpt lat="45.55095" lon="6.00121">
        <ele>852.83</ele>
        <time>2020-07-26T12:10:41Z</time>
      </trkpt>
      <trkpt lat="45.55095" lon="6.00121">
        <ele>852.83</ele>
        <time>2020-07-26T12:10:42Z</time>
      </trkpt>
      <trkpt lat="45.55095" lon="6.00121">
        <ele>852.83</ele>
        <time>2020-07-26T12:10:43Z</time>
      </trkpt>
      <trkpt lat="45.55095" lon="6.00121">
        <ele>852.83</ele>
        <time>2020-07-26T12:10:44Z</time>
      </trkpt>
      <trkpt lat="45.55095" lon="6.00121">
        <ele>852.83</ele>
        <time>2020-07-26T12:10:45Z</time>
      </trkpt>
      <trkpt lat="45.55095" lon="6.00121">
        <ele>852.83</ele>
        <time>2020-07-26T12:10:46Z</time>
      </trkpt>
      <trkpt lat="45.55095" lon="6.00121">
        <ele>852.83</ele>
        <time>2020-07-26T12:10:47Z</time>
      </trkpt>
      <trkpt lat="45.55095" lon="6.00121">
        <ele>852.83</ele>
        <time>2020-07-26T12:10:48Z</time>
      </trkpt>
      <trkpt lat="45.55095" lon="6.00121">
        <ele>852.83</ele>
        <time>2020-07-26T12:10:49Z</time>
      </trkpt>
      <trkpt lat="45.55095" lon="6.00121">
        <ele>852.83</ele>
        <time>2020-07-26T12:10:50Z</time>
      </trkpt>
      <trkpt lat="45.55095" lon="6.00121">
        <ele>852.83</ele>
        <time>2020-07-26T12:10:51Z</time>
      </trkpt>
      <trkpt lat="45.55095" lon="6.00121">
        <ele>852.83</ele>
        <time>2020-07-26T12:10:52Z</time>
      </trkpt>
      <trkpt lat="45.55095" lon="6.00121">
        <ele>852.83</ele>
        <time>2020-07-26T12:10:53Z</time>
      </trkpt>
      <trkpt lat="45.55095" lon="6.00121">
        <ele>852.83</ele>
        <time>2020-07-26T12:10:54Z</time>
      </trkpt>
      <trkpt lat="45.55095" lon="6.00121">
        <ele>852.83</ele>
        <time>2020-07-26T12:10:55Z</time>
      </trkpt>
      <trkpt lat="45.55095" lon="6.00121">
        <ele>852.83</ele>
        <time>2020-07-26T12:10:56Z</time>
      </trkpt>
      <trkpt lat="45.55095" lon="6.00121">
        <ele>852.83</ele>
        <time>2020-07-26T12:10:57Z</time>
      </trkpt>
      <trkpt lat="45.55095" lon="6.00121">
        <ele>852.83</ele>
        <time>2020-07-26T12:10:58Z</time>
      </trkpt>
      <trkpt lat="45.55095" lon="6.00121">
        <ele>852.83</ele>
        <time>2020-07-26T12:10:59Z</time>
      </trkpt>
      <trkpt lat="45.55095" lon="6.00121">
        <ele>852.83</ele>
        <time>2020-07-26T12:11:00Z</time>
      </trkpt>
      <trkpt lat="45.55095" lon="6.00121">
        <ele>852.83</ele>
        <time>2020-07-26T12:11:01Z</time>
      </trkpt>
      <trkpt lat="45.55095" lon="6.00121">
        <ele>852.83</ele>
        <time>2020-07-26T12:11:02Z</time>
      </trkpt>
      <trkpt lat="45.55095" lon="6.00121">
        <ele>852.83</ele>
        <time>2020-07-26T12:11:03Z</time>
      </trkpt>
      <trkpt lat="45.55095" lon="6.00121">
        <ele>852.83</ele>
        <time>2020-07-26T12:11:04Z</time>
      </trkpt>
      <trkpt lat="45.55095" lon="6.00121">
        <ele>852.83</ele>
        <time>2020-07-26T12:11:05Z</time>
      </trkpt>
      <trkpt lat="45.55095" lon="6.00121">
        <ele>852.83</ele>
        <time>2020-07-26T12:11:06Z</time>
      </trkpt>
      <trkpt lat="45.55095" lon="6.00121">
        <ele>852.83</ele>
        <time>2020-07-26T12:11:07Z</time>
      </trkpt>
      <trkpt lat="45.55095" lon="6.00121">
        <ele>852.83</ele>
        <time>2020-07-26T12:11:08Z</time>
      </trkpt>
      <trkpt lat="45.55095" lon="6.00121">
        <ele>852.83</ele>
        <time>2020-07-26T12:11:09Z</time>
      </trkpt>
      <trkpt lat="45.55095" lon="6.00121">
        <ele>852.83</ele>
        <time>2020-07-26T12:11:10Z</time>
      </trkpt>
      <trkpt lat="45.55095" lon="6.00121">
        <ele>852.83</ele>
        <time>2020-07-26T12:11:11Z</time>
      </trkpt>
      <trkpt lat="45.55095" lon="6.00121">
        <ele>852.83</ele>
        <time>2020-07-26T12:11:12Z</time>
      </trkpt>
      <trkpt lat="45.55095" lon="6.00121">
        <ele>852.83</ele>
        <time>2020-07-26T12:11:13Z</time>
      </trkpt>
      <trkpt lat="45.55095" lon="6.00121">
        <ele>852.83</ele>
        <time>2020-07-26T12:11:14Z</time>
      </trkpt>
      <trkpt lat="45.55095" lon="6.00121">
        <ele>852.83</ele>
        <time>2020-07-26T12:11:15Z</time>
      </trkpt>
      <trkpt lat="45.55095" lon="6.00121">
        <ele>852.83</ele>
        <time>2020-07-26T12:11:16Z</time>
      </trkpt>
      <trkpt lat="45.55095" lon="6.00121">
        <ele>852.83</ele>
        <time>2020-07-26T12:11:17Z</time>
      </trkpt>
      <trkpt lat="45.55095" lon="6.00121">
        <ele>852.83</ele>
        <time>2020-07-26T12:11:18Z</time>
      </trkpt>
      <trkpt lat="45.55095" lon="6.00121">
        <ele>852.83</ele>
        <time>2020-07-26T12:11:19Z</time>
      </trkpt>
      <trkpt lat="45.55095" lon="6.00121">
        <ele>852.83</ele>
        <time>2020-07-26T12:11:20Z</time>
      </trkpt>
      <trkpt lat="45.55095" lon="6.00121">
        <ele>852.83</ele>
        <time>2020-07-26T12:11:21Z</time>
      </trkpt>
      <trkpt lat="45.55095" lon="6.00121">
        <ele>852.83</ele>
        <time>2020-07-26T12:11:22Z</time>
      </trkpt>
      <trkpt lat="45.55095" lon="6.00121">
        <ele>852.83</ele>
        <time>2020-07-26T12:11:23Z</time>
      </trkpt>
      <trkpt lat="45.55095" lon="6.00121">
        <ele>852.83</ele>
        <time>2020-07-26T12:11:24Z</time>
      </trkpt>
      <trkpt lat="45.55095" lon="6.00121">
        <ele>852.83</ele>
        <time>2020-07-26T12:11:25Z</time>
      </trkpt>
      <trkpt lat="45.55095" lon="6.00121">
        <ele>852.83</ele>
        <time>2020-07-26T12:11:26Z</time>
      </trkpt>
      <trkpt lat="45.55095" lon="6.00121">
        <ele>852.83</ele>
        <time>2020-07-26T12:11:27Z</time>
      </trkpt>
      <trkpt lat="45.55095" lon="6.00121">
        <ele>852.83</ele>
        <time>2020-07-26T12:11:28Z</time>
      </trkpt>
      <trkpt lat="45.55095" lon="6.00121">
        <ele>852.83</ele>
        <time>2020-07-26T12:11:29Z</time>
      </trkpt>
      <trkpt lat="45.55095" lon="6.00121">
        <ele>852.83</ele>
        <time>2020-07-26T12:11:30Z</time>
      </trkpt>
      <trkpt lat="45.55095" lon="6.00121">
        <ele>852.83</ele>
        <time>2020-07-26T12:11:31Z</time>
      </trkpt>
      <trkpt lat="45.55095" lon="6.00121">
        <ele>852.83</ele>
        <time>2020-07-26T12:11:32Z</time>
      </trkpt>
      <trkpt lat="45.55095" lon="6.00121">
        <ele>852.83</ele>
        <time>2020-07-26T12:11:33Z</time>
      </trkpt>
      <trkpt lat="45.55095" lon="6.00121">
        <ele>852.83</ele>
        <time>2020-07-26T12:11:34Z</time>
      </trkpt>
      <trkpt lat="45.55095" lon="6.00121">
        <ele>852.83</ele>
        <time>2020-07-26T12:11:35Z</time>
      </trkpt>
      <trkpt lat="45.55095" lon="6.00121">
        <ele>852.83</ele>
        <time>2020-07-26T12:11:36Z</time>
      </trkpt>
      <trkpt lat="45.55095" lon="6.00121">
        <ele>852.83</ele>
        <time>2020-07-26T12:11:37Z</time>
      </trkpt>
      <trkpt lat="45.55095" lon="6.00121">
        <ele>852.83</ele>
        <time>2020-07-26T12:11:38Z</time>
      </trkpt>
      <trkpt lat="45.55095" lon="6.00121">
        <ele>852.83</ele>
        <time>2020-07-26T12:11:39Z</time>
      </trkpt>
      <trkpt lat="45.55095" lon="6.00121">
        <ele>852.83</ele>
        <time>2020-07-26T12:11:40Z</time>
      </trkpt>
      <trkpt lat="45.55095" lon="6.00121">
        <ele>852.83</ele>
        <time>2020-07-26T12:11:41Z</time>
      </trkpt>
      <trkpt lat="45.55095" lon="6.00121">
        <ele>852.83</ele>
        <time>2020-07-26T12:11:42Z</time>
      </trkpt>
      <trkpt lat="45.55095" lon="6.00121">
        <ele>852.83</ele>
        <time>2020-07-26T12:11:43Z</time>
      </trkpt>
      <trkpt lat="45.55095" lon="6.00121">
        <ele>852.83</ele>
        <time>2020-07-26T12:11:44Z</time>
      </trkpt>
      <trkpt lat="45.55095" lon="6.00121">
        <ele>852.83</ele>
        <time>2020-07-26T12:11:45Z</time>
      </trkpt>
      <trkpt lat="45.55095" lon="6.00121">
        <ele>852.83</ele>
        <time>2020-07-26T12:11:46Z</time>
      </trkpt>
      <trkpt lat="45.55095" lon="6.00121">
        <ele>852.83</ele>
        <time>2020-07-26T12:11:47Z</time>
      </trkpt>
      <trkpt lat="45.55095" lon="6.00121">
        <ele>852.83</ele>
        <time>2020-07-26T12:11:48Z</time>
      </trkpt>
      <trkpt lat="45.55095" lon="6.00121">
        <ele>852.83</ele>
        <time>2020-07-26T12:11:49Z</time>
      </trkpt>
      <trkpt lat="45.55095" lon="6.00121">
        <ele>852.83</ele>
        <time>2020-07-26T12:11:50Z</time>
      </trkpt>
      <trkpt lat="45.55095" lon="6.00121">
        <ele>852.83</ele>
        <time>2020-07-26T12:11:51Z</time>
      </trkpt>
      <trkpt lat="45.55095" lon="6.00121">
        <ele>852.83</ele>
        <time>2020-07-26T12:11:52Z</time>
      </trkpt>
      <trkpt lat="45.55095" lon="6.00121">
        <ele>852.83</ele>
        <time>2020-07-26T12:11:53Z</time>
      </trkpt>
      <trkpt lat="45.55095" lon="6.00121">
        <ele>852.83</ele>
        <time>2020-07-26T12:11:54Z</time>
      </trkpt>
      <trkpt lat="45.55095" lon="6.00121">
        <ele>852.83</ele>
        <time>2020-07-26T12:11:55Z</time>
      </trkpt>
      <trkpt lat="45.55095" lon="6.00121">
        <ele>852.83</ele>
        <time>2020-07-26T12:11:56Z</time>
      </trkpt>
      <trkpt lat="45.55095" lon="6.00121">
        <ele>852.83</ele>
        <time>2020-07-26T12:11:57Z</time>
      </trkpt>
      <trkpt lat="45.55095" lon="6.00121">
        <ele>852.83</ele>
        <time>2020-07-26T12:11:58Z</time>
      </trkpt>
      <trkpt lat="45.55095" lon="6.00121">
        <ele>852.83</ele>
        <time>2020-07-26T12:11:59Z</time>
      </trkpt>
      <trkpt lat="45.55095" lon="6.00121">
        <ele>852.83</ele>
        <time>2020-07-26T12:12:00Z</time>
      </trkpt>
      <trkpt lat="45.55095" lon="6.00121">
        <ele>852.83</ele>
        <time>2020-07-26T12:12:01Z</time>
      </trkpt>
      <trkpt lat="45.55095" lon="6.00121">
        <ele>852.83</ele>
        <time>2020-07-26T12:12:02Z</time>
      </trkpt>
      <trkpt lat="45.55095" lon="6.00121">
        <ele>852.83</ele>
        <time>2020-07-26T12:12:03Z</time>
      </trkpt>
      <trkpt lat="45.55095" lon="6.00121">
        <ele>852.83</ele>
        <time>2020-07-26T12:12:04Z</time>
      </trkpt>
      <trkpt lat="45.55095" lon="6.00121">
        <ele>852.83</ele>
        <time>2020-07-26T12:12:05Z</time>
      </trkpt>
      <trkpt lat="45.55095" lon="6.00121">
        <ele>852.83</ele>
        <time>2020-07-26T12:12:06Z</time>
      </trkpt>
      <trkpt lat="45.55095" lon="6.00121">
        <ele>852.83</ele>
        <time>2020-07-26T12:12:07Z</time>
      </trkpt>
      <trkpt lat="45.55095" lon="6.00121">
        <ele>852.83</ele>
        <time>2020-07-26T12:12:08Z</time>
      </trkpt>
      <trkpt lat="45.55095" lon="6.00121">
        <ele>852.83</ele>
        <time>2020-07-26T12:12:09Z</time>
      </trkpt>
      <trkpt lat="45.55095" lon="6.00121">
        <ele>852.83</ele>
        <time>2020-07-26T12:12:10Z</time>
      </trkpt>
      <trkpt lat="45.55095" lon="6.00121">
        <ele>852.83</ele>
        <time>2020-07-26T12:12:11Z</time>
      </trkpt>
      <trkpt lat="45.55095" lon="6.00121">
        <ele>852.83</ele>
        <time>2020-07-26T12:12:12Z</time>
      </trkpt>
      <trkpt lat="45.55095" lon="6.00121">
        <ele>852.83</ele>
        <time>2020-07-26T12:12:13Z</time>
      </trkpt>
      <trkpt lat="45.55095" lon="6.00121">
        <ele>852.83</ele>
        <time>2020-07-26T12:12:14Z</time>
      </trkpt>
      <trkpt lat="45.55095" lon="6.00121">
        <ele>852.83</ele>
        <time>2020-07-26T12:12:15Z</time>
      </trkpt>
      <trkpt lat="45.55095" lon="6.00121">
        <ele>852.83</ele>
        <time>2020-07-26T12:12:16Z</time>
      </trkpt>
      <trkpt lat="45.55095" lon="6.00121">
        <ele>852.83</ele>
        <time>2020-07-26T12:12:17Z</time>
      </trkpt>
      <trkpt lat="45.55095" lon="6.00121">
        <ele>852.83</ele>
        <time>2020-07-26T12:12:18Z</time>
      </trkpt>
      <trkpt lat="45.55095" lon="6.00121">
        <ele>852.83</ele>
        <time>2020-07-26T12:12:19Z</time>
      </trkpt>
      <trkpt lat="45.55095" lon="6.00121">
        <ele>852.83</ele>
        <time>2020-07-26T12:12:20Z</time>
      </trkpt>
      <trkpt lat="45.55095" lon="6.00121">
        <ele>852.83</ele>
        <time>2020-07-26T12:12:21Z</time>
      </trkpt>
      <trkpt lat="45.55095" lon="6.00121">
        <ele>852.83</ele>
        <time>2020-07-26T12:12:22Z</time>
      </trkpt>
      <trkpt lat="45.55095" lon="6.00121">
        <ele>852.83</ele>
        <time>2020-07-26T12:12:23Z</time>
      </trkpt>
      <trkpt lat="45.55095" lon="6.00121">
        <ele>852.83</ele>
        <time>2020-07-26T12:12:24Z</time>
      </trkpt>
      <trkpt lat="45.55095" lon="6.00121">
        <ele>852.83</ele>
        <time>2020-07-26T12:12:25Z</time>
      </trkpt>
      <trkpt lat="45.55095" lon="6.00121">
        <ele>852.83</ele>
        <time>2020-07-26T12:12:26Z</time>
      </trkpt>
      <trkpt lat="45.55095" lon="6.00121">
        <ele>852.83</ele>
        <time>2020-07-26T12:12:27Z</time>
      </trkpt>
      <trkpt lat="45.55095" lon="6.00121">
        <ele>852.83</ele>
        <time>2020-07-26T12:12:28Z</time>
      </trkpt>
      <trkpt lat="45.55095" lon="6.00121">
        <ele>852.83</ele>
        <time>2020-07-26T12:12:29Z</time>
      </trkpt>
      <trkpt lat="45.55095" lon="6.00121">
        <ele>852.83</ele>
        <time>2020-07-26T12:12:30Z</time>
      </trkpt>
      <trkpt lat="45.55095" lon="6.00121">
        <ele>852.83</ele>
        <time>2020-07-26T12:12:31Z</time>
      </trkpt>
      <trkpt lat="45.55095" lon="6.00121">
        <ele>852.83</ele>
        <time>2020-07-26T12:12:32Z</time>
      </trkpt>
      <trkpt lat="45.55095" lon="6.00121">
        <ele>852.83</ele>
        <time>2020-07-26T12:12:33Z</time>
      </trkpt>
      <trkpt lat="45.55095" lon="6.00121">
        <ele>852.83</ele>
        <time>2020-07-26T12:12:34Z</time>
      </trkpt>
      <trkpt lat="45.55095" lon="6.00121">
        <ele>852.83</ele>
        <time>2020-07-26T12:12:35Z</time>
      </trkpt>
      <trkpt lat="45.55095" lon="6.00121">
        <ele>852.83</ele>
        <time>2020-07-26T12:12:36Z</time>
      </trkpt>
      <trkpt lat="45.55095" lon="6.00121">
        <ele>852.83</ele>
        <time>2020-07-26T12:12:37Z</time>
      </trkpt>
      <trkpt lat="45.55095" lon="6.00121">
        <ele>852.83</ele>
        <time>2020-07-26T12:12:38Z</time>
      </trkpt>
      <trkpt lat="45.55095" lon="6.00121">
        <ele>852.83</ele>
        <time>2020-07-26T12:12:39Z</time>
      </trkpt>
      <trkpt lat="45.55095" lon="6.00121">
        <ele>852.83</ele>
        <time>2020-07-26T12:12:40Z</time>
      </trkpt>
      <trkpt lat="45.55095" lon="6.00121">
        <ele>852.83</ele>
        <time>2020-07-26T12:12:41Z</time>
      </trkpt>
      <trkpt lat="45.55095" lon="6.00121">
        <ele>852.83</ele>
        <time>2020-07-26T12:12:42Z</time>
      </trkpt>
      <trkpt lat="45.55095" lon="6.00121">
        <ele>852.83</ele>
        <time>2020-07-26T12:12:43Z</time>
      </trkpt>
      <trkpt lat="45.55095" lon="6.00121">
        <ele>852.83</ele>
        <time>2020-07-26T12:12:44Z</time>
      </trkpt>
      <trkpt lat="45.55095" lon="6.00121">
        <ele>852.83</ele>
        <time>2020-07-26T12:12:45Z</time>
      </trkpt>
      <trkpt lat="45.55095" lon="6.00121">
        <ele>852.83</ele>
        <time>2020-07-26T12:12:46Z</time>
      </trkpt>
      <trkpt lat="45.55095" lon="6.00121">
        <ele>852.83</ele>
        <time>2020-07-26T12:12:47Z</time>
      </trkpt>
      <trkpt lat="45.55095" lon="6.00121">
        <ele>852.83</ele>
        <time>2020-07-26T12:12:48Z</time>
      </trkpt>
      <trkpt lat="45.55095" lon="6.00121">
        <ele>852.83</ele>
        <time>2020-07-26T12:12:49Z</time>
      </trkpt>
      <trkpt lat="45.55095" lon="6.00121">
        <ele>852.83</ele>
        <time>2020-07-26T12:12:50Z</time>
      </trkpt>
      <trkpt lat="45.55095" lon="6.00121">
        <ele>852.83</ele>
        <time>2020-07-26T12:12:51Z</time>
      </trkpt>
      <trkpt lat="45.55095" lon="6.00121">
        <ele>852.83</ele>
        <time>2020-07-26T12:12:52Z</time>
      </trkpt>
      <trkpt lat="45.55095" lon="6.00121">
        <ele>852.83</ele>
        <time>2020-07-26T12:12:53Z</time>
      </trkpt>
      <trkpt lat="45.55095" lon="6.00121">
        <ele>852.83</ele>
        <time>2020-07-26T12:12:54Z</time>
      </trkpt>
      <trkpt lat="45.55095" lon="6.00121">
        <ele>852.83</ele>
        <time>2020-07-26T12:12:55Z</time>
      </trkpt>
      <trkpt lat="45.55095" lon="6.00121">
        <ele>852.83</ele>
        <time>2020-07-26T12:12:56Z</time>
      </trkpt>
      <trkpt lat="45.55095" lon="6.00121">
        <ele>852.83</ele>
        <time>2020-07-26T12:12:57Z</time>
      </trkpt>
      <trkpt lat="45.55095" lon="6.00121">
        <ele>852.83</ele>
        <time>2020-07-26T12:12:58Z</time>
      </trkpt>
      <trkpt lat="45.55095" lon="6.00121">
        <ele>852.83</ele>
        <time>2020-07-26T12:12:59Z</time>
      </trkpt>
      <trkpt lat="45.55095" lon="6.00121">
        <ele>852.83</ele>
        <time>2020-07-26T12:13:00Z</time>
      </trkpt>
      <trkpt lat="45.55095" lon="6.00121">
        <ele>852.83</ele>
        <time>2020-07-26T12:13:01Z</time>
      </trkpt>
      <trkpt lat="45.55095" lon="6.00121">
        <ele>852.83</ele>
        <time>2020-07-26T12:13:02Z</time>
      </trkpt>
      <trkpt lat="45.55095" lon="6.00121">
        <ele>852.83</ele>
        <time>2020-07-26T12:13:03Z</time>
      </trkpt>
      <trkpt lat="45.55095" lon="6.00121">
        <ele>852.83</ele>
        <time>2020-07-26T12:13:04Z</time>
      </trkpt>
      <trkpt lat="45.55095" lon="6.00121">
        <ele>852.83</ele>
        <time>2020-07-26T12:13:05Z</time>
      </trkpt>
      <trkpt lat="45.55095" lon="6.00121">
        <ele>852.83</ele>
        <time>2020-07-26T12:13:06Z</time>
      </trkpt>
      <trkpt lat="45.55095" lon="6.00121">
        <ele>852.83</ele>
        <time>2020-07-26T12:13:07Z</time>
      </trkpt>
      <trkpt lat="45.55095" lon="6.00121">
        <ele>852.83</ele>
        <time>2020-07-26T12:13:08Z</time>
      </trkpt>
      <trkpt lat="45.55095" lon="6.00121">
        <ele>852.83</ele>
        <time>2020-07-26T12:13:09Z</time>
      </trkpt>
      <trkpt lat="45.55095" lon="6.00121">
        <ele>852.83</ele>
        <time>2020-07-26T12:13:10Z</time>
      </trkpt>
      <trkpt lat="45.55095" lon="6.00121">
        <ele>852.83</ele>
        <time>2020-07-26T12:13:11Z</time>
      </trkpt>
      <trkpt lat="45.55095" lon="6.00121">
        <ele>852.83</ele>
        <time>2020-07-26T12:13:12Z</time>
      </trkpt>
      <trkpt lat="45.55095" lon="6.00121">
        <ele>852.83</ele>
        <time>2020-07-26T12:13:13Z</time>
      </trkpt>
      <trkpt lat="45.55095" lon="6.00121">
        <ele>852.83</ele>
        <time>2020-07-26T12:13:14Z</time>
      </trkpt>
      <trkpt lat="45.55095" lon="6.00121">
        <ele>852.83</ele>
        <time>2020-07-26T12:13:15Z</time>
      </trkpt>
      <trkpt lat="45.55095" lon="6.00121">
        <ele>852.83</ele>
        <time>2020-07-26T12:13:16Z</time>
      </trkpt>
      <trkpt lat="45.55095" lon="6.00121">
        <ele>852.83</ele>
        <time>2020-07-26T12:13:17Z</time>
      </trkpt>
      <trkpt lat="45.55095" lon="6.00121">
        <ele>852.83</ele>
        <time>2020-07-26T12:13:18Z</time>
      </trkpt>
      <trkpt lat="45.55095" lon="6.00121">
        <ele>852.83</ele>
        <time>2020-07-26T12:13:19Z</time>
      </trkpt>
      <trkpt lat="45.55095" lon="6.00121">
        <ele>852.83</ele>
        <time>2020-07-26T12:13:20Z</time>
      </trkpt>
      <trkpt lat="45.55095" lon="6.00121">
        <ele>852.83</ele>
        <time>2020-07-26T12:13:21Z</time>
      </trkpt>
      <trkpt lat="45.55095" lon="6.00121">
        <ele>852.83</ele>
        <time>2020-07-26T12:13:22Z</time>
      </trkpt>
      <trkpt lat="45.55095" lon="6.00121">
        <ele>852.83</ele>
        <time>2020-07-26T12:13:23Z</time>
      </trkpt>
      <trkpt lat="45.55095" lon="6.00121">
        <ele>852.83</ele>
        <time>2020-07-26T12:13:24Z</time>
      </trkpt>
      <trkpt lat="45.55095" lon="6.00121">
        <ele>852.83</ele>
        <time>2020-07-26T12:13:25Z</time>
      </trkpt>
      <trkpt lat="45.55095" lon="6.00121">
        <ele>852.83</ele>
        <time>2020-07-26T12:13:26Z</time>
      </trkpt>
      <trkpt lat="45.55095" lon="6.00121">
        <ele>852.83</ele>
        <time>2020-07-26T12:13:27Z</time>
      </trkpt>
      <trkpt lat="45.55095" lon="6.00121">
        <ele>852.83</ele>
        <time>2020-07-26T12:13:28Z</time>
      </trkpt>
      <trkpt lat="45.55095" lon="6.00121">
        <ele>852.83</ele>
        <time>2020-07-26T12:13:29Z</time>
      </trkpt>
      <trkpt lat="45.55095" lon="6.00121">
        <ele>852.83</ele>
        <time>2020-07-26T12:13:30Z</time>
      </trkpt>
      <trkpt lat="45.55095" lon="6.00121">
        <ele>852.83</ele>
        <time>2020-07-26T12:13:31Z</time>
      </trkpt>
      <trkpt lat="45.55095" lon="6.00121">
        <ele>852.83</ele>
        <time>2020-07-26T12:13:32Z</time>
      </trkpt>
      <trkpt lat="45.55095" lon="6.00121">
        <ele>852.83</ele>
        <time>2020-07-26T12:13:33Z</time>
      </trkpt>
      <trkpt lat="45.55095" lon="6.00121">
        <ele>852.83</ele>
        <time>2020-07-26T12:13:34Z</time>
      </trkpt>
      <trkpt lat="45.55095" lon="6.00121">
        <ele>852.83</ele>
        <time>2020-07-26T12:13:35Z</time>
      </trkpt>
      <trkpt lat="45.55095" lon="6.00121">
        <ele>852.83</ele>
        <time>2020-07-26T12:13:36Z</time>
      </trkpt>
      <trkpt lat="45.55095" lon="6.00121">
        <ele>852.83</ele>
        <time>2020-07-26T12:13:37Z</time>
      </trkpt>
      <trkpt lat="45.55095" lon="6.00121">
        <ele>852.83</ele>
        <time>2020-07-26T12:13:38Z</time>
      </trkpt>
      <trkpt lat="45.55095" lon="6.00121">
        <ele>852.83</ele>
        <time>2020-07-26T12:13:39Z</time>
      </trkpt>
      <trkpt lat="45.55095" lon="6.00121">
        <ele>852.83</ele>
        <time>2020-07-26T12:13:40Z</time>
      </trkpt>
      <trkpt lat="45.55095" lon="6.00121">
        <ele>852.83</ele>
        <time>2020-07-26T12:13:41Z</time>
      </trkpt>
      <trkpt lat="45.55095" lon="6.00121">
        <ele>852.83</ele>
        <time>2020-07-26T12:13:42Z</time>
      </trkpt>
      <trkpt lat="45.55095" lon="6.00121">
        <ele>852.83</ele>
        <time>2020-07-26T12:13:43Z</time>
      </trkpt>
      <trkpt lat="45.55095" lon="6.00121">
        <ele>852.83</ele>
        <time>2020-07-26T12:13:44Z</time>
      </trkpt>
      <trkpt lat="45.55095" lon="6.00121">
        <ele>852.83</ele>
        <time>2020-07-26T12:13:45Z</time>
      </trkpt>
      <trkpt lat="45.55095" lon="6.00121">
        <ele>852.83</ele>
        <time>2020-07-26T12:13:46Z</time>
      </trkpt>
      <trkpt lat="45.55095" lon="6.00121">
        <ele>852.83</ele>
        <time>2020-07-26T12:13:47Z</time>
      </trkpt>
      <trkpt lat="45.55095" lon="6.00121">
        <ele>852.83</ele>
        <time>2020-07-26T12:13:48Z</time>
      </trkpt>
      <trkpt lat="45.55095" lon="6.00121">
        <ele>852.83</ele>
        <time>2020-07-26T12:13:49Z</time>
      </trkpt>
      <trkpt lat="45.55095" lon="6.00121">
        <ele>852.83</ele>
        <time>2020-07-26T12:13:50Z</time>
      </trkpt>
      <trkpt lat="45.55095" lon="6.00121">
        <ele>852.83</ele>
        <time>2020-07-26T12:13:51Z</time>
      </trkpt>
      <trkpt lat="45.55095" lon="6.00121">
        <ele>852.83</ele>
        <time>2020-07-26T12:13:52Z</time>
      </trkpt>
      <trkpt lat="45.55095" lon="6.00121">
        <ele>852.83</ele>
        <time>2020-07-26T12:13:53Z</time>
      </trkpt>
      <trkpt lat="45.55095" lon="6.00121">
        <ele>852.83</ele>
        <time>2020-07-26T12:13:54Z</time>
      </trkpt>
      <trkpt lat="45.55095" lon="6.00121">
        <ele>852.83</ele>
        <time>2020-07-26T12:13:55Z</time>
      </trkpt>
      <trkpt lat="45.55095" lon="6.00121">
        <ele>852.83</ele>
        <time>2020-07-26T12:13:56Z</time>
      </trkpt>
      <trkpt lat="45.55095" lon="6.00121">
        <ele>852.83</ele>
        <time>2020-07-26T12:13:57Z</time>
      </trkpt>
      <trkpt lat="45.55095" lon="6.00121">
        <ele>852.83</ele>
        <time>2020-07-26T12:13:58Z</time>
      </trkpt>
      <trkpt lat="45.55095" lon="6.00121">
        <ele>852.83</ele>
        <time>2020-07-26T12:13:59Z</time>
      </trkpt>
      <trkpt lat="45.55095" lon="6.00121">
        <ele>852.83</ele>
        <time>2020-07-26T12:14:00Z</time>
      </trkpt>
      <trkpt lat="45.55095" lon="6.00121">
        <ele>852.83</ele>
        <time>2020-07-26T12:14:01Z</time>
      </trkpt>
      <trkpt lat="45.55095" lon="6.00121">
        <ele>852.83</ele>
        <time>2020-07-26T12:14:02Z</time>
      </trkpt>
      <trkpt lat="45.55095" lon="6.00121">
        <ele>852.83</ele>
        <time>2020-07-26T12:14:03Z</time>
      </trkpt>
      <trkpt lat="45.55095" lon="6.00121">
        <ele>852.83</ele>
        <time>2020-07-26T12:14:04Z</time>
      </trkpt>
      <trkpt lat="45.55095" lon="6.00121">
        <ele>852.83</ele>
        <time>2020-07-26T12:14:05Z</time>
      </trkpt>
      <trkpt lat="45.55095" lon="6.00121">
        <ele>852.83</ele>
        <time>2020-07-26T12:14:06Z</time>
      </trkpt>
      <trkpt lat="45.55095" lon="6.00121">
        <ele>852.83</ele>
        <time>2020-07-26T12:14:07Z</time>
      </trkpt>
      <trkpt lat="45.55095" lon="6.00121">
        <ele>852.83</ele>
        <time>2020-07-26T12:14:08Z</time>
      </trkpt>
      <trkpt lat="45.55095" lon="6.00121">
        <ele>852.83</ele>
        <time>2020-07-26T12:14:09Z</time>
      </trkpt>
      <trkpt lat="45.55095" lon="6.00121">
        <ele>852.83</ele>
        <time>2020-07-26T12:14:10Z</time>
      </trkpt>
      <trkpt lat="45.55095" lon="6.00121">
        <ele>852.83</ele>
        <time>2020-07-26T12:14:11Z</time>
      </trkpt>
      <trkpt lat="45.55095" lon="6.00121">
        <ele>852.83</ele>
        <time>2020-07-26T12:14:12Z</time>
      </trkpt>
      <trkpt lat="45.55095" lon="6.00121">
        <ele>852.83</ele>
        <time>2020-07-26T12:14:13Z</time>
      </trkpt>
      <trkpt lat="45.55095" lon="6.00121">
        <ele>852.83</ele>
        <time>2020-07-26T12:14:14Z</time>
      </trkpt>
      <trkpt lat="45.55095" lon="6.00121">
        <ele>852.83</ele>
        <time>2020-07-26T12:14:15Z</time>
      </trkpt>
      <trkpt lat="45.55095" lon="6.00121">
        <ele>852.83</ele>
        <time>2020-07-26T12:14:16Z</time>
      </trkpt>
      <trkpt lat="45.55095" lon="6.00121">
        <ele>852.83</ele>
        <time>2020-07-26T12:14:17Z</time>
      </trkpt>
      <trkpt lat="45.55095" lon="6.00121">
        <ele>852.83</ele>
        <time>2020-07-26T12:14:18Z</time>
      </trkpt>
      <trkpt lat="45.55095" lon="6.00121">
        <ele>852.83</ele>
        <time>2020-07-26T12:14:19Z</time>
      </trkpt>
      <trkpt lat="45.55095" lon="6.00121">
        <ele>852.83</ele>
        <time>2020-07-26T12:14:20Z</time>
      </trkpt>
      <trkpt lat="45.55095" lon="6.00121">
        <ele>852.83</ele>
        <time>2020-07-26T12:14:21Z</time>
      </trkpt>
      <trkpt lat="45.55095" lon="6.00121">
        <ele>852.83</ele>
        <time>2020-07-26T12:14:22Z</time>
      </trkpt>
      <trkpt lat="45.55095" lon="6.00121">
        <ele>852.83</ele>
        <time>2020-07-26T12:14:23Z</time>
      </trkpt>
      <trkpt lat="45.55095" lon="6.00121">
        <ele>852.83</ele>
        <time>2020-07-26T12:14:24Z</time>
      </trkpt>
      <trkpt lat="45.55095" lon="6.00121">
        <ele>852.83</ele>
        <time>2020-07-26T12:14:25Z</time>
      </trkpt>
      <trkpt lat="45.55095" lon="6.00121">
        <ele>852.83</ele>
        <time>2020-07-26T12:14:26Z</time>
      </trkpt>
      <trkpt lat="45.55095" lon="6.00121">
        <ele>852.83</ele>
        <time>2020-07-26T12:14:27Z</time>
      </trkpt>
      <trkpt lat="45.55095" lon="6.00121">
        <ele>852.83</ele>
        <time>2020-07-26T12:14:28Z</time>
      </trkpt>
      <trkpt lat="45.55095" lon="6.00121">
        <ele>852.83</ele>
        <time>2020-07-26T12:14:29Z</time>
      </trkpt>
      <trkpt lat="45.55095" lon="6.00121">
        <ele>852.83</ele>
        <time>2020-07-26T12:14:30Z</time>
      </trkpt>
      <trkpt lat="45.55095" lon="6.00121">
        <ele>852.83</ele>
        <time>2020-07-26T12:14:31Z</time>
      </trkpt>
      <trkpt lat="45.55095" lon="6.00121">
        <ele>852.83</ele>
        <time>2020-07-26T12:14:32Z</time>
      </trkpt>
      <trkpt lat="45.55095" lon="6.00121">
        <ele>852.83</ele>
        <time>2020-07-26T12:14:33Z</time>
      </trkpt>
      <trkpt lat="45.55095" lon="6.00121">
        <ele>852.83</ele>
        <time>2020-07-26T12:14:34Z</time>
      </trkpt>
      <trkpt lat="45.55095" lon="6.00121">
        <ele>852.83</ele>
        <time>2020-07-26T12:14:35Z</time>
      </trkpt>
      <trkpt lat="45.55095" lon="6.00121">
        <ele>852.83</ele>
        <time>2020-07-26T12:14:36Z</time>
      </trkpt>
      <trkpt lat="45.55095" lon="6.00121">
        <ele>852.83</ele>
        <time>2020-07-26T12:14:37Z</time>
      </trkpt>
      <trkpt lat="45.55095" lon="6.00121">
        <ele>852.83</ele>
        <time>2020-07-26T12:14:38Z</time>
      </trkpt>
      <trkpt lat="45.55095" lon="6.00121">
        <ele>852.83</ele>
        <time>2020-07-26T12:14:39Z</time>
      </trkpt>
      <trkpt lat="45.55095" lon="6.00121">
        <ele>852.83</ele>
        <time>2020-07-26T12:14:40Z</time>
      </trkpt>
      <trkpt lat="45.55095" lon="6.00121">
        <ele>852.83</ele>
        <time>2020-07-26T12:14:41Z</time>
      </trkpt>
      <trkpt lat="45.55095" lon="6.00121">
        <ele>852.83</ele>
        <time>2020-07-26T12:14:42Z</time>
      </trkpt>
      <trkpt lat="45.55095" lon="6.00121">
        <ele>852.83</ele>
        <time>2020-07-26T12:14:43Z</time>
      </trkpt>
      <trkpt lat="45.55095" lon="6.00121">
        <ele>852.83</ele>
        <time>2020-07-26T12:14:44Z</time>
      </trkpt>
      <trkpt lat="45.55095" lon="6.00121">
        <ele>852.83</ele>
        <time>2020-07-26T12:14:45Z</time>
      </trkpt>
      <trkpt lat="45.55095" lon="6.00121">
        <ele>852.83</ele>
        <time>2020-07-26T12:14:46Z</time>
      </trkpt>
      <trkpt lat="45.55095" lon="6.00121">
        <ele>852.83</ele>
        <time>2020-07-26T12:14:47Z</time>
      </trkpt>
      <trkpt lat="45.55095" lon="6.00121">
        <ele>852.83</ele>
        <time>2020-07-26T12:14:48Z</time>
      </trkpt>
      <trkpt lat="45.55095" lon="6.00121">
        <ele>852.83</ele>
        <time>2020-07-26T12:14:49Z</time>
      </trkpt>
      <trkpt lat="45.55095" lon="6.00121">
        <ele>852.83</ele>
        <time>2020-07-26T12:14:50Z</time>
      </trkpt>
      <trkpt lat="45.55095" lon="6.00121">
        <ele>852.83</ele>
        <time>2020-07-26T12:14:51Z</time>
      </trkpt>
      <trkpt lat="45.55095" lon="6.00121">
        <ele>852.83</ele>
        <time>2020-07-26T12:14:52Z</time>
      </trkpt>
      <trkpt lat="45.55095" lon="6.00121">
        <ele>852.83</ele>
        <time>2020-07-26T12:14:53Z</time>
      </trkpt>
      <trkpt lat="45.55095" lon="6.00121">
        <ele>852.83</ele>
        <time>2020-07-26T12:14:54Z</time>
      </trkpt>
      <trkpt lat="45.55088" lon="6.00106">
        <ele>852.83</ele>
        <time>2020-07-26T12:14:56Z</time>
      </trkpt>
      <trkpt lat="45.55088" lon="6.00106">
        <ele>852.83</ele>
        <time>2020-07-26T12:15:27Z</time>
      </trkpt>
      <trkpt lat="45.55088" lon="6.00106">
        <ele>852.83</ele>
        <time>2020-07-26T12:15:28Z</time>
      </trkpt>
      <trkpt lat="45.55088" lon="6.00106">
        <ele>852.83</ele>
        <time>2020-07-26T12:15:29Z</time>
      </trkpt>
      <trkpt lat="45.55088" lon="6.00106">
        <ele>852.83</ele>
        <time>2020-07-26T12:15:30Z</time>
      </trkpt>
      <trkpt lat="45.55088" lon="6.00106">
        <ele>852.83</ele>
        <time>2020-07-26T12:15:31Z</time>
      </trkpt>
      <trkpt lat="45.55088" lon="6.00106">
        <ele>852.83</ele>
        <time>2020-07-26T12:15:32Z</time>
      </trkpt>
      <trkpt lat="45.55088" lon="6.00106">
        <ele>852.83</ele>
        <time>2020-07-26T12:15:33Z</time>
      </trkpt>
      <trkpt lat="45.55088" lon="6.00106">
        <ele>852.83</ele>
        <time>2020-07-26T12:15:34Z</time>
      </trkpt>
      <trkpt lat="45.55088" lon="6.00106">
        <ele>852.83</ele>
        <time>2020-07-26T12:15:35Z</time>
      </trkpt>
      <trkpt lat="45.55088" lon="6.00106">
        <ele>852.83</ele>
        <time>2020-07-26T12:15:36Z</time>
      </trkpt>
      <trkpt lat="45.55088" lon="6.00106">
        <ele>852.83</ele>
        <time>2020-07-26T12:15:37Z</time>
      </trkpt>
      <trkpt lat="45.55088" lon="6.00106">
        <ele>852.83</ele>
        <time>2020-07-26T12:15:38Z</time>
      </trkpt>
      <trkpt lat="45.55088" lon="6.00106">
        <ele>852.83</ele>
        <time>2020-07-26T12:15:39Z</time>
      </trkpt>
      <trkpt lat="45.55088" lon="6.00106">
        <ele>852.83</ele>
        <time>2020-07-26T12:15:40Z</time>
      </trkpt>
      <trkpt lat="45.55088" lon="6.00106">
        <ele>852.83</ele>
        <time>2020-07-26T12:15:41Z</time>
      </trkpt>
      <trkpt lat="45.55088" lon="6.00106">
        <ele>852.83</ele>
        <time>2020-07-26T12:15:42Z</time>
      </trkpt>
      <trkpt lat="45.55088" lon="6.00106">
        <ele>852.83</ele>
        <time>2020-07-26T12:15:43Z</time>
      </trkpt>
      <trkpt lat="45.55088" lon="6.00106">
        <ele>852.83</ele>
        <time>2020-07-26T12:15:44Z</time>
      </trkpt>
      <trkpt lat="45.55088" lon="6.00106">
        <ele>852.83</ele>
        <time>2020-07-26T12:15:45Z</time>
      </trkpt>
      <trkpt lat="45.55088" lon="6.00106">
        <ele>852.83</ele>
        <time>2020-07-26T12:15:46Z</time>
      </trkpt>
      <trkpt lat="45.55088" lon="6.00106">
        <ele>852.83</ele>
        <time>2020-07-26T12:15:47Z</time>
      </trkpt>
      <trkpt lat="45.55088" lon="6.00106">
        <ele>852.83</ele>
        <time>2020-07-26T12:15:48Z</time>
      </trkpt>
      <trkpt lat="45.55088" lon="6.00106">
        <ele>852.83</ele>
        <time>2020-07-26T12:15:49Z</time>
      </trkpt>
      <trkpt lat="45.55088" lon="6.00106">
        <ele>852.83</ele>
        <time>2020-07-26T12:15:50Z</time>
      </trkpt>
      <trkpt lat="45.55088" lon="6.00106">
        <ele>852.83</ele>
        <time>2020-07-26T12:15:51Z</time>
      </trkpt>
      <trkpt lat="45.55088" lon="6.00106">
        <ele>852.83</ele>
        <time>2020-07-26T12:15:52Z</time>
      </trkpt>
      <trkpt lat="45.55088" lon="6.00106">
        <ele>852.83</ele>
        <time>2020-07-26T12:15:53Z</time>
      </trkpt>
      <trkpt lat="45.55088" lon="6.00106">
        <ele>852.83</ele>
        <time>2020-07-26T12:15:54Z</time>
      </trkpt>
      <trkpt lat="45.55088" lon="6.00106">
        <ele>852.83</ele>
        <time>2020-07-26T12:15:55Z</time>
      </trkpt>
      <trkpt lat="45.55088" lon="6.00106">
        <ele>852.83</ele>
        <time>2020-07-26T12:15:56Z</time>
      </trkpt>
      <trkpt lat="45.55088" lon="6.00106">
        <ele>852.83</ele>
        <time>2020-07-26T12:15:57Z</time>
      </trkpt>
      <trkpt lat="45.55088" lon="6.00106">
        <ele>852.83</ele>
        <time>2020-07-26T12:15:58Z</time>
      </trkpt>
      <trkpt lat="45.55088" lon="6.00106">
        <ele>852.83</ele>
        <time>2020-07-26T12:15:59Z</time>
      </trkpt>
      <trkpt lat="45.55088" lon="6.00106">
        <ele>852.83</ele>
        <time>2020-07-26T12:16:00Z</time>
      </trkpt>
      <trkpt lat="45.55088" lon="6.00106">
        <ele>852.83</ele>
        <time>2020-07-26T12:16:01Z</time>
      </trkpt>
      <trkpt lat="45.55088" lon="6.00106">
        <ele>852.83</ele>
        <time>2020-07-26T12:16:02Z</time>
      </trkpt>
      <trkpt lat="45.55088" lon="6.00106">
        <ele>852.83</ele>
        <time>2020-07-26T12:16:03Z</time>
      </trkpt>
      <trkpt lat="45.55088" lon="6.00106">
        <ele>852.83</ele>
        <time>2020-07-26T12:16:04Z</time>
      </trkpt>
      <trkpt lat="45.55088" lon="6.00106">
        <ele>852.83</ele>
        <time>2020-07-26T12:16:05Z</time>
      </trkpt>
      <trkpt lat="45.55088" lon="6.00106">
        <ele>852.83</ele>
        <time>2020-07-26T12:16:06Z</time>
      </trkpt>
      <trkpt lat="45.55088" lon="6.00106">
        <ele>852.83</ele>
        <time>2020-07-26T12:16:07Z</time>
      </trkpt>
      <trkpt lat="45.55088" lon="6.00106">
        <ele>852.83</ele>
        <time>2020-07-26T12:16:08Z</time>
      </trkpt>
      <trkpt lat="45.55088" lon="6.00106">
        <ele>852.83</ele>
        <time>2020-07-26T12:16:09Z</time>
      </trkpt>
      <trkpt lat="45.55088" lon="6.00106">
        <ele>852.83</ele>
        <time>2020-07-26T12:16:10Z</time>
      </trkpt>
      <trkpt lat="45.55088" lon="6.00106">
        <ele>852.83</ele>
        <time>2020-07-26T12:16:11Z</time>
      </trkpt>
      <trkpt lat="45.55088" lon="6.00106">
        <ele>852.83</ele>
        <time>2020-07-26T12:16:12Z</time>
      </trkpt>
      <trkpt lat="45.55088" lon="6.00106">
        <ele>852.83</ele>
        <time>2020-07-26T12:16:13Z</time>
      </trkpt>
      <trkpt lat="45.55088" lon="6.00106">
        <ele>852.83</ele>
        <time>2020-07-26T12:16:14Z</time>
      </trkpt>
      <trkpt lat="45.55088" lon="6.00106">
        <ele>852.83</ele>
        <time>2020-07-26T12:16:15Z</time>
      </trkpt>
      <trkpt lat="45.55088" lon="6.00106">
        <ele>852.83</ele>
        <time>2020-07-26T12:16:16Z</time>
      </trkpt>
      <trkpt lat="45.55088" lon="6.00106">
        <ele>852.83</ele>
        <time>2020-07-26T12:16:17Z</time>
      </trkpt>
      <trkpt lat="45.55088" lon="6.00106">
        <ele>852.83</ele>
        <time>2020-07-26T12:16:18Z</time>
      </trkpt>
      <trkpt lat="45.55088" lon="6.00106">
        <ele>852.83</ele>
        <time>2020-07-26T12:16:19Z</time>
      </trkpt>
      <trkpt lat="45.55088" lon="6.00106">
        <ele>852.83</ele>
        <time>2020-07-26T12:16:20Z</time>
      </trkpt>
      <trkpt lat="45.55088" lon="6.00106">
        <ele>852.83</ele>
        <time>2020-07-26T12:16:21Z</time>
      </trkpt>
      <trkpt lat="45.55088" lon="6.00106">
        <ele>852.83</ele>
        <time>2020-07-26T12:16:22Z</time>
      </trkpt>
      <trkpt lat="45.55088" lon="6.00106">
        <ele>852.83</ele>
        <time>2020-07-26T12:16:23Z</time>
      </trkpt>
      <trkpt lat="45.55088" lon="6.00106">
        <ele>852.83</ele>
        <time>2020-07-26T12:16:24Z</time>
      </trkpt>
      <trkpt lat="45.55088" lon="6.00106">
        <ele>852.83</ele>
        <time>2020-07-26T12:16:25Z</time>
      </trkpt>
      <trkpt lat="45.55088" lon="6.00106">
        <ele>852.83</ele>
        <time>2020-07-26T12:16:26Z</time>
      </trkpt>
      <trkpt lat="45.55088" lon="6.00106">
        <ele>852.83</ele>
        <time>2020-07-26T12:16:27Z</time>
      </trkpt>
      <trkpt lat="45.55088" lon="6.00106">
        <ele>852.83</ele>
        <time>2020-07-26T12:16:28Z</time>
      </trkpt>
      <trkpt lat="45.55088" lon="6.00106">
        <ele>852.83</ele>
        <time>2020-07-26T12:16:29Z</time>
      </trkpt>
      <trkpt lat="45.55088" lon="6.00106">
        <ele>852.83</ele>
        <time>2020-07-26T12:16:30Z</time>
      </trkpt>
      <trkpt lat="45.55088" lon="6.00106">
        <ele>852.83</ele>
        <time>2020-07-26T12:16:31Z</time>
      </trkpt>
      <trkpt lat="45.55088" lon="6.00106">
        <ele>852.83</ele>
        <time>2020-07-26T12:16:32Z</time>
      </trkpt>
      <trkpt lat="45.55088" lon="6.00106">
        <ele>852.83</ele>
        <time>2020-07-26T12:16:33Z</time>
      </trkpt>
      <trkpt lat="45.55088" lon="6.00106">
        <ele>852.83</ele>
        <time>2020-07-26T12:16:34Z</time>
      </trkpt>
      <trkpt lat="45.55088" lon="6.00106">
        <ele>852.83</ele>
        <time>2020-07-26T12:16:35Z</time>
      </trkpt>
      <trkpt lat="45.55088" lon="6.00106">
        <ele>852.83</ele>
        <time>2020-07-26T12:16:36Z</time>
      </trkpt>
      <trkpt lat="45.55088" lon="6.00106">
        <ele>852.83</ele>
        <time>2020-07-26T12:16:37Z</time>
      </trkpt>
      <trkpt lat="45.55088" lon="6.00106">
        <ele>852.83</ele>
        <time>2020-07-26T12:16:38Z</time>
      </trkpt>
      <trkpt lat="45.55088" lon="6.00106">
        <ele>852.83</ele>
        <time>2020-07-26T12:16:39Z</time>
      </trkpt>
      <trkpt lat="45.55088" lon="6.00106">
        <ele>852.83</ele>
        <time>2020-07-26T12:16:40Z</time>
      </trkpt>
      <trkpt lat="45.55088" lon="6.00106">
        <ele>852.83</ele>
        <time>2020-07-26T12:16:41Z</time>
      </trkpt>
      <trkpt lat="45.55088" lon="6.00106">
        <ele>852.83</ele>
        <time>2020-07-26T12:16:42Z</time>
      </trkpt>
      <trkpt lat="45.55088" lon="6.00106">
        <ele>852.83</ele>
        <time>2020-07-26T12:16:43Z</time>
      </trkpt>
      <trkpt lat="45.55088" lon="6.00106">
        <ele>852.83</ele>
        <time>2020-07-26T12:16:44Z</time>
      </trkpt>
      <trkpt lat="45.55088" lon="6.00106">
        <ele>852.83</ele>
        <time>2020-07-26T12:16:45Z</time>
      </trkpt>
      <trkpt lat="45.55088" lon="6.00106">
        <ele>852.83</ele>
        <time>2020-07-26T12:16:46Z</time>
      </trkpt>
      <trkpt lat="45.55088" lon="6.00106">
        <ele>852.83</ele>
        <time>2020-07-26T12:16:47Z</time>
      </trkpt>
      <trkpt lat="45.55088" lon="6.00106">
        <ele>852.83</ele>
        <time>2020-07-26T12:16:48Z</time>
      </trkpt>
      <trkpt lat="45.55088" lon="6.00106">
        <ele>852.83</ele>
        <time>2020-07-26T12:16:49Z</time>
      </trkpt>
      <trkpt lat="45.55088" lon="6.00106">
        <ele>852.83</ele>
        <time>2020-07-26T12:16:50Z</time>
      </trkpt>
      <trkpt lat="45.55088" lon="6.00106">
        <ele>852.83</ele>
        <time>2020-07-26T12:16:51Z</time>
      </trkpt>
      <trkpt lat="45.55088" lon="6.00106">
        <ele>852.83</ele>
        <time>2020-07-26T12:16:52Z</time>
      </trkpt>
      <trkpt lat="45.55088" lon="6.00106">
        <ele>852.83</ele>
        <time>2020-07-26T12:16:53Z</time>
      </trkpt>
      <trkpt lat="45.55088" lon="6.00106">
        <ele>852.83</ele>
        <time>2020-07-26T12:16:54Z</time>
      </trkpt>
      <trkpt lat="45.55088" lon="6.00106">
        <ele>852.83</ele>
        <time>2020-07-26T12:16:55Z</time>
      </trkpt>
      <trkpt lat="45.55088" lon="6.00106">
        <ele>852.83</ele>
        <time>2020-07-26T12:16:56Z</time>
      </trkpt>
      <trkpt lat="45.55088" lon="6.00106">
        <ele>852.83</ele>
        <time>2020-07-26T12:16:57Z</time>
      </trkpt>
      <trkpt lat="45.55088" lon="6.00106">
        <ele>852.83</ele>
        <time>2020-07-26T12:16:58Z</time>
      </trkpt>
      <trkpt lat="45.55088" lon="6.00106">
        <ele>852.83</ele>
        <time>2020-07-26T12:16:59Z</time>
      </trkpt>
      <trkpt lat="45.55088" lon="6.00106">
        <ele>852.83</ele>
        <time>2020-07-26T12:17:00Z</time>
      </trkpt>
      <trkpt lat="45.55088" lon="6.00106">
        <ele>852.83</ele>
        <time>2020-07-26T12:17:01Z</time>
      </trkpt>
      <trkpt lat="45.55088" lon="6.00106">
        <ele>852.83</ele>
        <time>2020-07-26T12:17:02Z</time>
      </trkpt>
      <trkpt lat="45.55088" lon="6.00106">
        <ele>852.83</ele>
        <time>2020-07-26T12:17:03Z</time>
      </trkpt>
      <trkpt lat="45.55088" lon="6.00106">
        <ele>852.83</ele>
        <time>2020-07-26T12:17:04Z</time>
      </trkpt>
      <trkpt lat="45.55088" lon="6.00106">
        <ele>852.83</ele>
        <time>2020-07-26T12:17:05Z</time>
      </trkpt>
      <trkpt lat="45.55088" lon="6.00106">
        <ele>852.83</ele>
        <time>2020-07-26T12:17:06Z</time>
      </trkpt>
      <trkpt lat="45.55088" lon="6.00106">
        <ele>852.83</ele>
        <time>2020-07-26T12:17:07Z</time>
      </trkpt>
      <trkpt lat="45.55088" lon="6.00106">
        <ele>852.83</ele>
        <time>2020-07-26T12:17:08Z</time>
      </trkpt>
      <trkpt lat="45.55088" lon="6.00106">
        <ele>852.83</ele>
        <time>2020-07-26T12:17:09Z</time>
      </trkpt>
      <trkpt lat="45.55088" lon="6.00106">
        <ele>852.83</ele>
        <time>2020-07-26T12:17:10Z</time>
      </trkpt>
      <trkpt lat="45.55088" lon="6.00106">
        <ele>852.83</ele>
        <time>2020-07-26T12:17:11Z</time>
      </trkpt>
      <trkpt lat="45.55088" lon="6.00106">
        <ele>852.83</ele>
        <time>2020-07-26T12:17:12Z</time>
      </trkpt>
      <trkpt lat="45.55088" lon="6.00106">
        <ele>852.83</ele>
        <time>2020-07-26T12:17:13Z</time>
      </trkpt>
      <trkpt lat="45.55088" lon="6.00106">
        <ele>852.83</ele>
        <time>2020-07-26T12:17:14Z</time>
      </trkpt>
      <trkpt lat="45.55088" lon="6.00106">
        <ele>852.83</ele>
        <time>2020-07-26T12:17:15Z</time>
      </trkpt>
      <trkpt lat="45.55088" lon="6.00106">
        <ele>852.83</ele>
        <time>2020-07-26T12:17:16Z</time>
      </trkpt>
      <trkpt lat="45.55088" lon="6.00106">
        <ele>852.83</ele>
        <time>2020-07-26T12:17:17Z</time>
      </trkpt>
      <trkpt lat="45.55088" lon="6.00106">
        <ele>852.83</ele>
        <time>2020-07-26T12:17:18Z</time>
      </trkpt>
      <trkpt lat="45.55088" lon="6.00106">
        <ele>852.83</ele>
        <time>2020-07-26T12:17:19Z</time>
      </trkpt>
      <trkpt lat="45.55088" lon="6.00106">
        <ele>852.83</ele>
        <time>2020-07-26T12:17:20Z</time>
      </trkpt>
      <trkpt lat="45.55088" lon="6.00106">
        <ele>852.83</ele>
        <time>2020-07-26T12:17:21Z</time>
      </trkpt>
      <trkpt lat="45.55088" lon="6.00106">
        <ele>852.83</ele>
        <time>2020-07-26T12:17:22Z</time>
      </trkpt>
      <trkpt lat="45.55088" lon="6.00106">
        <ele>852.83</ele>
        <time>2020-07-26T12:17:23Z</time>
      </trkpt>
      <trkpt lat="45.55088" lon="6.00106">
        <ele>852.83</ele>
        <time>2020-07-26T12:17:24Z</time>
      </trkpt>
      <trkpt lat="45.55088" lon="6.00106">
        <ele>852.83</ele>
        <time>2020-07-26T12:17:25Z</time>
      </trkpt>
      <trkpt lat="45.55088" lon="6.00106">
        <ele>852.83</ele>
        <time>2020-07-26T12:17:26Z</time>
      </trkpt>
      <trkpt lat="45.55088" lon="6.00106">
        <ele>852.83</ele>
        <time>2020-07-26T12:17:27Z</time>
      </trkpt>
      <trkpt lat="45.55088" lon="6.00106">
        <ele>852.83</ele>
        <time>2020-07-26T12:17:28Z</time>
      </trkpt>
      <trkpt lat="45.55088" lon="6.00106">
        <ele>852.83</ele>
        <time>2020-07-26T12:17:29Z</time>
      </trkpt>
      <trkpt lat="45.55088" lon="6.00106">
        <ele>852.83</ele>
        <time>2020-07-26T12:17:30Z</time>
      </trkpt>
      <trkpt lat="45.55088" lon="6.00106">
        <ele>852.83</ele>
        <time>2020-07-26T12:17:31Z</time>
      </trkpt>
      <trkpt lat="45.55088" lon="6.00106">
        <ele>852.83</ele>
        <time>2020-07-26T12:17:32Z</time>
      </trkpt>
      <trkpt lat="45.55088" lon="6.00106">
        <ele>852.83</ele>
        <time>2020-07-26T12:17:33Z</time>
      </trkpt>
      <trkpt lat="45.55088" lon="6.00106">
        <ele>852.83</ele>
        <time>2020-07-26T12:17:34Z</time>
      </trkpt>
      <trkpt lat="45.55088" lon="6.00106">
        <ele>852.83</ele>
        <time>2020-07-26T12:17:35Z</time>
      </trkpt>
      <trkpt lat="45.55088" lon="6.00106">
        <ele>852.83</ele>
        <time>2020-07-26T12:17:36Z</time>
      </trkpt>
      <trkpt lat="45.55088" lon="6.00106">
        <ele>852.83</ele>
        <time>2020-07-26T12:17:37Z</time>
      </trkpt>
      <trkpt lat="45.55088" lon="6.00106">
        <ele>852.83</ele>
        <time>2020-07-26T12:17:38Z</time>
      </trkpt>
      <trkpt lat="45.55088" lon="6.00106">
        <ele>852.83</ele>
        <time>2020-07-26T12:17:39Z</time>
      </trkpt>
      <trkpt lat="45.55088" lon="6.00106">
        <ele>852.83</ele>
        <time>2020-07-26T12:17:40Z</time>
      </trkpt>
      <trkpt lat="45.55088" lon="6.00106">
        <ele>852.83</ele>
        <time>2020-07-26T12:17:41Z</time>
      </trkpt>
      <trkpt lat="45.55088" lon="6.00106">
        <ele>852.83</ele>
        <time>2020-07-26T12:17:42Z</time>
      </trkpt>
      <trkpt lat="45.55088" lon="6.00106">
        <ele>852.83</ele>
        <time>2020-07-26T12:17:43Z</time>
      </trkpt>
      <trkpt lat="45.55088" lon="6.00106">
        <ele>852.83</ele>
        <time>2020-07-26T12:17:44Z</time>
      </trkpt>
      <trkpt lat="45.55088" lon="6.00106">
        <ele>852.83</ele>
        <time>2020-07-26T12:17:45Z</time>
      </trkpt>
      <trkpt lat="45.55088" lon="6.00106">
        <ele>852.83</ele>
        <time>2020-07-26T12:17:46Z</time>
      </trkpt>
      <trkpt lat="45.55088" lon="6.00106">
        <ele>852.83</ele>
        <time>2020-07-26T12:17:47Z</time>
      </trkpt>
      <trkpt lat="45.55088" lon="6.00106">
        <ele>852.83</ele>
        <time>2020-07-26T12:17:48Z</time>
      </trkpt>
      <trkpt lat="45.55088" lon="6.00106">
        <ele>852.83</ele>
        <time>2020-07-26T12:17:49Z</time>
      </trkpt>
      <trkpt lat="45.55088" lon="6.00106">
        <ele>852.83</ele>
        <time>2020-07-26T12:17:50Z</time>
      </trkpt>
      <trkpt lat="45.55088" lon="6.00106">
        <ele>852.83</ele>
        <time>2020-07-26T12:17:51Z</time>
      </trkpt>
      <trkpt lat="45.55088" lon="6.00106">
        <ele>852.83</ele>
        <time>2020-07-26T12:17:52Z</time>
      </trkpt>
      <trkpt lat="45.55088" lon="6.00106">
        <ele>852.83</ele>
        <time>2020-07-26T12:17:53Z</time>
      </trkpt>
      <trkpt lat="45.55088" lon="6.00106">
        <ele>852.83</ele>
        <time>2020-07-26T12:17:54Z</time>
      </trkpt>
      <trkpt lat="45.55088" lon="6.00106">
        <ele>852.83</ele>
        <time>2020-07-26T12:17:55Z</time>
      </trkpt>
      <trkpt lat="45.55088" lon="6.00106">
        <ele>852.83</ele>
        <time>2020-07-26T12:17:56Z</time>
      </trkpt>
      <trkpt lat="45.55088" lon="6.00106">
        <ele>852.83</ele>
        <time>2020-07-26T12:17:57Z</time>
      </trkpt>
      <trkpt lat="45.55088" lon="6.00106">
        <ele>852.83</ele>
        <time>2020-07-26T12:17:58Z</time>
      </trkpt>
      <trkpt lat="45.55088" lon="6.00106">
        <ele>852.83</ele>
        <time>2020-07-26T12:17:59Z</time>
      </trkpt>
      <trkpt lat="45.55088" lon="6.00106">
        <ele>852.83</ele>
        <time>2020-07-26T12:18:00Z</time>
      </trkpt>
      <trkpt lat="45.55088" lon="6.00106">
        <ele>852.83</ele>
        <time>2020-07-26T12:18:01Z</time>
      </trkpt>
      <trkpt lat="45.55088" lon="6.00106">
        <ele>852.83</ele>
        <time>2020-07-26T12:18:02Z</time>
      </trkpt>
      <trkpt lat="45.55088" lon="6.00106">
        <ele>852.83</ele>
        <time>2020-07-26T12:18:03Z</time>
      </trkpt>
      <trkpt lat="45.55088" lon="6.00106">
        <ele>852.83</ele>
        <time>2020-07-26T12:18:04Z</time>
      </trkpt>
      <trkpt lat="45.55088" lon="6.00106">
        <ele>852.83</ele>
        <time>2020-07-26T12:18:05Z</time>
      </trkpt>
      <trkpt lat="45.55088" lon="6.00106">
        <ele>852.83</ele>
        <time>2020-07-26T12:18:06Z</time>
      </trkpt>
      <trkpt lat="45.55088" lon="6.00106">
        <ele>852.83</ele>
        <time>2020-07-26T12:18:07Z</time>
      </trkpt>
      <trkpt lat="45.55088" lon="6.00106">
        <ele>852.83</ele>
        <time>2020-07-26T12:18:08Z</time>
      </trkpt>
      <trkpt lat="45.55088" lon="6.00106">
        <ele>852.83</ele>
        <time>2020-07-26T12:18:09Z</time>
      </trkpt>
      <trkpt lat="45.55088" lon="6.00106">
        <ele>852.83</ele>
        <time>2020-07-26T12:18:10Z</time>
      </trkpt>
      <trkpt lat="45.55088" lon="6.00106">
        <ele>852.83</ele>
        <time>2020-07-26T12:18:11Z</time>
      </trkpt>
      <trkpt lat="45.55088" lon="6.00106">
        <ele>852.83</ele>
        <time>2020-07-26T12:18:12Z</time>
      </trkpt>
      <trkpt lat="45.55088" lon="6.00106">
        <ele>852.83</ele>
        <time>2020-07-26T12:18:13Z</time>
      </trkpt>
      <trkpt lat="45.55097" lon="6.00121">
        <ele>852.83</ele>
        <time>2020-07-26T12:18:14Z</time>
      </trkpt>
      <trkpt lat="45.55104" lon="6.00122">
        <ele>852.83</ele>
        <time>2020-07-26T12:18:26Z</time>
      </trkpt>
      <trkpt lat="45.55103" lon="6.00121">
        <ele>852.83</ele>
        <time>2020-07-26T12:18:43Z</time>
      </trkpt>
      <trkpt lat="45.55099" lon="6.00123">
        <ele>852.83</ele>
        <time>2020-07-26T12:19:19Z</time>
      </trkpt>
      <trkpt lat="45.551" lon="6.00122">
        <ele>852.83</ele>
        <time>2020-07-26T12:19:59Z</time>
      </trkpt>
      <trkpt lat="45.55106" lon="6.00123">
        <ele>852.83</ele>
        <time>2020-07-26T12:20:45Z</time>
      </trkpt>
      <trkpt lat="45.55105" lon="6.00122">
        <ele>852.83</ele>
        <time>2020-07-26T12:21:26Z</time>
      </trkpt>
      <trkpt lat="45.55106" lon="6.00119">
        <ele>852.83</ele>
        <time>2020-07-26T12:22:10Z</time>
      </trkpt>
      <trkpt lat="45.55103" lon="6.00118">
        <ele>852.83</ele>
        <time>2020-07-26T12:22:55Z</time>
      </trkpt>
      <trkpt lat="45.55103" lon="6.00121">
        <ele>852.83</ele>
        <time>2020-07-26T12:23:38Z</time>
      </trkpt>
      <trkpt lat="45.55103" lon="6.00123">
        <ele>852.83</ele>
        <time>2020-07-26T12:24:08Z</time>
      </trkpt>
      <trkpt lat="45.55103" lon="6.00118">
        <ele>852.83</ele>
        <time>2020-07-26T12:24:29Z</time>
      </trkpt>
      <trkpt lat="45.55102" lon="6.00122">
        <ele>852.83</ele>
        <time>2020-07-26T12:24:45Z</time>
      </trkpt>
      <trkpt lat="45.55101" lon="6.00122">
        <ele>852.83</ele>
        <time>2020-07-26T12:25:07Z</time>
      </trkpt>
      <trkpt lat="45.55102" lon="6.00121">
        <ele>852.83</ele>
        <time>2020-07-26T12:25:42Z</time>
      </trkpt>
      <trkpt lat="45.55102" lon="6.0012">
        <ele>852.83</ele>
        <time>2020-07-26T12:26:17Z</time>
      </trkpt>
      <trkpt lat="45.55102" lon="6.0012">
        <ele>852.83</ele>
        <time>2020-07-26T12:26:46Z</time>
      </trkpt>
      <trkpt lat="45.55102" lon="6.00119">
        <ele>852.83</ele>
        <time>2020-07-26T12:27:08Z</time>
      </trkpt>
      <trkpt lat="45.55106" lon="6.00122">
        <ele>852.83</ele>
        <time>2020-07-26T12:27:43Z</time>
      </trkpt>
      <trkpt lat="45.55099" lon="6.00119">
        <ele>850.42</ele>
        <time>2020-07-26T12:28:30Z</time>
      </trkpt>
      <trkpt lat="45.55099" lon="6.0012">
        <ele>853.79</ele>
        <time>2020-07-26T12:28:33Z</time>
      </trkpt>
      <trkpt lat="45.55108" lon="6.00124">
        <ele>851.87</ele>
        <time>2020-07-26T12:29:12Z</time>
      </trkpt>
      <trkpt lat="45.55111" lon="6.00123">
        <ele>852.35</ele>
        <time>2020-07-26T12:29:19Z</time>
      </trkpt>
      <trkpt lat="45.55104" lon="6.00119">
        <ele>852.83</ele>
        <time>2020-07-26T12:29:42Z</time>
      </trkpt>
      <trkpt lat="45.55104" lon="6.00118">
        <ele>852.83</ele>
        <time>2020-07-26T12:30:20Z</time>
      </trkpt>
      <trkpt lat="45.55104" lon="6.0012">
        <ele>852.83</ele>
        <time>2020-07-26T12:30:48Z</time>
      </trkpt>
      <trkpt lat="45.55102" lon="6.0012">
        <ele>852.83</ele>
        <time>2020-07-26T12:31:09Z</time>
      </trkpt>
      <trkpt lat="45.55103" lon="6.0012">
        <ele>852.83</ele>
        <time>2020-07-26T12:31:32Z</time>
      </trkpt>
      <trkpt lat="45.55103" lon="6.00121">
        <ele>852.83</ele>
        <time>2020-07-26T12:32:13Z</time>
      </trkpt>
      <trkpt lat="45.55104" lon="6.00119">
        <ele>852.83</ele>
        <time>2020-07-26T12:32:44Z</time>
      </trkpt>
      <trkpt lat="45.55104" lon="6.00121">
        <ele>852.83</ele>
        <time>2020-07-26T12:33:09Z</time>
      </trkpt>
      <trkpt lat="45.55099" lon="6.00121">
        <ele>852.83</ele>
        <time>2020-07-26T12:33:59Z</time>
      </trkpt>
      <trkpt lat="45.55099" lon="6.00119">
        <ele>852.83</ele>
        <time>2020-07-26T12:34:35Z</time>
      </trkpt>
      <trkpt lat="45.55101" lon="6.0012">
        <ele>852.83</ele>
        <time>2020-07-26T12:34:58Z</time>
      </trkpt>
      <trkpt lat="45.55103" lon="6.00119">
        <ele>852.83</ele>
        <time>2020-07-26T12:35:14Z</time>
      </trkpt>
      <trkpt lat="45.55102" lon="6.00118">
        <ele>852.83</ele>
        <time>2020-07-26T12:35:33Z</time>
      </trkpt>
      <trkpt lat="45.55099" lon="6.00111">
        <ele>852.83</ele>
        <time>2020-07-26T12:35:49Z</time>
      </trkpt>
      <trkpt lat="45.55095" lon="6.00105">
        <ele>852.83</ele>
        <time>2020-07-26T12:36:04Z</time>
      </trkpt>
      <trkpt lat="45.55094" lon="6.00105">
        <ele>852.83</ele>
        <time>2020-07-26T12:36:56Z</time>
      </trkpt>
      <trkpt lat="45.55097" lon="6.00109">
        <ele>852.83</ele>
        <time>2020-07-26T12:37:20Z</time>
      </trkpt>
      <trkpt lat="45.55098" lon="6.00108">
        <ele>852.83</ele>
        <time>2020-07-26T12:37:45Z</time>
      </trkpt>
      <trkpt lat="45.55097" lon="6.0011">
        <ele>852.83</ele>
        <time>2020-07-26T12:38:01Z</time>
      </trkpt>
      <trkpt lat="45.55099" lon="6.00115">
        <ele>852.83</ele>
        <time>2020-07-26T12:38:18Z</time>
      </trkpt>
      <trkpt lat="45.55092" lon="6.0011">
        <ele>851.38</ele>
        <time>2020-07-26T12:38:29Z</time>
      </trkpt>
      <trkpt lat="45.5509" lon="6.00113">
        <ele>850.42</ele>
        <time>2020-07-26T12:38:41Z</time>
      </trkpt>
      <trkpt lat="45.5509" lon="6.0012">
        <ele>850.9</ele>
        <time>2020-07-26T12:38:57Z</time>
      </trkpt>
      <trkpt lat="45.5509" lon="6.00126">
        <ele>851.38</ele>
        <time>2020-07-26T12:39:13Z</time>
      </trkpt>
      <trkpt lat="45.55088" lon="6.00134">
        <ele>850.9</ele>
        <time>2020-07-26T12:39:27Z</time>
      </trkpt>
      <trkpt lat="45.55086" lon="6.00134">
        <ele>850.9</ele>
        <time>2020-07-26T12:39:41Z</time>
      </trkpt>
      <trkpt lat="45.55086" lon="6.00146">
        <ele>850.42</ele>
        <time>2020-07-26T12:40:35Z</time>
      </trkpt>
      <trkpt lat="45.55079" lon="6.00149">
        <ele>850.9</ele>
        <time>2020-07-26T12:40:49Z</time>
      </trkpt>
      <trkpt lat="45.55078" lon="6.00149">
        <ele>852.83</ele>
        <time>2020-07-26T12:41:38Z</time>
      </trkpt>
      <trkpt lat="45.55081" lon="6.00156">
        <ele>852.83</ele>
        <time>2020-07-26T12:41:45Z</time>
      </trkpt>
      <trkpt lat="45.55084" lon="6.00175">
        <ele>852.35</ele>
        <time>2020-07-26T12:42:01Z</time>
      </trkpt>
      <trkpt lat="45.55083" lon="6.00179">
        <ele>854.27</ele>
        <time>2020-07-26T12:42:19Z</time>
      </trkpt>
      <trkpt lat="45.55083" lon="6.00178">
        <ele>854.75</ele>
        <time>2020-07-26T12:42:56Z</time>
      </trkpt>
      <trkpt lat="45.55082" lon="6.00177">
        <ele>854.27</ele>
        <time>2020-07-26T12:43:29Z</time>
      </trkpt>
      <trkpt lat="45.55081" lon="6.0018">
        <ele>853.31</ele>
        <time>2020-07-26T12:43:44Z</time>
      </trkpt>
      <trkpt lat="45.55081" lon="6.00178">
        <ele>853.79</ele>
        <time>2020-07-26T12:44:29Z</time>
      </trkpt>
      <trkpt lat="45.55081" lon="6.00177">
        <ele>853.31</ele>
        <time>2020-07-26T12:44:52Z</time>
      </trkpt>
      <trkpt lat="45.55075" lon="6.00181">
        <ele>853.31</ele>
        <time>2020-07-26T12:45:06Z</time>
      </trkpt>
      <trkpt lat="45.55077" lon="6.00199">
        <ele>851.87</ele>
        <time>2020-07-26T12:45:22Z</time>
      </trkpt>
      <trkpt lat="45.5509" lon="6.002">
        <ele>850.9</ele>
        <time>2020-07-26T12:45:36Z</time>
      </trkpt>
      <trkpt lat="45.55105" lon="6.00201">
        <ele>848.98</ele>
        <time>2020-07-26T12:45:54Z</time>
      </trkpt>
      <trkpt lat="45.55114" lon="6.00196">
        <ele>848.02</ele>
        <time>2020-07-26T12:46:07Z</time>
      </trkpt>
      <trkpt lat="45.55115" lon="6.00195">
        <ele>848.02</ele>
        <time>2020-07-26T12:46:08Z</time>
      </trkpt>
      <trkpt lat="45.55128" lon="6.00191">
        <ele>848.02</ele>
        <time>2020-07-26T12:46:25Z</time>
      </trkpt>
      <trkpt lat="45.55131" lon="6.00192">
        <ele>848.02</ele>
        <time>2020-07-26T12:46:28Z</time>
      </trkpt>
      <trkpt lat="45.55137" lon="6.00201">
        <ele>848.5</ele>
        <time>2020-07-26T12:46:44Z</time>
      </trkpt>
      <trkpt lat="45.55138" lon="6.00202">
        <ele>847.54</ele>
        <time>2020-07-26T12:47:12Z</time>
      </trkpt>
      <trkpt lat="45.55139" lon="6.00206">
        <ele>847.54</ele>
        <time>2020-07-26T12:47:17Z</time>
      </trkpt>
      <trkpt lat="45.55142" lon="6.00216">
        <ele>847.06</ele>
        <time>2020-07-26T12:47:24Z</time>
      </trkpt>
      <trkpt lat="45.55154" lon="6.00236">
        <ele>845.62</ele>
        <time>2020-07-26T12:47:42Z</time>
      </trkpt>
      <trkpt lat="45.5516" lon="6.00241">
        <ele>845.62</ele>
        <time>2020-07-26T12:47:48Z</time>
      </trkpt>
      <trkpt lat="45.55167" lon="6.00243">
        <ele>846.1</ele>
        <time>2020-07-26T12:48:01Z</time>
      </trkpt>
      <trkpt lat="45.55168" lon="6.00243">
        <ele>846.1</ele>
        <time>2020-07-26T12:48:02Z</time>
      </trkpt>
      <trkpt lat="45.55169" lon="6.00244">
        <ele>846.1</ele>
        <time>2020-07-26T12:48:03Z</time>
      </trkpt>
      <trkpt lat="45.5517" lon="6.00244">
        <ele>846.1</ele>
        <time>2020-07-26T12:48:04Z</time>
      </trkpt>
      <trkpt lat="45.55171" lon="6.00245">
        <ele>846.1</ele>
        <time>2020-07-26T12:48:05Z</time>
      </trkpt>
      <trkpt lat="45.55172" lon="6.00246">
        <ele>846.1</ele>
        <time>2020-07-26T12:48:06Z</time>
      </trkpt>
      <trkpt lat="45.55189" lon="6.00251">
        <ele>845.14</ele>
        <time>2020-07-26T12:48:24Z</time>
      </trkpt>
      <trkpt lat="45.552" lon="6.00254">
        <ele>843.69</ele>
        <time>2020-07-26T12:48:37Z</time>
      </trkpt>
      <trkpt lat="45.5521" lon="6.00257">
        <ele>842.25</ele>
        <time>2020-07-26T12:48:52Z</time>
      </trkpt>
      <trkpt lat="45.5522" lon="6.00257">
        <ele>841.77</ele>
        <time>2020-07-26T12:49:09Z</time>
      </trkpt>
      <trkpt lat="45.55231" lon="6.00258">
        <ele>839.37</ele>
        <time>2020-07-26T12:49:22Z</time>
      </trkpt>
      <trkpt lat="45.55237" lon="6.0026">
        <ele>837.93</ele>
        <time>2020-07-26T12:49:35Z</time>
      </trkpt>
      <trkpt lat="45.55242" lon="6.00262">
        <ele>837.45</ele>
        <time>2020-07-26T12:49:44Z</time>
      </trkpt>
      <trkpt lat="45.55246" lon="6.00261">
        <ele>835.04</ele>
        <time>2020-07-26T12:49:55Z</time>
      </trkpt>
      <trkpt lat="45.55254" lon="6.00267">
        <ele>833.6</ele>
        <time>2020-07-26T12:50:10Z</time>
      </trkpt>
      <trkpt lat="45.55263" lon="6.00265">
        <ele>831.2</ele>
        <time>2020-07-26T12:50:30Z</time>
      </trkpt>
      <trkpt lat="45.55275" lon="6.00264">
        <ele>829.76</ele>
        <time>2020-07-26T12:50:45Z</time>
      </trkpt>
      <trkpt lat="45.55283" lon="6.00262">
        <ele>828.79</ele>
        <time>2020-07-26T12:50:55Z</time>
      </trkpt>
      <trkpt lat="45.55294" lon="6.00263">
        <ele>825.91</ele>
        <time>2020-07-26T12:51:12Z</time>
      </trkpt>
      <trkpt lat="45.55299" lon="6.00262">
        <ele>824.95</ele>
        <time>2020-07-26T12:51:17Z</time>
      </trkpt>
      <trkpt lat="45.55315" lon="6.00265">
        <ele>822.06</ele>
        <time>2020-07-26T12:51:34Z</time>
      </trkpt>
      <trkpt lat="45.55335" lon="6.0027">
        <ele>820.62</ele>
        <time>2020-07-26T12:51:56Z</time>
      </trkpt>
      <trkpt lat="45.55347" lon="6.00278">
        <ele>819.18</ele>
        <time>2020-07-26T12:52:14Z</time>
      </trkpt>
      <trkpt lat="45.55349" lon="6.00279">
        <ele>819.18</ele>
        <time>2020-07-26T12:52:38Z</time>
      </trkpt>
      <trkpt lat="45.55343" lon="6.0028">
        <ele>818.7</ele>
        <time>2020-07-26T12:52:49Z</time>
      </trkpt>
      <trkpt lat="45.55327" lon="6.00284">
        <ele>818.22</ele>
        <time>2020-07-26T12:53:07Z</time>
      </trkpt>
      <trkpt lat="45.55321" lon="6.00285">
        <ele>816.78</ele>
        <time>2020-07-26T12:53:22Z</time>
      </trkpt>
      <trkpt lat="45.5532" lon="6.00284">
        <ele>816.78</ele>
        <time>2020-07-26T12:53:23Z</time>
      </trkpt>
      <trkpt lat="45.553" lon="6.00281">
        <ele>815.82</ele>
        <time>2020-07-26T12:53:44Z</time>
      </trkpt>
      <trkpt lat="45.55281" lon="6.00289">
        <ele>815.82</ele>
        <time>2020-07-26T12:54:05Z</time>
      </trkpt>
      <trkpt lat="45.5527" lon="6.00295">
        <ele>815.34</ele>
        <time>2020-07-26T12:54:17Z</time>
      </trkpt>
      <trkpt lat="45.55254" lon="6.003">
        <ele>815.34</ele>
        <time>2020-07-26T12:54:34Z</time>
      </trkpt>
      <trkpt lat="45.55242" lon="6.00302">
        <ele>816.3</ele>
        <time>2020-07-26T12:54:52Z</time>
      </trkpt>
      <trkpt lat="45.55241" lon="6.00302">
        <ele>816.3</ele>
        <time>2020-07-26T12:54:53Z</time>
      </trkpt>
      <trkpt lat="45.55227" lon="6.0031">
        <ele>815.82</ele>
        <time>2020-07-26T12:55:10Z</time>
      </trkpt>
      <trkpt lat="45.55217" lon="6.00318">
        <ele>814.85</ele>
        <time>2020-07-26T12:55:27Z</time>
      </trkpt>
      <trkpt lat="45.55206" lon="6.00324">
        <ele>814.37</ele>
        <time>2020-07-26T12:55:42Z</time>
      </trkpt>
      <trkpt lat="45.55188" lon="6.00323">
        <ele>813.89</ele>
        <time>2020-07-26T12:56:02Z</time>
      </trkpt>
      <trkpt lat="45.55177" lon="6.0032">
        <ele>813.41</ele>
        <time>2020-07-26T12:56:14Z</time>
      </trkpt>
      <trkpt lat="45.55163" lon="6.00316">
        <ele>813.41</ele>
        <time>2020-07-26T12:56:30Z</time>
      </trkpt>
      <trkpt lat="45.55146" lon="6.00316">
        <ele>812.45</ele>
        <time>2020-07-26T12:56:49Z</time>
      </trkpt>
      <trkpt lat="45.55131" lon="6.00313">
        <ele>811.01</ele>
        <time>2020-07-26T12:57:07Z</time>
      </trkpt>
      <trkpt lat="45.55119" lon="6.0031">
        <ele>810.53</ele>
        <time>2020-07-26T12:57:23Z</time>
      </trkpt>
      <trkpt lat="45.55106" lon="6.00305">
        <ele>809.09</ele>
        <time>2020-07-26T12:57:40Z</time>
      </trkpt>
      <trkpt lat="45.55095" lon="6.003">
        <ele>808.13</ele>
        <time>2020-07-26T12:57:58Z</time>
      </trkpt>
      <trkpt lat="45.55084" lon="6.00297">
        <ele>806.68</ele>
        <time>2020-07-26T12:58:16Z</time>
      </trkpt>
      <trkpt lat="45.55073" lon="6.00293">
        <ele>805.24</ele>
        <time>2020-07-26T12:58:32Z</time>
      </trkpt>
      <trkpt lat="45.55061" lon="6.00288">
        <ele>804.28</ele>
        <time>2020-07-26T12:58:48Z</time>
      </trkpt>
      <trkpt lat="45.5506" lon="6.00287">
        <ele>804.28</ele>
        <time>2020-07-26T12:58:49Z</time>
      </trkpt>
      <trkpt lat="45.55041" lon="6.00279">
        <ele>802.84</ele>
        <time>2020-07-26T12:59:09Z</time>
      </trkpt>
      <trkpt lat="45.55039" lon="6.00278">
        <ele>802.36</ele>
        <time>2020-07-26T12:59:12Z</time>
      </trkpt>
      <trkpt lat="45.55038" lon="6.00277">
        <ele>802.36</ele>
        <time>2020-07-26T12:59:13Z</time>
      </trkpt>
      <trkpt lat="45.55037" lon="6.00276">
        <ele>802.36</ele>
        <time>2020-07-26T12:59:14Z</time>
      </trkpt>
      <trkpt lat="45.55036" lon="6.00276">
        <ele>801.88</ele>
        <time>2020-07-26T12:59:15Z</time>
      </trkpt>
      <trkpt lat="45.55021" lon="6.00263">
        <ele>799.47</ele>
        <time>2020-07-26T12:59:33Z</time>
      </trkpt>
      <trkpt lat="45.55011" lon="6.00249">
        <ele>797.07</ele>
        <time>2020-07-26T12:59:52Z</time>
      </trkpt>
      <trkpt lat="45.54999" lon="6.00235">
        <ele>795.63</ele>
        <time>2020-07-26T13:00:10Z</time>
      </trkpt>
      <trkpt lat="45.54986" lon="6.00216">
        <ele>793.71</ele>
        <time>2020-07-26T13:00:30Z</time>
      </trkpt>
      <trkpt lat="45.5497" lon="6.00188">
        <ele>791.78</ele>
        <time>2020-07-26T13:00:52Z</time>
      </trkpt>
      <trkpt lat="45.54961" lon="6.00166">
        <ele>789.38</ele>
        <time>2020-07-26T13:01:09Z</time>
      </trkpt>
      <trkpt lat="45.54959" lon="6.00161">
        <ele>788.42</ele>
        <time>2020-07-26T13:01:13Z</time>
      </trkpt>
      <trkpt lat="45.54953" lon="6.00149">
        <ele>785.05</ele>
        <time>2020-07-26T13:01:28Z</time>
      </trkpt>
      <trkpt lat="45.54953" lon="6.00147">
        <ele>783.61</ele>
        <time>2020-07-26T13:01:46Z</time>
      </trkpt>
      <trkpt lat="45.54952" lon="6.00142">
        <ele>782.65</ele>
        <time>2020-07-26T13:01:59Z</time>
      </trkpt>
      <trkpt lat="45.54951" lon="6.00138">
        <ele>782.17</ele>
        <time>2020-07-26T13:02:06Z</time>
      </trkpt>
      <trkpt lat="45.54945" lon="6.00125">
        <ele>780.73</ele>
        <time>2020-07-26T13:02:20Z</time>
      </trkpt>
      <trkpt lat="45.54939" lon="6.00116">
        <ele>779.77</ele>
        <time>2020-07-26T13:02:29Z</time>
      </trkpt>
      <trkpt lat="45.54939" lon="6.00115">
        <ele>779.77</ele>
        <time>2020-07-26T13:02:30Z</time>
      </trkpt>
      <trkpt lat="45.54937" lon="6.00113">
        <ele>779.29</ele>
        <time>2020-07-26T13:02:32Z</time>
      </trkpt>
      <trkpt lat="45.54935" lon="6.00107">
        <ele>778.32</ele>
        <time>2020-07-26T13:02:36Z</time>
      </trkpt>
      <trkpt lat="45.54936" lon="6.00086">
        <ele>776.4</ele>
        <time>2020-07-26T13:02:52Z</time>
      </trkpt>
      <trkpt lat="45.54935" lon="6.00078">
        <ele>775.44</ele>
        <time>2020-07-26T13:02:58Z</time>
      </trkpt>
      <trkpt lat="45.54934" lon="6.00077">
        <ele>775.44</ele>
        <time>2020-07-26T13:02:59Z</time>
      </trkpt>
      <trkpt lat="45.54916" lon="6.0008">
        <ele>772.56</ele>
        <time>2020-07-26T13:03:17Z</time>
      </trkpt>
      <trkpt lat="45.5491" lon="6.00093">
        <ele>770.63</ele>
        <time>2020-07-26T13:03:31Z</time>
      </trkpt>
      <trkpt lat="45.54905" lon="6.00109">
        <ele>768.23</ele>
        <time>2020-07-26T13:03:44Z</time>
      </trkpt>
      <trkpt lat="45.54905" lon="6.0011">
        <ele>768.23</ele>
        <time>2020-07-26T13:03:45Z</time>
      </trkpt>
      <trkpt lat="45.54912" lon="6.00121">
        <ele>765.83</ele>
        <time>2020-07-26T13:03:59Z</time>
      </trkpt>
      <trkpt lat="45.54914" lon="6.00122">
        <ele>765.35</ele>
        <time>2020-07-26T13:04:01Z</time>
      </trkpt>
      <trkpt lat="45.54916" lon="6.00127">
        <ele>764.39</ele>
        <time>2020-07-26T13:04:05Z</time>
      </trkpt>
      <trkpt lat="45.54913" lon="6.00142">
        <ele>762.46</ele>
        <time>2020-07-26T13:04:18Z</time>
      </trkpt>
      <trkpt lat="45.5491" lon="6.00155">
        <ele>760.54</ele>
        <time>2020-07-26T13:04:32Z</time>
      </trkpt>
      <trkpt lat="45.54909" lon="6.00162">
        <ele>757.18</ele>
        <time>2020-07-26T13:04:40Z</time>
      </trkpt>
      <trkpt lat="45.54909" lon="6.00177">
        <ele>757.66</ele>
        <time>2020-07-26T13:04:57Z</time>
      </trkpt>
      <trkpt lat="45.54908" lon="6.00184">
        <ele>757.66</ele>
        <time>2020-07-26T13:05:02Z</time>
      </trkpt>
      <trkpt lat="45.54905" lon="6.00187">
        <ele>754.77</ele>
        <time>2020-07-26T13:05:09Z</time>
      </trkpt>
      <trkpt lat="45.54901" lon="6.00176">
        <ele>751.41</ele>
        <time>2020-07-26T13:05:26Z</time>
      </trkpt>
      <trkpt lat="45.54894" lon="6.0016">
        <ele>749.97</ele>
        <time>2020-07-26T13:05:42Z</time>
      </trkpt>
      <trkpt lat="45.54885" lon="6.00143">
        <ele>748.04</ele>
        <time>2020-07-26T13:06:01Z</time>
      </trkpt>
      <trkpt lat="45.5488" lon="6.00143">
        <ele>745.64</ele>
        <time>2020-07-26T13:06:18Z</time>
      </trkpt>
      <trkpt lat="45.54874" lon="6.00157">
        <ele>742.28</ele>
        <time>2020-07-26T13:06:35Z</time>
      </trkpt>
      <trkpt lat="45.54865" lon="6.00164">
        <ele>739.39</ele>
        <time>2020-07-26T13:06:51Z</time>
      </trkpt>
      <trkpt lat="45.54857" lon="6.00162">
        <ele>737.95</ele>
        <time>2020-07-26T13:07:02Z</time>
      </trkpt>
      <trkpt lat="45.54848" lon="6.00157">
        <ele>736.03</ele>
        <time>2020-07-26T13:07:12Z</time>
      </trkpt>
      <trkpt lat="45.54846" lon="6.00144">
        <ele>732.66</ele>
        <time>2020-07-26T13:07:25Z</time>
      </trkpt>
      <trkpt lat="45.54849" lon="6.00129">
        <ele>729.3</ele>
        <time>2020-07-26T13:07:39Z</time>
      </trkpt>
      <trkpt lat="45.5485" lon="6.00125">
        <ele>726.41</ele>
        <time>2020-07-26T13:07:43Z</time>
      </trkpt>
      <trkpt lat="45.54849" lon="6.00114">
        <ele>729.3</ele>
        <time>2020-07-26T13:07:52Z</time>
      </trkpt>
      <trkpt lat="45.54845" lon="6.00102">
        <ele>725.93</ele>
        <time>2020-07-26T13:08:04Z</time>
      </trkpt>
      <trkpt lat="45.5484" lon="6.00085">
        <ele>723.05</ele>
        <time>2020-07-26T13:08:17Z</time>
      </trkpt>
      <trkpt lat="45.54836" lon="6.00063">
        <ele>719.68</ele>
        <time>2020-07-26T13:08:34Z</time>
      </trkpt>
      <trkpt lat="45.54831" lon="6.00042">
        <ele>716.8</ele>
        <time>2020-07-26T13:08:49Z</time>
      </trkpt>
      <trkpt lat="45.54829" lon="6.00033">
        <ele>714.4</ele>
        <time>2020-07-26T13:09:20Z</time>
      </trkpt>
      <trkpt lat="45.54818" lon="6.00008">
        <ele>711.99</ele>
        <time>2020-07-26T13:09:39Z</time>
      </trkpt>
      <trkpt lat="45.54817" lon="6.00006">
        <ele>711.99</ele>
        <time>2020-07-26T13:09:40Z</time>
      </trkpt>
      <trkpt lat="45.5481" lon="5.99989">
        <ele>710.55</ele>
        <time>2020-07-26T13:09:55Z</time>
      </trkpt>
      <trkpt lat="45.54811" lon="5.99987">
        <ele>709.59</ele>
        <time>2020-07-26T13:10:22Z</time>
      </trkpt>
      <trkpt lat="45.54818" lon="5.99981">
        <ele>709.59</ele>
        <time>2020-07-26T13:10:43Z</time>
      </trkpt>
      <trkpt lat="45.54825" lon="5.99978">
        <ele>708.63</ele>
        <time>2020-07-26T13:10:56Z</time>
      </trkpt>
      <trkpt lat="45.54837" lon="5.99977">
        <ele>709.59</ele>
        <time>2020-07-26T13:11:21Z</time>
      </trkpt>
      <trkpt lat="45.54842" lon="5.99977">
        <ele>709.59</ele>
        <time>2020-07-26T13:11:30Z</time>
      </trkpt>
      <trkpt lat="45.54866" lon="5.99974">
        <ele>709.59</ele>
        <time>2020-07-26T13:11:57Z</time>
      </trkpt>
      <trkpt lat="45.54867" lon="5.99973">
        <ele>713.92</ele>
        <time>2020-07-26T13:11:58Z</time>
      </trkpt>
      <trkpt lat="45.54868" lon="5.99973">
        <ele>713.92</ele>
        <time>2020-07-26T13:11:59Z</time>
      </trkpt>
      <trkpt lat="45.54876" lon="5.99962">
        <ele>714.4</ele>
        <time>2020-07-26T13:12:27Z</time>
      </trkpt>
      <trkpt lat="45.54879" lon="5.99966">
        <ele>714.4</ele>
        <time>2020-07-26T13:12:52Z</time>
      </trkpt>
      <trkpt lat="45.54887" lon="5.99964">
        <ele>714.88</ele>
        <time>2020-07-26T13:13:16Z</time>
      </trkpt>
      <trkpt lat="45.54887" lon="5.99964">
        <ele>711.51</ele>
        <time>2020-07-26T13:13:32Z</time>
      </trkpt>
      <trkpt lat="45.54886" lon="5.99964">
        <ele>711.03</ele>
        <time>2020-07-26T13:13:33Z</time>
      </trkpt>
      <trkpt lat="45.54886" lon="5.99966">
        <ele>714.4</ele>
        <time>2020-07-26T13:13:38Z</time>
      </trkpt>
      <trkpt lat="45.54886" lon="5.99967">
        <ele>716.8</ele>
        <time>2020-07-26T13:13:41Z</time>
      </trkpt>
      <trkpt lat="45.54886" lon="5.99974">
        <ele>715.36</ele>
        <time>2020-07-26T13:14:22Z</time>
      </trkpt>
      <trkpt lat="45.54887" lon="5.99975">
        <ele>715.36</ele>
        <time>2020-07-26T13:14:32Z</time>
      </trkpt>
      <trkpt lat="45.54889" lon="5.99977">
        <ele>715.36</ele>
        <time>2020-07-26T13:14:34Z</time>
      </trkpt>
      <trkpt lat="45.54893" lon="5.99983">
        <ele>715.36</ele>
        <time>2020-07-26T13:14:41Z</time>
      </trkpt>
      <trkpt lat="45.5489" lon="5.99979">
        <ele>715.36</ele>
        <time>2020-07-26T13:15:22Z</time>
      </trkpt>
      <trkpt lat="45.54888" lon="5.99977">
        <ele>715.36</ele>
        <time>2020-07-26T13:15:26Z</time>
      </trkpt>
      <trkpt lat="45.54889" lon="5.99973">
        <ele>715.84</ele>
        <time>2020-07-26T13:16:03Z</time>
      </trkpt>
      <trkpt lat="45.54889" lon="5.99972">
        <ele>711.99</ele>
        <time>2020-07-26T13:16:10Z</time>
      </trkpt>
      <trkpt lat="45.54889" lon="5.99971">
        <ele>710.07</ele>
        <time>2020-07-26T13:16:12Z</time>
      </trkpt>
      <trkpt lat="45.54889" lon="5.99971">
        <ele>713.44</ele>
        <time>2020-07-26T13:16:20Z</time>
      </trkpt>
      <trkpt lat="45.54892" lon="5.99973">
        <ele>713.44</ele>
        <time>2020-07-26T13:16:32Z</time>
      </trkpt>
      <trkpt lat="45.54895" lon="5.99973">
        <ele>717.76</ele>
        <time>2020-07-26T13:16:39Z</time>
      </trkpt>
      <trkpt lat="45.54895" lon="5.99968">
        <ele>720.65</ele>
        <time>2020-07-26T13:16:42Z</time>
      </trkpt>
      <trkpt lat="45.54894" lon="5.99967">
        <ele>720.16</ele>
        <time>2020-07-26T13:16:43Z</time>
      </trkpt>
      <trkpt lat="45.54891" lon="5.99959">
        <ele>716.8</ele>
        <time>2020-07-26T13:16:47Z</time>
      </trkpt>
      <trkpt lat="45.5489" lon="5.99957">
        <ele>714.88</ele>
        <time>2020-07-26T13:16:50Z</time>
      </trkpt>
      <trkpt lat="45.54886" lon="5.99962">
        <ele>714.88</ele>
        <time>2020-07-26T13:17:21Z</time>
      </trkpt>
      <trkpt lat="45.54885" lon="5.99966">
        <ele>714.88</ele>
        <time>2020-07-26T13:17:58Z</time>
      </trkpt>
      <trkpt lat="45.54886" lon="5.99967">
        <ele>714.4</ele>
        <time>2020-07-26T13:18:36Z</time>
      </trkpt>
      <trkpt lat="45.5489" lon="5.99964">
        <ele>714.4</ele>
        <time>2020-07-26T13:19:08Z</time>
      </trkpt>
      <trkpt lat="45.5491" lon="5.99951">
        <ele>714.4</ele>
        <time>2020-07-26T13:19:33Z</time>
      </trkpt>
      <trkpt lat="45.54915" lon="5.99951">
        <ele>716.32</ele>
        <time>2020-07-26T13:19:39Z</time>
      </trkpt>
      <trkpt lat="45.54927" lon="5.99948">
        <ele>716.8</ele>
        <time>2020-07-26T13:19:57Z</time>
      </trkpt>
      <trkpt lat="45.54946" lon="5.99943">
        <ele>716.8</ele>
        <time>2020-07-26T13:20:20Z</time>
      </trkpt>
      <trkpt lat="45.54961" lon="5.99945">
        <ele>718.24</ele>
        <time>2020-07-26T13:20:39Z</time>
      </trkpt>
      <trkpt lat="45.54978" lon="5.99937">
        <ele>719.2</ele>
        <time>2020-07-26T13:21:00Z</time>
      </trkpt>
      <trkpt lat="45.54995" lon="5.99936">
        <ele>719.2</ele>
        <time>2020-07-26T13:21:20Z</time>
      </trkpt>
      <trkpt lat="45.55017" lon="5.99931">
        <ele>720.16</ele>
        <time>2020-07-26T13:21:47Z</time>
      </trkpt>
      <trkpt lat="45.55023" lon="5.99929">
        <ele>719.68</ele>
        <time>2020-07-26T13:22:03Z</time>
      </trkpt>
      <trkpt lat="45.55029" lon="5.99925">
        <ele>719.2</ele>
        <time>2020-07-26T13:22:24Z</time>
      </trkpt>
      <trkpt lat="45.55036" lon="5.99922">
        <ele>718.24</ele>
        <time>2020-07-26T13:22:48Z</time>
      </trkpt>
      <trkpt lat="45.55039" lon="5.99924">
        <ele>718.24</ele>
        <time>2020-07-26T13:22:52Z</time>
      </trkpt>
      <trkpt lat="45.55048" lon="5.99924">
        <ele>717.76</ele>
        <time>2020-07-26T13:23:08Z</time>
      </trkpt>
      <trkpt lat="45.55054" lon="5.99922">
        <ele>716.8</ele>
        <time>2020-07-26T13:23:20Z</time>
      </trkpt>
      <trkpt lat="45.55068" lon="5.99924">
        <ele>713.44</ele>
        <time>2020-07-26T13:23:40Z</time>
      </trkpt>
      <trkpt lat="45.55081" lon="5.99923">
        <ele>712.95</ele>
        <time>2020-07-26T13:23:55Z</time>
      </trkpt>
      <trkpt lat="45.55097" lon="5.99928">
        <ele>713.44</ele>
        <time>2020-07-26T13:24:16Z</time>
      </trkpt>
      <trkpt lat="45.55119" lon="5.9993">
        <ele>714.4</ele>
        <time>2020-07-26T13:24:43Z</time>
      </trkpt>
      <trkpt lat="45.5513" lon="5.99931">
        <ele>713.92</ele>
        <time>2020-07-26T13:24:57Z</time>
      </trkpt>
      <trkpt lat="45.55133" lon="5.99931">
        <ele>713.44</ele>
        <time>2020-07-26T13:25:01Z</time>
      </trkpt>
      <trkpt lat="45.55139" lon="5.99932">
        <ele>713.44</ele>
        <time>2020-07-26T13:25:06Z</time>
      </trkpt>
      <trkpt lat="45.55157" lon="5.99931">
        <ele>711.51</ele>
        <time>2020-07-26T13:25:27Z</time>
      </trkpt>
      <trkpt lat="45.55175" lon="5.99932">
        <ele>711.03</ele>
        <time>2020-07-26T13:25:47Z</time>
      </trkpt>
      <trkpt lat="45.55179" lon="5.99934">
        <ele>711.03</ele>
        <time>2020-07-26T13:25:52Z</time>
      </trkpt>
      <trkpt lat="45.55184" lon="5.99934">
        <ele>711.03</ele>
        <time>2020-07-26T13:25:56Z</time>
      </trkpt>
      <trkpt lat="45.55199" lon="5.99931">
        <ele>709.59</ele>
        <time>2020-07-26T13:26:16Z</time>
      </trkpt>
      <trkpt lat="45.55212" lon="5.99925">
        <ele>709.11</ele>
        <time>2020-07-26T13:26:32Z</time>
      </trkpt>
      <trkpt lat="45.55225" lon="5.99923">
        <ele>705.26</ele>
        <time>2020-07-26T13:26:44Z</time>
      </trkpt>
      <trkpt lat="45.55229" lon="5.99922">
        <ele>704.3</ele>
        <time>2020-07-26T13:26:47Z</time>
      </trkpt>
      <trkpt lat="45.55242" lon="5.99918">
        <ele>706.71</ele>
        <time>2020-07-26T13:27:04Z</time>
      </trkpt>
      <trkpt lat="45.55257" lon="5.99921">
        <ele>703.82</ele>
        <time>2020-07-26T13:27:25Z</time>
      </trkpt>
      <trkpt lat="45.55259" lon="5.99923">
        <ele>703.34</ele>
        <time>2020-07-26T13:27:29Z</time>
      </trkpt>
      <trkpt lat="45.55272" lon="5.9993">
        <ele>701.42</ele>
        <time>2020-07-26T13:27:47Z</time>
      </trkpt>
      <trkpt lat="45.55277" lon="5.99924">
        <ele>699.02</ele>
        <time>2020-07-26T13:28:00Z</time>
      </trkpt>
      <trkpt lat="45.55288" lon="5.99931">
        <ele>697.57</ele>
        <time>2020-07-26T13:28:14Z</time>
      </trkpt>
      <trkpt lat="45.55293" lon="5.99932">
        <ele>696.13</ele>
        <time>2020-07-26T13:28:29Z</time>
      </trkpt>
      <trkpt lat="45.55301" lon="5.99928">
        <ele>694.21</ele>
        <time>2020-07-26T13:28:56Z</time>
      </trkpt>
      <trkpt lat="45.55313" lon="5.99928">
        <ele>693.73</ele>
        <time>2020-07-26T13:29:14Z</time>
      </trkpt>
      <trkpt lat="45.55325" lon="5.99925">
        <ele>691.33</ele>
        <time>2020-07-26T13:29:31Z</time>
      </trkpt>
      <trkpt lat="45.55336" lon="5.99918">
        <ele>688.92</ele>
        <time>2020-07-26T13:29:55Z</time>
      </trkpt>
      <trkpt lat="45.55346" lon="5.99918">
        <ele>687.48</ele>
        <time>2020-07-26T13:30:09Z</time>
      </trkpt>
      <trkpt lat="45.55356" lon="5.99914">
        <ele>684.6</ele>
        <time>2020-07-26T13:30:35Z</time>
      </trkpt>
      <trkpt lat="45.55359" lon="5.99908">
        <ele>682.19</ele>
        <time>2020-07-26T13:31:03Z</time>
      </trkpt>
      <trkpt lat="45.55368" lon="5.99906">
        <ele>679.31</ele>
        <time>2020-07-26T13:31:23Z</time>
      </trkpt>
      <trkpt lat="45.55375" lon="5.99903">
        <ele>675.94</ele>
        <time>2020-07-26T13:31:37Z</time>
      </trkpt>
      <trkpt lat="45.55385" lon="5.99899">
        <ele>672.58</ele>
        <time>2020-07-26T13:31:54Z</time>
      </trkpt>
      <trkpt lat="45.55388" lon="5.999">
        <ele>669.7</ele>
        <time>2020-07-26T13:32:08Z</time>
      </trkpt>
      <trkpt lat="45.55389" lon="5.99901">
        <ele>668.25</ele>
        <time>2020-07-26T13:32:11Z</time>
      </trkpt>
      <trkpt lat="45.55401" lon="5.99895">
        <ele>668.25</ele>
        <time>2020-07-26T13:32:31Z</time>
      </trkpt>
      <trkpt lat="45.55403" lon="5.99893">
        <ele>666.81</ele>
        <time>2020-07-26T13:32:36Z</time>
      </trkpt>
      <trkpt lat="45.55405" lon="5.99892">
        <ele>665.85</ele>
        <time>2020-07-26T13:32:39Z</time>
      </trkpt>
      <trkpt lat="45.55406" lon="5.99892">
        <ele>665.37</ele>
        <time>2020-07-26T13:32:40Z</time>
      </trkpt>
      <trkpt lat="45.5542" lon="5.99896">
        <ele>662.49</ele>
        <time>2020-07-26T13:32:53Z</time>
      </trkpt>
      <trkpt lat="45.5543" lon="5.99895">
        <ele>659.12</ele>
        <time>2020-07-26T13:33:07Z</time>
      </trkpt>
      <trkpt lat="45.55444" lon="5.99892">
        <ele>655.76</ele>
        <time>2020-07-26T13:33:23Z</time>
      </trkpt>
      <trkpt lat="45.55456" lon="5.99893">
        <ele>652.87</ele>
        <time>2020-07-26T13:33:38Z</time>
      </trkpt>
      <trkpt lat="45.55474" lon="5.99901">
        <ele>651.43</ele>
        <time>2020-07-26T13:33:58Z</time>
      </trkpt>
      <trkpt lat="45.55476" lon="5.99901">
        <ele>650.47</ele>
        <time>2020-07-26T13:34:07Z</time>
      </trkpt>
      <trkpt lat="45.55482" lon="5.99893">
        <ele>648.55</ele>
        <time>2020-07-26T13:34:41Z</time>
      </trkpt>
      <trkpt lat="45.55489" lon="5.99888">
        <ele>646.62</ele>
        <time>2020-07-26T13:35:01Z</time>
      </trkpt>
      <trkpt lat="45.5549" lon="5.99882">
        <ele>643.74</ele>
        <time>2020-07-26T13:35:22Z</time>
      </trkpt>
      <trkpt lat="45.55492" lon="5.99881">
        <ele>642.78</ele>
        <time>2020-07-26T13:35:53Z</time>
      </trkpt>
      <trkpt lat="45.55495" lon="5.99883">
        <ele>642.78</ele>
        <time>2020-07-26T13:36:43Z</time>
      </trkpt>
      <trkpt lat="45.55508" lon="5.99875">
        <ele>640.86</ele>
        <time>2020-07-26T13:37:05Z</time>
      </trkpt>
      <trkpt lat="45.55527" lon="5.99868">
        <ele>638.45</ele>
        <time>2020-07-26T13:37:30Z</time>
      </trkpt>
      <trkpt lat="45.55534" lon="5.99865">
        <ele>635.57</ele>
        <time>2020-07-26T13:37:49Z</time>
      </trkpt>
      <trkpt lat="45.55537" lon="5.99858">
        <ele>632.2</ele>
        <time>2020-07-26T13:38:04Z</time>
      </trkpt>
      <trkpt lat="45.55541" lon="5.99858">
        <ele>629.32</ele>
        <time>2020-07-26T13:38:31Z</time>
      </trkpt>
      <trkpt lat="45.55548" lon="5.99861">
        <ele>627.88</ele>
        <time>2020-07-26T13:38:46Z</time>
      </trkpt>
      <trkpt lat="45.55554" lon="5.99862">
        <ele>625.47</ele>
        <time>2020-07-26T13:39:05Z</time>
      </trkpt>
      <trkpt lat="45.55558" lon="5.99858">
        <ele>622.11</ele>
        <time>2020-07-26T13:39:21Z</time>
      </trkpt>
      <trkpt lat="45.55563" lon="5.99853">
        <ele>619.71</ele>
        <time>2020-07-26T13:39:43Z</time>
      </trkpt>
      <trkpt lat="45.55564" lon="5.99852">
        <ele>619.23</ele>
        <time>2020-07-26T13:40:19Z</time>
      </trkpt>
      <trkpt lat="45.55563" lon="5.9985">
        <ele>619.23</ele>
        <time>2020-07-26T13:40:39Z</time>
      </trkpt>
      <trkpt lat="45.55574" lon="5.99845">
        <ele>617.78</ele>
        <time>2020-07-26T13:41:07Z</time>
      </trkpt>
      <trkpt lat="45.55591" lon="5.99841">
        <ele>617.3</ele>
        <time>2020-07-26T13:41:27Z</time>
      </trkpt>
      <trkpt lat="45.55605" lon="5.99845">
        <ele>617.3</ele>
        <time>2020-07-26T13:41:52Z</time>
      </trkpt>
      <trkpt lat="45.55622" lon="5.99841">
        <ele>614.42</ele>
        <time>2020-07-26T13:42:11Z</time>
      </trkpt>
      <trkpt lat="45.55626" lon="5.99836">
        <ele>616.34</ele>
        <time>2020-07-26T13:42:32Z</time>
      </trkpt>
      <trkpt lat="45.55628" lon="5.99834">
        <ele>615.86</ele>
        <time>2020-07-26T13:42:55Z</time>
      </trkpt>
      <trkpt lat="45.55632" lon="5.99831">
        <ele>615.86</ele>
        <time>2020-07-26T13:43:09Z</time>
      </trkpt>
      <trkpt lat="45.55636" lon="5.9983">
        <ele>615.86</ele>
        <time>2020-07-26T13:43:36Z</time>
      </trkpt>
      <trkpt lat="45.55637" lon="5.99834">
        <ele>615.86</ele>
        <time>2020-07-26T13:44:01Z</time>
      </trkpt>
      <trkpt lat="45.55639" lon="5.99836">
        <ele>615.86</ele>
        <time>2020-07-26T13:44:25Z</time>
      </trkpt>
      <trkpt lat="45.55639" lon="5.99833">
        <ele>615.86</ele>
        <time>2020-07-26T13:45:16Z</time>
      </trkpt>
      <trkpt lat="45.55641" lon="5.99829">
        <ele>615.86</ele>
        <time>2020-07-26T13:45:44Z</time>
      </trkpt>
      <trkpt lat="45.55646" lon="5.99817">
        <ele>615.38</ele>
        <time>2020-07-26T13:45:59Z</time>
      </trkpt>
      <trkpt lat="45.55639" lon="5.99813">
        <ele>612.98</ele>
        <time>2020-07-26T13:46:11Z</time>
      </trkpt>
      <trkpt lat="45.55635" lon="5.99809">
        <ele>610.09</ele>
        <time>2020-07-26T13:46:26Z</time>
      </trkpt>
      <trkpt lat="45.55632" lon="5.99807">
        <ele>609.61</ele>
        <time>2020-07-26T13:46:30Z</time>
      </trkpt>
      <trkpt lat="45.55626" lon="5.99801">
        <ele>606.25</ele>
        <time>2020-07-26T13:46:45Z</time>
      </trkpt>
      <trkpt lat="45.55619" lon="5.99796">
        <ele>603.36</ele>
        <time>2020-07-26T13:46:58Z</time>
      </trkpt>
      <trkpt lat="45.55611" lon="5.9979">
        <ele>600.48</ele>
        <time>2020-07-26T13:47:13Z</time>
      </trkpt>
      <trkpt lat="45.55609" lon="5.99788">
        <ele>600</ele>
        <time>2020-07-26T13:47:16Z</time>
      </trkpt>
      <trkpt lat="45.55605" lon="5.99777">
        <ele>597.12</ele>
        <time>2020-07-26T13:47:30Z</time>
      </trkpt>
      <trkpt lat="45.55603" lon="5.99771">
        <ele>593.75</ele>
        <time>2020-07-26T13:47:44Z</time>
      </trkpt>
      <trkpt lat="45.55602" lon="5.99766">
        <ele>592.79</ele>
        <time>2020-07-26T13:47:49Z</time>
      </trkpt>
      <trkpt lat="45.55599" lon="5.99759">
        <ele>589.43</ele>
        <time>2020-07-26T13:47:56Z</time>
      </trkpt>
      <trkpt lat="45.55599" lon="5.99758">
        <ele>588.46</ele>
        <time>2020-07-26T13:47:58Z</time>
      </trkpt>
      <trkpt lat="45.55597" lon="5.99753">
        <ele>586.54</ele>
        <time>2020-07-26T13:48:05Z</time>
      </trkpt>
      <trkpt lat="45.55595" lon="5.99746">
        <ele>588.95</ele>
        <time>2020-07-26T13:48:12Z</time>
      </trkpt>
      <trkpt lat="45.55592" lon="5.99735">
        <ele>585.58</ele>
        <time>2020-07-26T13:48:24Z</time>
      </trkpt>
      <trkpt lat="45.55591" lon="5.99731">
        <ele>584.62</ele>
        <time>2020-07-26T13:48:27Z</time>
      </trkpt>
      <trkpt lat="45.5559" lon="5.99729">
        <ele>584.62</ele>
        <time>2020-07-26T13:48:28Z</time>
      </trkpt>
      <trkpt lat="45.5559" lon="5.99728">
        <ele>584.62</ele>
        <time>2020-07-26T13:48:29Z</time>
      </trkpt>
      <trkpt lat="45.55584" lon="5.99709">
        <ele>581.25</ele>
        <time>2020-07-26T13:48:45Z</time>
      </trkpt>
      <trkpt lat="45.55582" lon="5.99701">
        <ele>580.29</ele>
        <time>2020-07-26T13:49:16Z</time>
      </trkpt>
      <trkpt lat="45.55581" lon="5.99692">
        <ele>577.41</ele>
        <time>2020-07-26T13:49:24Z</time>
      </trkpt>
      <trkpt lat="45.55581" lon="5.99689">
        <ele>576.93</ele>
        <time>2020-07-26T13:49:26Z</time>
      </trkpt>
      <trkpt lat="45.55582" lon="5.9968">
        <ele>577.89</ele>
        <time>2020-07-26T13:49:39Z</time>
      </trkpt>
      <trkpt lat="45.55583" lon="5.99676">
        <ele>575.01</ele>
        <time>2020-07-26T13:49:55Z</time>
      </trkpt>
      <trkpt lat="45.55584" lon="5.99676">
        <ele>573.56</ele>
        <time>2020-07-26T13:50:12Z</time>
      </trkpt>
      <trkpt lat="45.55582" lon="5.99674">
        <ele>574.04</ele>
        <time>2020-07-26T13:50:31Z</time>
      </trkpt>
      <trkpt lat="45.55585" lon="5.99663">
        <ele>573.08</ele>
        <time>2020-07-26T13:50:53Z</time>
      </trkpt>
      <trkpt lat="45.55586" lon="5.9965">
        <ele>570.2</ele>
        <time>2020-07-26T13:51:05Z</time>
      </trkpt>
      <trkpt lat="45.55588" lon="5.99639">
        <ele>566.83</ele>
        <time>2020-07-26T13:51:16Z</time>
      </trkpt>
      <trkpt lat="45.55589" lon="5.9963">
        <ele>563.95</ele>
        <time>2020-07-26T13:51:27Z</time>
      </trkpt>
      <trkpt lat="45.55588" lon="5.99629">
        <ele>563.47</ele>
        <time>2020-07-26T13:51:28Z</time>
      </trkpt>
      <trkpt lat="45.55588" lon="5.99627">
        <ele>563.47</ele>
        <time>2020-07-26T13:51:29Z</time>
      </trkpt>
      <trkpt lat="45.55588" lon="5.99625">
        <ele>562.99</ele>
        <time>2020-07-26T13:51:30Z</time>
      </trkpt>
      <trkpt lat="45.55587" lon="5.99624">
        <ele>562.99</ele>
        <time>2020-07-26T13:51:31Z</time>
      </trkpt>
      <trkpt lat="45.5559" lon="5.99612">
        <ele>559.62</ele>
        <time>2020-07-26T13:51:41Z</time>
      </trkpt>
      <trkpt lat="45.5559" lon="5.9961">
        <ele>559.62</ele>
        <time>2020-07-26T13:51:43Z</time>
      </trkpt>
      <trkpt lat="45.5559" lon="5.99606">
        <ele>558.66</ele>
        <time>2020-07-26T13:51:46Z</time>
      </trkpt>
      <trkpt lat="45.5559" lon="5.99594">
        <ele>555.3</ele>
        <time>2020-07-26T13:52:00Z</time>
      </trkpt>
      <trkpt lat="45.55594" lon="5.99583">
        <ele>553.86</ele>
        <time>2020-07-26T13:52:17Z</time>
      </trkpt>
      <trkpt lat="45.55601" lon="5.99572">
        <ele>550.97</ele>
        <time>2020-07-26T13:52:33Z</time>
      </trkpt>
      <trkpt lat="45.55616" lon="5.99557">
        <ele>547.61</ele>
        <time>2020-07-26T13:52:55Z</time>
      </trkpt>
      <trkpt lat="45.55624" lon="5.99553">
        <ele>547.61</ele>
        <time>2020-07-26T13:53:16Z</time>
      </trkpt>
      <trkpt lat="45.55624" lon="5.99548">
        <ele>547.13</ele>
        <time>2020-07-26T13:53:27Z</time>
      </trkpt>
      <trkpt lat="45.55625" lon="5.99547">
        <ele>547.13</ele>
        <time>2020-07-26T13:53:48Z</time>
      </trkpt>
      <trkpt lat="45.55624" lon="5.99547">
        <ele>547.13</ele>
        <time>2020-07-26T13:54:20Z</time>
      </trkpt>
      <trkpt lat="45.55624" lon="5.9954">
        <ele>547.13</ele>
        <time>2020-07-26T13:54:47Z</time>
      </trkpt>
      <trkpt lat="45.55616" lon="5.99536">
        <ele>540.4</ele>
        <time>2020-07-26T13:55:04Z</time>
      </trkpt>
      <trkpt lat="45.55615" lon="5.99537">
        <ele>540.4</ele>
        <time>2020-07-26T13:55:05Z</time>
      </trkpt>
      <trkpt lat="45.55619" lon="5.99528">
        <ele>537.99</ele>
        <time>2020-07-26T13:55:26Z</time>
      </trkpt>
      <trkpt lat="45.55627" lon="5.99522">
        <ele>535.11</ele>
        <time>2020-07-26T13:55:44Z</time>
      </trkpt>
      <trkpt lat="45.5562" lon="5.99515">
        <ele>532.71</ele>
        <time>2020-07-26T13:55:59Z</time>
      </trkpt>
      <trkpt lat="45.55624" lon="5.99508">
        <ele>529.82</ele>
        <time>2020-07-26T13:56:12Z</time>
      </trkpt>
      <trkpt lat="45.55632" lon="5.99503">
        <ele>526.46</ele>
        <time>2020-07-26T13:56:24Z</time>
      </trkpt>
      <trkpt lat="45.55629" lon="5.99486">
        <ele>523.09</ele>
        <time>2020-07-26T13:56:38Z</time>
      </trkpt>
      <trkpt lat="45.55627" lon="5.99487">
        <ele>521.65</ele>
        <time>2020-07-26T13:57:06Z</time>
      </trkpt>
      <trkpt lat="45.55625" lon="5.9949">
        <ele>521.17</ele>
        <time>2020-07-26T13:57:31Z</time>
      </trkpt>
      <trkpt lat="45.55624" lon="5.99489">
        <ele>521.17</ele>
        <time>2020-07-26T13:58:13Z</time>
      </trkpt>
      <trkpt lat="45.55622" lon="5.99486">
        <ele>520.69</ele>
        <time>2020-07-26T13:58:32Z</time>
      </trkpt>
      <trkpt lat="45.55626" lon="5.99482">
        <ele>521.17</ele>
        <time>2020-07-26T13:58:46Z</time>
      </trkpt>
      <trkpt lat="45.55624" lon="5.99481">
        <ele>521.17</ele>
        <time>2020-07-26T13:59:12Z</time>
      </trkpt>
      <trkpt lat="45.55613" lon="5.99485">
        <ele>518.29</ele>
        <time>2020-07-26T13:59:28Z</time>
      </trkpt>
      <trkpt lat="45.55611" lon="5.99481">
        <ele>516.37</ele>
        <time>2020-07-26T13:59:52Z</time>
      </trkpt>
      <trkpt lat="45.55608" lon="5.99467">
        <ele>514.92</ele>
        <time>2020-07-26T14:00:15Z</time>
      </trkpt>
      <trkpt lat="45.55605" lon="5.9946">
        <ele>513.96</ele>
        <time>2020-07-26T14:00:21Z</time>
      </trkpt>
      <trkpt lat="45.55602" lon="5.99463">
        <ele>511.08</ele>
        <time>2020-07-26T14:00:34Z</time>
      </trkpt>
      <trkpt lat="45.55602" lon="5.99463">
        <ele>511.08</ele>
        <time>2020-07-26T14:00:35Z</time>
      </trkpt>
      <trkpt lat="45.55603" lon="5.99473">
        <ele>509.16</ele>
        <time>2020-07-26T14:01:00Z</time>
      </trkpt>
      <trkpt lat="45.55597" lon="5.99473">
        <ele>506.75</ele>
        <time>2020-07-26T14:01:20Z</time>
      </trkpt>
      <trkpt lat="45.55594" lon="5.99468">
        <ele>504.35</ele>
        <time>2020-07-26T14:01:38Z</time>
      </trkpt>
      <trkpt lat="45.55593" lon="5.99475">
        <ele>503.39</ele>
        <time>2020-07-26T14:02:03Z</time>
      </trkpt>
      <trkpt lat="45.55585" lon="5.99484">
        <ele>500.02</ele>
        <time>2020-07-26T14:02:18Z</time>
      </trkpt>
      <trkpt lat="45.55583" lon="5.99488">
        <ele>497.62</ele>
        <time>2020-07-26T14:02:37Z</time>
      </trkpt>
      <trkpt lat="45.55586" lon="5.99488">
        <ele>497.62</ele>
        <time>2020-07-26T14:02:57Z</time>
      </trkpt>
      <trkpt lat="45.55582" lon="5.99472">
        <ele>496.18</ele>
        <time>2020-07-26T14:03:23Z</time>
      </trkpt>
      <trkpt lat="45.5558" lon="5.99467">
        <ele>494.74</ele>
        <time>2020-07-26T14:03:28Z</time>
      </trkpt>
      <trkpt lat="45.55578" lon="5.99465">
        <ele>494.26</ele>
        <time>2020-07-26T14:03:31Z</time>
      </trkpt>
      <trkpt lat="45.55572" lon="5.99467">
        <ele>490.89</ele>
        <time>2020-07-26T14:03:44Z</time>
      </trkpt>
      <trkpt lat="45.55566" lon="5.99469">
        <ele>488.01</ele>
        <time>2020-07-26T14:03:57Z</time>
      </trkpt>
      <trkpt lat="45.5556" lon="5.99464">
        <ele>484.64</ele>
        <time>2020-07-26T14:04:10Z</time>
      </trkpt>
      <trkpt lat="45.55558" lon="5.99455">
        <ele>481.76</ele>
        <time>2020-07-26T14:04:23Z</time>
      </trkpt>
      <trkpt lat="45.55556" lon="5.99454">
        <ele>478.39</ele>
        <time>2020-07-26T14:04:40Z</time>
      </trkpt>
      <trkpt lat="45.55557" lon="5.99461">
        <ele>479.84</ele>
        <time>2020-07-26T14:05:23Z</time>
      </trkpt>
      <trkpt lat="45.55553" lon="5.99462">
        <ele>479.84</ele>
        <time>2020-07-26T14:06:09Z</time>
      </trkpt>
      <trkpt lat="45.55551" lon="5.99459">
        <ele>479.35</ele>
        <time>2020-07-26T14:06:53Z</time>
      </trkpt>
      <trkpt lat="45.55554" lon="5.99457">
        <ele>479.35</ele>
        <time>2020-07-26T14:07:31Z</time>
      </trkpt>
      <trkpt lat="45.5555" lon="5.99448">
        <ele>478.87</ele>
        <time>2020-07-26T14:08:09Z</time>
      </trkpt>
      <trkpt lat="45.55552" lon="5.99454">
        <ele>479.35</ele>
        <time>2020-07-26T14:08:50Z</time>
      </trkpt>
      <trkpt lat="45.5555" lon="5.99453">
        <ele>478.87</ele>
        <time>2020-07-26T14:09:21Z</time>
      </trkpt>
      <trkpt lat="45.55551" lon="5.99454">
        <ele>477.43</ele>
        <time>2020-07-26T14:09:43Z</time>
      </trkpt>
      <trkpt lat="45.55551" lon="5.99455">
        <ele>476.95</ele>
        <time>2020-07-26T14:10:10Z</time>
      </trkpt>
      <trkpt lat="45.55546" lon="5.99458">
        <ele>475.99</ele>
        <time>2020-07-26T14:10:29Z</time>
      </trkpt>
      <trkpt lat="45.55537" lon="5.99459">
        <ele>473.59</ele>
        <time>2020-07-26T14:10:44Z</time>
      </trkpt>
      <trkpt lat="45.5554" lon="5.99465">
        <ele>473.59</ele>
        <time>2020-07-26T14:11:16Z</time>
      </trkpt>
      <trkpt lat="45.55532" lon="5.99464">
        <ele>472.14</ele>
        <time>2020-07-26T14:11:34Z</time>
      </trkpt>
      <trkpt lat="45.55529" lon="5.99461">
        <ele>471.66</ele>
        <time>2020-07-26T14:11:39Z</time>
      </trkpt>
      <trkpt lat="45.55522" lon="5.99461">
        <ele>469.26</ele>
        <time>2020-07-26T14:11:57Z</time>
      </trkpt>
      <trkpt lat="45.55518" lon="5.9946">
        <ele>468.78</ele>
        <time>2020-07-26T14:12:24Z</time>
      </trkpt>
      <trkpt lat="45.55508" lon="5.99465">
        <ele>467.34</ele>
        <time>2020-07-26T14:12:36Z</time>
      </trkpt>
      <trkpt lat="45.55507" lon="5.99465">
        <ele>467.34</ele>
        <time>2020-07-26T14:12:37Z</time>
      </trkpt>
      <trkpt lat="45.55506" lon="5.99466">
        <ele>467.34</ele>
        <time>2020-07-26T14:12:38Z</time>
      </trkpt>
      <trkpt lat="45.55494" lon="5.9947">
        <ele>465.42</ele>
        <time>2020-07-26T14:12:56Z</time>
      </trkpt>
      <trkpt lat="45.55484" lon="5.99466">
        <ele>464.93</ele>
        <time>2020-07-26T14:13:07Z</time>
      </trkpt>
      <trkpt lat="45.55483" lon="5.99465">
        <ele>464.45</ele>
        <time>2020-07-26T14:13:08Z</time>
      </trkpt>
      <trkpt lat="45.55482" lon="5.99464">
        <ele>464.45</ele>
        <time>2020-07-26T14:13:09Z</time>
      </trkpt>
      <trkpt lat="45.5547" lon="5.99463">
        <ele>461.09</ele>
        <time>2020-07-26T14:13:21Z</time>
      </trkpt>
      <trkpt lat="45.55456" lon="5.99464">
        <ele>459.17</ele>
        <time>2020-07-26T14:13:39Z</time>
      </trkpt>
      <trkpt lat="45.55455" lon="5.99463">
        <ele>459.17</ele>
        <time>2020-07-26T14:13:40Z</time>
      </trkpt>
      <trkpt lat="45.5544" lon="5.99462">
        <ele>456.28</ele>
        <time>2020-07-26T14:13:57Z</time>
      </trkpt>
      <trkpt lat="45.55426" lon="5.99454">
        <ele>452.92</ele>
        <time>2020-07-26T14:14:12Z</time>
      </trkpt>
      <trkpt lat="45.5542" lon="5.99447">
        <ele>450.03</ele>
        <time>2020-07-26T14:14:19Z</time>
      </trkpt>
      <trkpt lat="45.55418" lon="5.99442">
        <ele>447.63</ele>
        <time>2020-07-26T14:14:23Z</time>
      </trkpt>
      <trkpt lat="45.55416" lon="5.99433">
        <ele>447.63</ele>
        <time>2020-07-26T14:14:29Z</time>
      </trkpt>
      <trkpt lat="45.55408" lon="5.99417">
        <ele>448.59</ele>
        <time>2020-07-26T14:14:44Z</time>
      </trkpt>
      <trkpt lat="45.55407" lon="5.99416">
        <ele>449.07</ele>
        <time>2020-07-26T14:14:46Z</time>
      </trkpt>
      <trkpt lat="45.55405" lon="5.99414">
        <ele>449.07</ele>
        <time>2020-07-26T14:14:48Z</time>
      </trkpt>
      <trkpt lat="45.55404" lon="5.99413">
        <ele>448.59</ele>
        <time>2020-07-26T14:14:49Z</time>
      </trkpt>
      <trkpt lat="45.55396" lon="5.99408">
        <ele>445.71</ele>
        <time>2020-07-26T14:14:57Z</time>
      </trkpt>
      <trkpt lat="45.55392" lon="5.99404">
        <ele>444.75</ele>
        <time>2020-07-26T14:15:01Z</time>
      </trkpt>
      <trkpt lat="45.55381" lon="5.99386">
        <ele>442.34</ele>
        <time>2020-07-26T14:15:16Z</time>
      </trkpt>
      <trkpt lat="45.55377" lon="5.9938">
        <ele>440.42</ele>
        <time>2020-07-26T14:15:31Z</time>
      </trkpt>
      <trkpt lat="45.55376" lon="5.99383">
        <ele>439.94</ele>
        <time>2020-07-26T14:16:10Z</time>
      </trkpt>
      <trkpt lat="45.55373" lon="5.99384">
        <ele>439.94</ele>
        <time>2020-07-26T14:16:19Z</time>
      </trkpt>
      <trkpt lat="45.55372" lon="5.99385">
        <ele>439.94</ele>
        <time>2020-07-26T14:16:20Z</time>
      </trkpt>
      <trkpt lat="45.55371" lon="5.99385">
        <ele>439.94</ele>
        <time>2020-07-26T14:16:21Z</time>
      </trkpt>
      <trkpt lat="45.55369" lon="5.99386">
        <ele>439.94</ele>
        <time>2020-07-26T14:16:24Z</time>
      </trkpt>
      <trkpt lat="45.55353" lon="5.99391">
        <ele>437.06</ele>
        <time>2020-07-26T14:16:43Z</time>
      </trkpt>
      <trkpt lat="45.55332" lon="5.99402">
        <ele>435.61</ele>
        <time>2020-07-26T14:17:03Z</time>
      </trkpt>
      <trkpt lat="45.55316" lon="5.99411">
        <ele>435.13</ele>
        <time>2020-07-26T14:17:19Z</time>
      </trkpt>
      <trkpt lat="45.55303" lon="5.99408">
        <ele>434.65</ele>
        <time>2020-07-26T14:17:30Z</time>
      </trkpt>
      <trkpt lat="45.5529" lon="5.99411">
        <ele>432.73</ele>
        <time>2020-07-26T14:17:46Z</time>
      </trkpt>
      <trkpt lat="45.55287" lon="5.99411">
        <ele>431.77</ele>
        <time>2020-07-26T14:18:08Z</time>
      </trkpt>
      <trkpt lat="45.55287" lon="5.99411">
        <ele>431.77</ele>
        <time>2020-07-26T14:18:36Z</time>
      </trkpt>
      <trkpt lat="45.55283" lon="5.99409">
        <ele>431.29</ele>
        <time>2020-07-26T14:19:14Z</time>
      </trkpt>
      <trkpt lat="45.55286" lon="5.99408">
        <ele>430.81</ele>
        <time>2020-07-26T14:19:55Z</time>
      </trkpt>
      <trkpt lat="45.55283" lon="5.99406">
        <ele>430.81</ele>
        <time>2020-07-26T14:20:39Z</time>
      </trkpt>
      <trkpt lat="45.55284" lon="5.99408">
        <ele>430.81</ele>
        <time>2020-07-26T14:21:19Z</time>
      </trkpt>
      <trkpt lat="45.55284" lon="5.99409">
        <ele>430.81</ele>
        <time>2020-07-26T14:21:56Z</time>
      </trkpt>
      <trkpt lat="45.55274" lon="5.99417">
        <ele>430.81</ele>
        <time>2020-07-26T14:22:18Z</time>
      </trkpt>
      <trkpt lat="45.55265" lon="5.9942">
        <ele>430.81</ele>
        <time>2020-07-26T14:22:28Z</time>
      </trkpt>
      <trkpt lat="45.5526" lon="5.99424">
        <ele>429.37</ele>
        <time>2020-07-26T14:22:35Z</time>
      </trkpt>
      <trkpt lat="45.55242" lon="5.99439">
        <ele>427.44</ele>
        <time>2020-07-26T14:22:59Z</time>
      </trkpt>
      <trkpt lat="45.55232" lon="5.99435">
        <ele>425.52</ele>
        <time>2020-07-26T14:23:13Z</time>
      </trkpt>
      <trkpt lat="45.55229" lon="5.99432">
        <ele>425.04</ele>
        <time>2020-07-26T14:23:17Z</time>
      </trkpt>
      <trkpt lat="45.55222" lon="5.99425">
        <ele>423.6</ele>
        <time>2020-07-26T14:23:26Z</time>
      </trkpt>
      <trkpt lat="45.5522" lon="5.99424">
        <ele>423.12</ele>
        <time>2020-07-26T14:23:27Z</time>
      </trkpt>
      <trkpt lat="45.55211" lon="5.99423">
        <ele>420.23</ele>
        <time>2020-07-26T14:23:39Z</time>
      </trkpt>
      <trkpt lat="45.55205" lon="5.99423">
        <ele>418.31</ele>
        <time>2020-07-26T14:23:48Z</time>
      </trkpt>
      <trkpt lat="45.55195" lon="5.9942">
        <ele>414.95</ele>
        <time>2020-07-26T14:24:03Z</time>
      </trkpt>
      <trkpt lat="45.55185" lon="5.9942">
        <ele>412.06</ele>
        <time>2020-07-26T14:24:16Z</time>
      </trkpt>
      <trkpt lat="45.55175" lon="5.99414">
        <ele>408.7</ele>
        <time>2020-07-26T14:24:28Z</time>
      </trkpt>
      <trkpt lat="45.55165" lon="5.99408">
        <ele>405.81</ele>
        <time>2020-07-26T14:24:41Z</time>
      </trkpt>
      <trkpt lat="45.55156" lon="5.99397">
        <ele>402.45</ele>
        <time>2020-07-26T14:24:55Z</time>
      </trkpt>
      <trkpt lat="45.55156" lon="5.99385">
        <ele>399.57</ele>
        <time>2020-07-26T14:25:07Z</time>
      </trkpt>
      <trkpt lat="45.5516" lon="5.99374">
        <ele>396.2</ele>
        <time>2020-07-26T14:25:17Z</time>
      </trkpt>
      <trkpt lat="45.55164" lon="5.99361">
        <ele>393.32</ele>
        <time>2020-07-26T14:25:29Z</time>
      </trkpt>
      <trkpt lat="45.55169" lon="5.99338">
        <ele>390.43</ele>
        <time>2020-07-26T14:25:48Z</time>
      </trkpt>
      <trkpt lat="45.55173" lon="5.99312">
        <ele>387.07</ele>
        <time>2020-07-26T14:26:03Z</time>
      </trkpt>
      <trkpt lat="45.55172" lon="5.99298">
        <ele>385.15</ele>
        <time>2020-07-26T14:26:20Z</time>
      </trkpt>
      <trkpt lat="45.55172" lon="5.99299">
        <ele>382.26</ele>
        <time>2020-07-26T14:26:25Z</time>
      </trkpt>
      <trkpt lat="45.55173" lon="5.99299">
        <ele>380.82</ele>
        <time>2020-07-26T14:26:28Z</time>
      </trkpt>
      <trkpt lat="45.5517" lon="5.99291">
        <ele>383.7</ele>
        <time>2020-07-26T14:26:40Z</time>
      </trkpt>
      <trkpt lat="45.55171" lon="5.99291">
        <ele>387.07</ele>
        <time>2020-07-26T14:26:57Z</time>
      </trkpt>
      <trkpt lat="45.55173" lon="5.99294">
        <ele>384.18</ele>
        <time>2020-07-26T14:27:19Z</time>
      </trkpt>
      <trkpt lat="45.55175" lon="5.99292">
        <ele>382.74</ele>
        <time>2020-07-26T14:27:21Z</time>
      </trkpt>
      <trkpt lat="45.55182" lon="5.99277">
        <ele>382.26</ele>
        <time>2020-07-26T14:27:40Z</time>
      </trkpt>
      <trkpt lat="45.55181" lon="5.99275">
        <ele>382.74</ele>
        <time>2020-07-26T14:27:47Z</time>
      </trkpt>
      <trkpt lat="45.55182" lon="5.99267">
        <ele>383.22</ele>
        <time>2020-07-26T14:27:52Z</time>
      </trkpt>
      <trkpt lat="45.55182" lon="5.99265">
        <ele>383.22</ele>
        <time>2020-07-26T14:27:53Z</time>
      </trkpt>
      <trkpt lat="45.55181" lon="5.99249">
        <ele>381.3</ele>
        <time>2020-07-26T14:28:07Z</time>
      </trkpt>
      <trkpt lat="45.5518" lon="5.99238">
        <ele>379.38</ele>
        <time>2020-07-26T14:28:22Z</time>
      </trkpt>
      <trkpt lat="45.5519" lon="5.99228">
        <ele>376.97</ele>
        <time>2020-07-26T14:28:39Z</time>
      </trkpt>
      <trkpt lat="45.55198" lon="5.99219">
        <ele>374.09</ele>
        <time>2020-07-26T14:28:54Z</time>
      </trkpt>
      <trkpt lat="45.55201" lon="5.99215">
        <ele>374.09</ele>
        <time>2020-07-26T14:29:09Z</time>
      </trkpt>
      <trkpt lat="45.55215" lon="5.99198">
        <ele>371.69</ele>
        <time>2020-07-26T14:29:32Z</time>
      </trkpt>
      <trkpt lat="45.55226" lon="5.99182">
        <ele>367.84</ele>
        <time>2020-07-26T14:29:49Z</time>
      </trkpt>
      <trkpt lat="45.55238" lon="5.99165">
        <ele>365.92</ele>
        <time>2020-07-26T14:30:06Z</time>
      </trkpt>
      <trkpt lat="45.55248" lon="5.99154">
        <ele>364.96</ele>
        <time>2020-07-26T14:30:22Z</time>
      </trkpt>
      <trkpt lat="45.55262" lon="5.99141">
        <ele>363.04</ele>
        <time>2020-07-26T14:30:42Z</time>
      </trkpt>
      <trkpt lat="45.55278" lon="5.99129">
        <ele>360.15</ele>
        <time>2020-07-26T14:31:00Z</time>
      </trkpt>
      <trkpt lat="45.55279" lon="5.99128">
        <ele>360.15</ele>
        <time>2020-07-26T14:31:01Z</time>
      </trkpt>
      <trkpt lat="45.55293" lon="5.99121">
        <ele>356.79</ele>
        <time>2020-07-26T14:31:16Z</time>
      </trkpt>
      <trkpt lat="45.55308" lon="5.99111">
        <ele>353.9</ele>
        <time>2020-07-26T14:31:31Z</time>
      </trkpt>
      <trkpt lat="45.55318" lon="5.99104">
        <ele>350.06</ele>
        <time>2020-07-26T14:31:41Z</time>
      </trkpt>
      <trkpt lat="45.55319" lon="5.99103">
        <ele>349.58</ele>
        <time>2020-07-26T14:31:43Z</time>
      </trkpt>
      <trkpt lat="45.55335" lon="5.99094">
        <ele>350.06</ele>
        <time>2020-07-26T14:32:02Z</time>
      </trkpt>
      <trkpt lat="45.55343" lon="5.99087">
        <ele>346.69</ele>
        <time>2020-07-26T14:32:13Z</time>
      </trkpt>
      <trkpt lat="45.55354" lon="5.99078">
        <ele>343.81</ele>
        <time>2020-07-26T14:32:27Z</time>
      </trkpt>
      <trkpt lat="45.55365" lon="5.99066">
        <ele>340.44</ele>
        <time>2020-07-26T14:32:42Z</time>
      </trkpt>
      <trkpt lat="45.55371" lon="5.99059">
        <ele>338.52</ele>
        <time>2020-07-26T14:32:56Z</time>
      </trkpt>
      <trkpt lat="45.55375" lon="5.99054">
        <ele>337.56</ele>
        <time>2020-07-26T14:33:03Z</time>
      </trkpt>
      <trkpt lat="45.55376" lon="5.99053">
        <ele>337.56</ele>
        <time>2020-07-26T14:33:04Z</time>
      </trkpt>
      <trkpt lat="45.5538" lon="5.99048">
        <ele>336.6</ele>
        <time>2020-07-26T14:33:10Z</time>
      </trkpt>
      <trkpt lat="45.55396" lon="5.99038">
        <ele>333.71</ele>
        <time>2020-07-26T14:33:28Z</time>
      </trkpt>
      <trkpt lat="45.55408" lon="5.99025">
        <ele>330.35</ele>
        <time>2020-07-26T14:33:45Z</time>
      </trkpt>
      <trkpt lat="45.55411" lon="5.99022">
        <ele>329.87</ele>
        <time>2020-07-26T14:33:48Z</time>
      </trkpt>
      <trkpt lat="45.55412" lon="5.99019">
        <ele>329.39</ele>
        <time>2020-07-26T14:33:50Z</time>
      </trkpt>
      <trkpt lat="45.55416" lon="5.98986">
        <ele>326.99</ele>
        <time>2020-07-26T14:34:09Z</time>
      </trkpt>
      <trkpt lat="45.55421" lon="5.98953">
        <ele>324.1</ele>
        <time>2020-07-26T14:34:30Z</time>
      </trkpt>
      <trkpt lat="45.55423" lon="5.98924">
        <ele>322.18</ele>
        <time>2020-07-26T14:34:50Z</time>
      </trkpt>
      <trkpt lat="45.55427" lon="5.98891">
        <ele>320.26</ele>
        <time>2020-07-26T14:35:10Z</time>
      </trkpt>
      <trkpt lat="45.5543" lon="5.98859">
        <ele>319.3</ele>
        <time>2020-07-26T14:35:30Z</time>
      </trkpt>
      <trkpt lat="45.55433" lon="5.98829">
        <ele>318.81</ele>
        <time>2020-07-26T14:35:50Z</time>
      </trkpt>
      <trkpt lat="45.55435" lon="5.98809">
        <ele>316.41</ele>
        <time>2020-07-26T14:36:04Z</time>
      </trkpt>
      <trkpt lat="45.55432" lon="5.98799">
        <ele>318.81</ele>
        <time>2020-07-26T14:36:12Z</time>
      </trkpt>
      <trkpt lat="45.55431" lon="5.98798">
        <ele>318.81</ele>
        <time>2020-07-26T14:36:13Z</time>
      </trkpt>
      <trkpt lat="45.55419" lon="5.98792">
        <ele>317.37</ele>
        <time>2020-07-26T14:36:31Z</time>
      </trkpt>
      <trkpt lat="45.55414" lon="5.98793">
        <ele>317.37</ele>
        <time>2020-07-26T14:36:45Z</time>
      </trkpt>
      <trkpt lat="45.55413" lon="5.98793">
        <ele>317.85</ele>
        <time>2020-07-26T14:36:46Z</time>
      </trkpt>
      <trkpt lat="45.55414" lon="5.98795">
        <ele>318.33</ele>
        <time>2020-07-26T14:36:59Z</time>
      </trkpt>
      <trkpt lat="45.55413" lon="5.98799">
        <ele>317.85</ele>
        <time>2020-07-26T14:37:18Z</time>
      </trkpt>
      <trkpt lat="45.55411" lon="5.98802">
        <ele>317.85</ele>
        <time>2020-07-26T14:37:21Z</time>
      </trkpt>
      <trkpt lat="45.55405" lon="5.988">
        <ele>318.33</ele>
        <time>2020-07-26T14:37:35Z</time>
      </trkpt>
      <trkpt lat="45.55401" lon="5.98802">
        <ele>318.33</ele>
        <time>2020-07-26T14:37:51Z</time>
      </trkpt>
      <trkpt lat="45.55391" lon="5.98801">
        <ele>317.85</ele>
        <time>2020-07-26T14:38:04Z</time>
      </trkpt>
      <trkpt lat="45.55387" lon="5.98797">
        <ele>317.85</ele>
        <time>2020-07-26T14:38:21Z</time>
      </trkpt>
      <trkpt lat="45.55384" lon="5.98797">
        <ele>318.33</ele>
        <time>2020-07-26T14:38:42Z</time>
      </trkpt>
      <trkpt lat="45.55376" lon="5.98797">
        <ele>317.85</ele>
        <time>2020-07-26T14:39:01Z</time>
      </trkpt>
      <trkpt lat="45.55368" lon="5.98796">
        <ele>317.37</ele>
        <time>2020-07-26T14:39:10Z</time>
      </trkpt>
      <trkpt lat="45.55353" lon="5.98795">
        <ele>315.93</ele>
        <time>2020-07-26T14:39:27Z</time>
      </trkpt>
      <trkpt lat="45.55344" lon="5.98792">
        <ele>314.01</ele>
        <time>2020-07-26T14:39:40Z</time>
      </trkpt>
      <trkpt lat="45.55336" lon="5.98793">
        <ele>313.53</ele>
        <time>2020-07-26T14:39:54Z</time>
      </trkpt>
      <trkpt lat="45.55321" lon="5.98793">
        <ele>311.6</ele>
        <time>2020-07-26T14:40:12Z</time>
      </trkpt>
      <trkpt lat="45.55305" lon="5.98791">
        <ele>310.16</ele>
        <time>2020-07-26T14:40:30Z</time>
      </trkpt>
      <trkpt lat="45.55291" lon="5.9879">
        <ele>308.72</ele>
        <time>2020-07-26T14:40:46Z</time>
      </trkpt>
      <trkpt lat="45.5529" lon="5.98789">
        <ele>308.24</ele>
        <time>2020-07-26T14:40:47Z</time>
      </trkpt>
      <trkpt lat="45.55273" lon="5.98783">
        <ele>305.84</ele>
        <time>2020-07-26T14:41:04Z</time>
      </trkpt>
      <trkpt lat="45.55252" lon="5.98778">
        <ele>303.43</ele>
        <time>2020-07-26T14:41:24Z</time>
      </trkpt>
      <trkpt lat="45.5523" lon="5.98784">
        <ele>300.55</ele>
        <time>2020-07-26T14:41:45Z</time>
      </trkpt>
      <trkpt lat="45.55222" lon="5.98783">
        <ele>299.11</ele>
        <time>2020-07-26T14:41:54Z</time>
      </trkpt>
      <trkpt lat="45.55211" lon="5.98779">
        <ele>296.22</ele>
        <time>2020-07-26T14:42:05Z</time>
      </trkpt>
      <trkpt lat="45.55203" lon="5.98778">
        <ele>297.18</ele>
        <time>2020-07-26T14:42:13Z</time>
      </trkpt>
      <trkpt lat="45.55194" lon="5.98777">
        <ele>296.7</ele>
        <time>2020-07-26T14:42:24Z</time>
      </trkpt>
      <trkpt lat="45.55191" lon="5.98776">
        <ele>297.67</ele>
        <time>2020-07-26T14:42:27Z</time>
      </trkpt>
      <trkpt lat="45.55189" lon="5.98775">
        <ele>298.15</ele>
        <time>2020-07-26T14:42:29Z</time>
      </trkpt>
      <trkpt lat="45.55186" lon="5.98774">
        <ele>299.59</ele>
        <time>2020-07-26T14:42:32Z</time>
      </trkpt>
      <trkpt lat="45.55174" lon="5.98778">
        <ele>298.15</ele>
        <time>2020-07-26T14:42:45Z</time>
      </trkpt>
      <trkpt lat="45.55164" lon="5.98781">
        <ele>297.18</ele>
        <time>2020-07-26T14:42:55Z</time>
      </trkpt>
      <trkpt lat="45.55147" lon="5.98789">
        <ele>296.7</ele>
        <time>2020-07-26T14:43:13Z</time>
      </trkpt>
      <trkpt lat="45.55128" lon="5.98792">
        <ele>296.22</ele>
        <time>2020-07-26T14:43:33Z</time>
      </trkpt>
      <trkpt lat="45.55116" lon="5.98788">
        <ele>296.22</ele>
        <time>2020-07-26T14:43:46Z</time>
      </trkpt>
      <trkpt lat="45.55101" lon="5.98779">
        <ele>297.18</ele>
        <time>2020-07-26T14:44:01Z</time>
      </trkpt>
      <trkpt lat="45.551" lon="5.98779">
        <ele>297.18</ele>
        <time>2020-07-26T14:44:02Z</time>
      </trkpt>
      <trkpt lat="45.55099" lon="5.98778">
        <ele>297.18</ele>
        <time>2020-07-26T14:44:03Z</time>
      </trkpt>
      <trkpt lat="45.55098" lon="5.98777">
        <ele>297.18</ele>
        <time>2020-07-26T14:44:04Z</time>
      </trkpt>
      <trkpt lat="45.55095" lon="5.98777">
        <ele>297.18</ele>
        <time>2020-07-26T14:44:08Z</time>
      </trkpt>
      <trkpt lat="45.55081" lon="5.98772">
        <ele>298.15</ele>
        <time>2020-07-26T14:44:23Z</time>
      </trkpt>
      <trkpt lat="45.55074" lon="5.98767">
        <ele>298.63</ele>
        <time>2020-07-26T14:44:36Z</time>
      </trkpt>
      <trkpt lat="45.55058" lon="5.98759">
        <ele>299.59</ele>
        <time>2020-07-26T14:44:52Z</time>
      </trkpt>
      <trkpt lat="45.55043" lon="5.98757">
        <ele>299.59</ele>
        <time>2020-07-26T14:45:08Z</time>
      </trkpt>
      <trkpt lat="45.55037" lon="5.98762">
        <ele>299.59</ele>
        <time>2020-07-26T14:45:23Z</time>
      </trkpt>
      <trkpt lat="45.55036" lon="5.98761">
        <ele>299.59</ele>
        <time>2020-07-26T14:45:24Z</time>
      </trkpt>
      <trkpt lat="45.55035" lon="5.98761">
        <ele>299.59</ele>
        <time>2020-07-26T14:45:25Z</time>
      </trkpt>
      <trkpt lat="45.55034" lon="5.9876">
        <ele>299.59</ele>
        <time>2020-07-26T14:45:26Z</time>
      </trkpt>
      <trkpt lat="45.55033" lon="5.98759">
        <ele>299.59</ele>
        <time>2020-07-26T14:45:27Z</time>
      </trkpt>
      <trkpt lat="45.55032" lon="5.98759">
        <ele>299.59</ele>
        <time>2020-07-26T14:45:28Z</time>
      </trkpt>
      <trkpt lat="45.55022" lon="5.98738">
        <ele>299.59</ele>
        <time>2020-07-26T14:45:45Z</time>
      </trkpt>
      <trkpt lat="45.55018" lon="5.98721">
        <ele>299.59</ele>
        <time>2020-07-26T14:46:00Z</time>
      </trkpt>
      <trkpt lat="45.55017" lon="5.98715">
        <ele>299.11</ele>
        <time>2020-07-26T14:46:06Z</time>
      </trkpt>
      <trkpt lat="45.55017" lon="5.98713">
        <ele>299.11</ele>
        <time>2020-07-26T14:46:07Z</time>
      </trkpt>
      <trkpt lat="45.55019" lon="5.98705">
        <ele>298.63</ele>
        <time>2020-07-26T14:46:12Z</time>
      </trkpt>
      <trkpt lat="45.55019" lon="5.98704">
        <ele>298.63</ele>
        <time>2020-07-26T14:46:13Z</time>
      </trkpt>
      <trkpt lat="45.5502" lon="5.98702">
        <ele>298.63</ele>
        <time>2020-07-26T14:46:14Z</time>
      </trkpt>
      <trkpt lat="45.5502" lon="5.98701">
        <ele>298.63</ele>
        <time>2020-07-26T14:46:15Z</time>
      </trkpt>
      <trkpt lat="45.55021" lon="5.98699">
        <ele>298.63</ele>
        <time>2020-07-26T14:46:16Z</time>
      </trkpt>
      <trkpt lat="45.55022" lon="5.98698">
        <ele>298.63</ele>
        <time>2020-07-26T14:46:17Z</time>
      </trkpt>
      <trkpt lat="45.55023" lon="5.98693">
        <ele>298.63</ele>
        <time>2020-07-26T14:46:20Z</time>
      </trkpt>
      <trkpt lat="45.55024" lon="5.98686">
        <ele>298.63</ele>
        <time>2020-07-26T14:46:25Z</time>
      </trkpt>
      <trkpt lat="45.55026" lon="5.98676">
        <ele>298.63</ele>
        <time>2020-07-26T14:46:32Z</time>
      </trkpt>
      <trkpt lat="45.55029" lon="5.98666">
        <ele>298.63</ele>
        <time>2020-07-26T14:46:40Z</time>
      </trkpt>
      <trkpt lat="45.55028" lon="5.98664">
        <ele>298.63</ele>
        <time>2020-07-26T14:46:41Z</time>
      </trkpt>
      <trkpt lat="45.55028" lon="5.98662">
        <ele>298.63</ele>
        <time>2020-07-26T14:46:42Z</time>
      </trkpt>
      <trkpt lat="45.55028" lon="5.98661">
        <ele>298.63</ele>
        <time>2020-07-26T14:46:43Z</time>
      </trkpt>
      <trkpt lat="45.55028" lon="5.98659">
        <ele>298.63</ele>
        <time>2020-07-26T14:46:44Z</time>
      </trkpt>
      <trkpt lat="45.55028" lon="5.98657">
        <ele>298.63</ele>
        <time>2020-07-26T14:46:45Z</time>
      </trkpt>
      <trkpt lat="45.55029" lon="5.98655">
        <ele>298.63</ele>
        <time>2020-07-26T14:46:46Z</time>
      </trkpt>
      <trkpt lat="45.55031" lon="5.9863">
        <ele>298.63</ele>
        <time>2020-07-26T14:47:04Z</time>
      </trkpt>
      <trkpt lat="45.5503" lon="5.98596">
        <ele>298.63</ele>
        <time>2020-07-26T14:47:22Z</time>
      </trkpt>
      <trkpt lat="45.55033" lon="5.98568">
        <ele>298.63</ele>
        <time>2020-07-26T14:47:43Z</time>
      </trkpt>
      <trkpt lat="45.55031" lon="5.98531">
        <ele>298.63</ele>
        <time>2020-07-26T14:48:04Z</time>
      </trkpt>
      <trkpt lat="45.55034" lon="5.98501">
        <ele>298.63</ele>
        <time>2020-07-26T14:48:19Z</time>
      </trkpt>
      <trkpt lat="45.55034" lon="5.9848">
        <ele>298.15</ele>
        <time>2020-07-26T14:48:34Z</time>
      </trkpt>
      <trkpt lat="45.55034" lon="5.98472">
        <ele>298.15</ele>
        <time>2020-07-26T14:48:40Z</time>
      </trkpt>
      <trkpt lat="45.55035" lon="5.98449">
        <ele>298.15</ele>
        <time>2020-07-26T14:48:56Z</time>
      </trkpt>
      <trkpt lat="45.55033" lon="5.9841">
        <ele>297.67</ele>
        <time>2020-07-26T14:49:16Z</time>
      </trkpt>
      <trkpt lat="45.55033" lon="5.98408">
        <ele>297.67</ele>
        <time>2020-07-26T14:49:17Z</time>
      </trkpt>
      <trkpt lat="45.55033" lon="5.98395">
        <ele>297.67</ele>
        <time>2020-07-26T14:49:27Z</time>
      </trkpt>
      <trkpt lat="45.55034" lon="5.98391">
        <ele>297.67</ele>
        <time>2020-07-26T14:49:30Z</time>
      </trkpt>
      <trkpt lat="45.55029" lon="5.98375">
        <ele>298.63</ele>
        <time>2020-07-26T14:49:46Z</time>
      </trkpt>
      <trkpt lat="45.5502" lon="5.98369">
        <ele>298.15</ele>
        <time>2020-07-26T14:50:04Z</time>
      </trkpt>
      <trkpt lat="45.55018" lon="5.98366">
        <ele>298.15</ele>
        <time>2020-07-26T14:50:23Z</time>
      </trkpt>
      <trkpt lat="45.55019" lon="5.98362">
        <ele>298.15</ele>
        <time>2020-07-26T14:50:47Z</time>
      </trkpt>
      <trkpt lat="45.55014" lon="5.98352">
        <ele>298.15</ele>
        <time>2020-07-26T14:51:08Z</time>
      </trkpt>
      <trkpt lat="45.55014" lon="5.9835">
        <ele>298.15</ele>
        <time>2020-07-26T14:51:19Z</time>
      </trkpt>
      <trkpt lat="45.54998" lon="5.98331">
        <ele>299.59</ele>
        <time>2020-07-26T14:51:42Z</time>
      </trkpt>
      <trkpt lat="45.54982" lon="5.98332">
        <ele>301.03</ele>
        <time>2020-07-26T14:52:02Z</time>
      </trkpt>
      <trkpt lat="45.54972" lon="5.98334">
        <ele>301.99</ele>
        <time>2020-07-26T14:52:16Z</time>
      </trkpt>
      <trkpt lat="45.54968" lon="5.98335">
        <ele>301.99</ele>
        <time>2020-07-26T14:52:20Z</time>
      </trkpt>
      <trkpt lat="45.54967" lon="5.98336">
        <ele>301.99</ele>
        <time>2020-07-26T14:52:21Z</time>
      </trkpt>
      <trkpt lat="45.54966" lon="5.98336">
        <ele>301.99</ele>
        <time>2020-07-26T14:52:22Z</time>
      </trkpt>
      <trkpt lat="45.54964" lon="5.98336">
        <ele>301.99</ele>
        <time>2020-07-26T14:52:23Z</time>
      </trkpt>
      <trkpt lat="45.54963" lon="5.98337">
        <ele>301.99</ele>
        <time>2020-07-26T14:52:24Z</time>
      </trkpt>
      <trkpt lat="45.54958" lon="5.98338">
        <ele>301.99</ele>
        <time>2020-07-26T14:52:29Z</time>
      </trkpt>
      <trkpt lat="45.54957" lon="5.98339">
        <ele>301.99</ele>
        <time>2020-07-26T14:52:30Z</time>
      </trkpt>
      <trkpt lat="45.54949" lon="5.98343">
        <ele>301.99</ele>
        <time>2020-07-26T14:52:39Z</time>
      </trkpt>
      <trkpt lat="45.54943" lon="5.98346">
        <ele>301.99</ele>
        <time>2020-07-26T14:52:44Z</time>
      </trkpt>
      <trkpt lat="45.54943" lon="5.98347">
        <ele>301.99</ele>
        <time>2020-07-26T14:52:45Z</time>
      </trkpt>
      <trkpt lat="45.54931" lon="5.98354">
        <ele>303.43</ele>
        <time>2020-07-26T14:53:00Z</time>
      </trkpt>
      <trkpt lat="45.54918" lon="5.98363">
        <ele>303.91</ele>
        <time>2020-07-26T14:53:16Z</time>
      </trkpt>
      <trkpt lat="45.54917" lon="5.98363">
        <ele>303.91</ele>
        <time>2020-07-26T14:53:17Z</time>
      </trkpt>
      <trkpt lat="45.54913" lon="5.98364">
        <ele>303.91</ele>
        <time>2020-07-26T14:53:20Z</time>
      </trkpt>
      <trkpt lat="45.54912" lon="5.98365">
        <ele>303.91</ele>
        <time>2020-07-26T14:53:21Z</time>
      </trkpt>
      <trkpt lat="45.54898" lon="5.98353">
        <ele>304.88</ele>
        <time>2020-07-26T14:53:39Z</time>
      </trkpt>
      <trkpt lat="45.54897" lon="5.98352">
        <ele>304.88</ele>
        <time>2020-07-26T14:53:40Z</time>
      </trkpt>
      <trkpt lat="45.54888" lon="5.98335">
        <ele>305.36</ele>
        <time>2020-07-26T14:53:55Z</time>
      </trkpt>
      <trkpt lat="45.54875" lon="5.98339">
        <ele>305.36</ele>
        <time>2020-07-26T14:54:11Z</time>
      </trkpt>
      <trkpt lat="45.5486" lon="5.98344">
        <ele>306.32</ele>
        <time>2020-07-26T14:54:27Z</time>
      </trkpt>
      <trkpt lat="45.54845" lon="5.98332">
        <ele>306.32</ele>
        <time>2020-07-26T14:54:47Z</time>
      </trkpt>
      <trkpt lat="45.54844" lon="5.98331">
        <ele>306.8</ele>
        <time>2020-07-26T14:54:48Z</time>
      </trkpt>
      <trkpt lat="45.54843" lon="5.98331">
        <ele>306.8</ele>
        <time>2020-07-26T14:54:49Z</time>
      </trkpt>
      <trkpt lat="45.54842" lon="5.98331">
        <ele>306.8</ele>
        <time>2020-07-26T14:54:50Z</time>
      </trkpt>
      <trkpt lat="45.54841" lon="5.98331">
        <ele>306.8</ele>
        <time>2020-07-26T14:54:51Z</time>
      </trkpt>
      <trkpt lat="45.54836" lon="5.98332">
        <ele>306.8</ele>
        <time>2020-07-26T14:54:56Z</time>
      </trkpt>
      <trkpt lat="45.54835" lon="5.98332">
        <ele>306.8</ele>
        <time>2020-07-26T14:54:57Z</time>
      </trkpt>
      <trkpt lat="45.54834" lon="5.98333">
        <ele>307.28</ele>
        <time>2020-07-26T14:54:58Z</time>
      </trkpt>
      <trkpt lat="45.54828" lon="5.98335">
        <ele>307.76</ele>
        <time>2020-07-26T14:55:06Z</time>
      </trkpt>
      <trkpt lat="45.54825" lon="5.98336">
        <ele>308.24</ele>
        <time>2020-07-26T14:55:10Z</time>
      </trkpt>
      <trkpt lat="45.54814" lon="5.98329">
        <ele>309.2</ele>
        <time>2020-07-26T14:55:27Z</time>
      </trkpt>
      <trkpt lat="45.5481" lon="5.98306">
        <ele>310.16</ele>
        <time>2020-07-26T14:55:43Z</time>
      </trkpt>
      <trkpt lat="45.54809" lon="5.98305">
        <ele>310.16</ele>
        <time>2020-07-26T14:55:44Z</time>
      </trkpt>
      <trkpt lat="45.54794" lon="5.98287">
        <ele>311.6</ele>
        <time>2020-07-26T14:56:02Z</time>
      </trkpt>
      <trkpt lat="45.54785" lon="5.98281">
        <ele>312.09</ele>
        <time>2020-07-26T14:56:11Z</time>
      </trkpt>
      <trkpt lat="45.54783" lon="5.98281">
        <ele>312.09</ele>
        <time>2020-07-26T14:56:12Z</time>
      </trkpt>
      <trkpt lat="45.5477" lon="5.98282">
        <ele>312.57</ele>
        <time>2020-07-26T14:56:30Z</time>
      </trkpt>
      <trkpt lat="45.54764" lon="5.98283">
        <ele>313.05</ele>
        <time>2020-07-26T14:56:50Z</time>
      </trkpt>
      <trkpt lat="45.54752" lon="5.98285">
        <ele>314.01</ele>
        <time>2020-07-26T14:57:05Z</time>
      </trkpt>
      <trkpt lat="45.54751" lon="5.98286">
        <ele>314.01</ele>
        <time>2020-07-26T14:57:06Z</time>
      </trkpt>
      <trkpt lat="45.54735" lon="5.98289">
        <ele>314.97</ele>
        <time>2020-07-26T14:57:24Z</time>
      </trkpt>
      <trkpt lat="45.54734" lon="5.9829">
        <ele>314.97</ele>
        <time>2020-07-26T14:57:25Z</time>
      </trkpt>
      <trkpt lat="45.54733" lon="5.9829">
        <ele>314.97</ele>
        <time>2020-07-26T14:57:26Z</time>
      </trkpt>
      <trkpt lat="45.54732" lon="5.98291">
        <ele>314.97</ele>
        <time>2020-07-26T14:57:27Z</time>
      </trkpt>
      <trkpt lat="45.54731" lon="5.98291">
        <ele>314.97</ele>
        <time>2020-07-26T14:57:28Z</time>
      </trkpt>
      <trkpt lat="45.5473" lon="5.98292">
        <ele>314.97</ele>
        <time>2020-07-26T14:57:29Z</time>
      </trkpt>
      <trkpt lat="45.5472" lon="5.98286">
        <ele>315.93</ele>
        <time>2020-07-26T14:57:41Z</time>
      </trkpt>
      <trkpt lat="45.5472" lon="5.98285">
        <ele>316.41</ele>
        <time>2020-07-26T14:57:42Z</time>
      </trkpt>
      <trkpt lat="45.54719" lon="5.98284">
        <ele>316.41</ele>
        <time>2020-07-26T14:57:43Z</time>
      </trkpt>
      <trkpt lat="45.54719" lon="5.9826">
        <ele>317.37</ele>
        <time>2020-07-26T14:57:59Z</time>
      </trkpt>
      <trkpt lat="45.54717" lon="5.98237">
        <ele>317.85</ele>
        <time>2020-07-26T14:58:17Z</time>
      </trkpt>
      <trkpt lat="45.54715" lon="5.9821">
        <ele>318.33</ele>
        <time>2020-07-26T14:58:37Z</time>
      </trkpt>
      <trkpt lat="45.54715" lon="5.98198">
        <ele>318.81</ele>
        <time>2020-07-26T14:58:48Z</time>
      </trkpt>
      <trkpt lat="45.54715" lon="5.98193">
        <ele>318.81</ele>
        <time>2020-07-26T14:58:52Z</time>
      </trkpt>
      <trkpt lat="45.54713" lon="5.98176">
        <ele>319.3</ele>
        <time>2020-07-26T14:59:06Z</time>
      </trkpt>
      <trkpt lat="45.54713" lon="5.98152">
        <ele>319.78</ele>
        <time>2020-07-26T14:59:26Z</time>
      </trkpt>
      <trkpt lat="45.54711" lon="5.98147">
        <ele>319.78</ele>
        <time>2020-07-26T14:59:29Z</time>
      </trkpt>
      <trkpt lat="45.54711" lon="5.98145">
        <ele>319.78</ele>
        <time>2020-07-26T14:59:30Z</time>
      </trkpt>
      <trkpt lat="45.54711" lon="5.98142">
        <ele>321.22</ele>
        <time>2020-07-26T14:59:44Z</time>
      </trkpt>
      <trkpt lat="45.5471" lon="5.98137">
        <ele>321.7</ele>
        <time>2020-07-26T15:00:01Z</time>
      </trkpt>
      <trkpt lat="45.54704" lon="5.98137">
        <ele>321.7</ele>
        <time>2020-07-26T15:00:38Z</time>
      </trkpt>
      <trkpt lat="45.54702" lon="5.98137">
        <ele>321.7</ele>
        <time>2020-07-26T15:00:40Z</time>
      </trkpt>
      <trkpt lat="45.54701" lon="5.98137">
        <ele>321.7</ele>
        <time>2020-07-26T15:00:41Z</time>
      </trkpt>
      <trkpt lat="45.547" lon="5.98136">
        <ele>321.7</ele>
        <time>2020-07-26T15:00:42Z</time>
      </trkpt>
      <trkpt lat="45.54699" lon="5.98135">
        <ele>321.7</ele>
        <time>2020-07-26T15:00:43Z</time>
      </trkpt>
      <trkpt lat="45.54698" lon="5.98134">
        <ele>321.7</ele>
        <time>2020-07-26T15:00:44Z</time>
      </trkpt>
      <trkpt lat="45.54697" lon="5.98133">
        <ele>321.7</ele>
        <time>2020-07-26T15:00:45Z</time>
      </trkpt>
      <trkpt lat="45.54697" lon="5.98132">
        <ele>321.7</ele>
        <time>2020-07-26T15:00:46Z</time>
      </trkpt>
      <trkpt lat="45.54687" lon="5.98116">
        <ele>321.7</ele>
        <time>2020-07-26T15:01:01Z</time>
      </trkpt>
      <trkpt lat="45.54673" lon="5.98094">
        <ele>320.74</ele>
        <time>2020-07-26T15:01:19Z</time>
      </trkpt>
      <trkpt lat="45.5466" lon="5.98076">
        <ele>319.3</ele>
        <time>2020-07-26T15:01:36Z</time>
      </trkpt>
      <trkpt lat="45.54649" lon="5.98064">
        <ele>317.85</ele>
        <time>2020-07-26T15:01:50Z</time>
      </trkpt>
      <trkpt lat="45.54637" lon="5.98059">
        <ele>316.89</ele>
        <time>2020-07-26T15:02:07Z</time>
      </trkpt>
      <trkpt lat="45.54632" lon="5.98067">
        <ele>315.93</ele>
        <time>2020-07-26T15:02:23Z</time>
      </trkpt>
      <trkpt lat="45.54633" lon="5.98069">
        <ele>316.41</ele>
        <time>2020-07-26T15:02:55Z</time>
      </trkpt>
      <trkpt lat="45.54635" lon="5.9807">
        <ele>317.37</ele>
        <time>2020-07-26T15:03:16Z</time>
      </trkpt>
      <trkpt lat="45.54629" lon="5.98067">
        <ele>316.41</ele>
        <time>2020-07-26T15:03:49Z</time>
      </trkpt>
      <trkpt lat="45.54623" lon="5.98064">
        <ele>317.37</ele>
        <time>2020-07-26T15:03:54Z</time>
      </trkpt>
      <trkpt lat="45.54619" lon="5.98069">
        <ele>316.89</ele>
        <time>2020-07-26T15:04:04Z</time>
      </trkpt>
      <trkpt lat="45.5462" lon="5.98068">
        <ele>316.89</ele>
        <time>2020-07-26T15:04:36Z</time>
      </trkpt>
      <trkpt lat="45.5462" lon="5.98066">
        <ele>316.89</ele>
        <time>2020-07-26T15:04:58Z</time>
      </trkpt>
      <trkpt lat="45.54617" lon="5.98066">
        <ele>316.89</ele>
        <time>2020-07-26T15:05:23Z</time>
      </trkpt>
      <trkpt lat="45.54617" lon="5.98067">
        <ele>315.93</ele>
        <time>2020-07-26T15:05:43Z</time>
      </trkpt>
      <trkpt lat="45.54618" lon="5.98068">
        <ele>319.3</ele>
        <time>2020-07-26T15:06:00Z</time>
      </trkpt>
      <trkpt lat="45.5462" lon="5.9807">
        <ele>318.81</ele>
        <time>2020-07-26T15:06:20Z</time>
      </trkpt>
      <trkpt lat="45.5462" lon="5.98075">
        <ele>316.89</ele>
        <time>2020-07-26T15:06:36Z</time>
      </trkpt>
      <trkpt lat="45.54622" lon="5.98073">
        <ele>318.81</ele>
        <time>2020-07-26T15:06:43Z</time>
      </trkpt>
      <trkpt lat="45.54634" lon="5.9807">
        <ele>317.85</ele>
        <time>2020-07-26T15:07:04Z</time>
      </trkpt>
      <trkpt lat="45.54633" lon="5.98071">
        <ele>317.37</ele>
        <time>2020-07-26T15:07:27Z</time>
      </trkpt>
      <trkpt lat="45.54633" lon="5.98074">
        <ele>317.37</ele>
        <time>2020-07-26T15:07:31Z</time>
      </trkpt>
      <trkpt lat="45.54631" lon="5.98063">
        <ele>318.33</ele>
        <time>2020-07-26T15:07:58Z</time>
      </trkpt>
      <trkpt lat="45.54631" lon="5.98064">
        <ele>318.81</ele>
        <time>2020-07-26T15:08:11Z</time>
      </trkpt>
      <trkpt lat="45.54631" lon="5.98064">
        <ele>319.3</ele>
        <time>2020-07-26T15:08:27Z</time>
      </trkpt>
      <trkpt lat="45.54637" lon="5.98069">
        <ele>319.3</ele>
        <time>2020-07-26T15:08:51Z</time>
      </trkpt>
      <trkpt lat="45.54635" lon="5.98073">
        <ele>318.81</ele>
        <time>2020-07-26T15:09:31Z</time>
      </trkpt>
      <trkpt lat="45.54636" lon="5.98067">
        <ele>318.81</ele>
        <time>2020-07-26T15:10:14Z</time>
      </trkpt>
      <trkpt lat="45.54634" lon="5.98067">
        <ele>318.81</ele>
        <time>2020-07-26T15:10:56Z</time>
      </trkpt>
      <trkpt lat="45.54632" lon="5.98062">
        <ele>318.81</ele>
        <time>2020-07-26T15:11:34Z</time>
      </trkpt>
      <trkpt lat="45.54633" lon="5.98059">
        <ele>318.81</ele>
        <time>2020-07-26T15:11:56Z</time>
      </trkpt>
    </trkseg>
  </trk>
</gpx>